[[{"header":{"parameterUnit":"m.s-1","parameterCategory":1,"la1":31.0,"la2":29.5877,"lo1":-88.7671,"lo2":-86.6584,"dy":0.0162,"dx":0.0185,"nx":115,"ny":88,"refTime":"2024-09-04T00:00:00:Z","depth":0,"parameterNumber":2,"parameterNumberName":"U-component_of_WINDS"},"data":[0.0,0.0,0.0,0.0,0.0,0.0,0.0,0.0,0.0,0.0,0.0,0.0,0.0,0.0,0.0,0.0,0.0,0.0,0.0,0.0,0.0,0.0,0.0,0.0,0.0,0.0,0.0,0.0,0.0,0.0,0.0,0.0,0.0,0.0,0.0,0.0,0.0,0.0,0.0,0.0,0.0,0.0,0.0,0.0,0.0,0.0,0.0,0.0,0.0,0.0,0.0,0.0,0.0,0.0,0.0,0.0,0.0,0.0,0.0,0.0,0.0,0.0,0.0,0.0,0.0,0.0,0.0,0.0,0.0,0.0,0.0,0.0,0.0,0.0,0.0,0.0,0.0,0.0,0.0,0.0,0.0,0.0,0.0,0.0,0.0,0.0,0.0,0.0,0.0,0.0,0.0,0.0,0.0,0.0,0.0,0.0,0.0,0.0,0.0,0.0,0.0,0.0,0.0,0.0,0.0,0.0,0.0,0.0,0.0,0.0,0.0,0.0,0.0,0.0,0.0,0.0,0.0,0.0,0.0,0.0,0.0,0.0,0.0,0.0,0.0,0.0,0.0,0.0,0.0,0.0,0.0,0.0,0.0,0.0,0.0,0.0,0.0,0.0,0.0,0.0,0.0,0.0,0.0,0.0,0.0,0.0,0.0,0.0,0.0,0.0,0.0,0.0,0.0,0.0,0.0,0.0,0.0,0.0,0.0,0.0,0.0,0.0,0.0,0.0,0.0,0.0,0.0,0.0,0.0,0.0,0.0,0.0,0.0,0.0,0.0,0.0,0.0,0.0,0.0,0.0,0.0,0.0,0.0,0.0,0.0,0.0,0.0,0.0,0.0,0.0,0.0,0.0,0.0,0.0,0.0,0.0,0.0,0.0,0.0,0.0,0.0,0.0,0.0,0.0,0.0,0.0,0.0,0.0,0.0,0.0,0.0,0.0,0.0,0.0,0.0,0.0,0.0,0.0,0.0,0.0,0.0,0.0,0.0,0.0,0.0,0.0,0.0,0.0,0.0,0.0,0.0,0.0,0.0,0.0,0.0,0.0,0.0,0.0,0.0,0.0,0.0,0.0,0.0,0.0,0.0,0.0,0.0,0.0,0.0,0.0,0.0,0.0,0.0,0.0,0.0,0.0,0.0,0.0,0.0,0.0,0.0,0.0,0.0,0.0,0.0,0.0,0.0,0.0,0.0,0.0,0.0,0.0,0.0,0.0,0.0,0.0,0.0,0.0,0.0,0.0,0.0,0.0,0.0,0.0,0.0,0.0,0.0,0.0,0.0,0.0,0.0,0.0,0.0,0.0,0.0,0.0,0.0,0.0,0.0,0.0,0.0,0.0,0.0,0.0,0.0,0.0,0.0,0.0,0.0,0.0,0.0,0.0,0.0,0.0,0.0,0.0,0.0,0.0,0.0,0.0,0.0,0.0,0.0,0.0,0.0,0.0,0.0,0.0,0.0,0.0,0.0,0.0,0.0,0.0,0.0,0.0,0.0,0.0,0.0,0.0,0.0,0.0,0.0,0.0,0.0,0.0,0.0,0.0,0.0,0.0,0.0,0.0,0.0,0.0,0.0,0.0,0.0,0.0,0.0,0.0,0.0,0.0,0.0,0.0,0.0,0.0,0.0,0.0,0.0,0.0,0.0,0.0,0.0,0.0,0.0,0.0,0.0,0.0,0.0,0.0,0.0,0.0,0.0,0.0,0.0,0.0,0.0,0.0,0.0,0.0,0.0,0.0,0.0,0.0,0.0,0.0,0.0,0.0,0.0,0.0,0.0,0.0,0.0,0.0,0.0,0.0,0.0,0.0,0.0,0.0,0.0,0.0,0.0,0.0,0.0,0.0,0.0,0.0,0.0,0.0,0.0,0.0,0.0,0.0,0.0,0.0,0.0,0.0,0.0,0.0,0.0,0.0,0.0,0.0,0.0,0.0,0.0,0.0,0.0,0.0,0.0,0.0,0.0,0.0,0.0,0.0,0.0,0.0,0.0,0.0,0.0,0.0,0.0,0.0,0.0,0.0,0.0,0.0,0.0,0.0,0.0,0.0,0.0,0.0,0.0,0.0,0.0,0.0,0.0,0.0,0.0,0.0,0.0,0.0,0.0,0.0,0.0,0.0,0.0,0.0,0.0,0.0,0.0,0.0,0.0,0.0,0.0,0.0,0.0,0.0,0.0,0.0,0.0,0.0,0.0,0.0,0.0,0.0,0.0,0.0,0.0,0.0,0.0,0.0,0.0,0.0,0.0,0.0,0.0,0.0,0.0,0.0,0.0,0.0,0.0,0.0,0.0,0.0,0.0,0.0,0.0,0.0,0.0,0.0,0.0,0.0,0.0,0.0,0.0,0.0,0.0,0.0,0.0,0.0,0.0,0.0,0.0,0.0,0.0,0.0,0.0,0.0,0.0,0.0,0.0,0.0,0.0,0.0,0.0,0.0,0.0,0.0,0.0,0.0,0.0,0.0,0.0,0.0,0.0,0.0,0.0,0.0,0.0,0.0,0.0,0.0,0.0,0.0,0.0,0.0,0.0,0.0,0.0,0.0,0.0,0.0,0.0,0.0,0.0,0.0,0.0,0.0,0.0,0.0,0.0,0.0,0.0,0.0,0.0,0.0,0.0,0.0,0.0,0.0,0.0,0.0,0.0,0.0,0.0,0.0,0.0,0.0,0.0,0.0,0.0,0.0,0.0,0.0,0.0,0.0,0.0,0.0,0.0,0.0,0.0,0.0,0.0,0.0,0.0,0.0,0.0,0.0,0.0,0.0,0.0,0.0,0.0,0.0,0.0,0.0,0.0,0.0,0.0,0.0,0.0,0.0,0.0,0.0,0.0,0.0,0.0,0.0,0.0,0.0,0.0,0.0,0.0,0.0,0.0,0.0,0.0,0.0,0.0,0.0,0.0,0.0,0.0,0.0,0.0,0.0,0.0,0.0,0.0,0.0,0.0,0.0,0.0,0.0,0.0,0.0,0.0,0.0,0.0,0.0,0.0,0.0,0.0,0.0,0.0,0.0,0.0,0.0,0.0,0.0,0.0,0.0,0.0,0.0,0.0,0.0,0.0,0.0,0.0,0.0,0.0,0.0,0.0,0.0,0.0,0.0,0.0,0.0,0.0,0.0,0.0,0.0,0.0,0.0,0.0,0.0,0.0,0.0,0.0,0.0,0.0,0.0,0.0,0.0,0.0,0.0,0.0,0.0,0.0,0.0,0.0,0.0,0.0,0.0,0.0,0.0,0.0,0.0,0.0,0.0,0.0,0.0,0.0,0.0,0.0,0.0,0.0,0.0,0.0,0.0,0.0,0.0,0.0,0.0,0.0,0.0,0.0,0.0,0.0,0.0,0.0,0.0,0.0,0.0,0.0,0.0,0.0,0.0,0.0,0.0,0.0,0.0,0.0,0.0,0.0,0.0,0.0,0.0,0.0,0.0,0.0,0.0,0.0,0.0,0.0,0.0,0.0,0.0,0.0,0.0,0.0,0.0,0.0,0.0,0.0,0.0,0.0,0.0,0.0,0.0,0.0,0.0,0.0,0.0,0.0,0.0,0.0,0.0,0.0,0.0,0.0,0.0,0.0,0.0,0.0,0.0,0.0,0.0,0.0,0.0,0.0,0.0,0.0,0.0,0.0,0.0,0.0,0.0,0.0,0.0,0.0,0.0,0.0,0.0,0.0,0.0,0.0,0.0,0.0,0.0,0.0,0.0,0.0,0.0,0.0,0.0,0.0,0.0,0.0,0.0,0.0,0.0,0.0,0.0,0.0,0.0,0.0,0.0,0.0,0.0,0.0,0.0,0.0,0.0,0.0,0.0,0.0,0.0,0.0,0.0,0.0,0.0,0.0,0.0,0.0,0.0,0.0,0.0,0.0,0.0,0.0,0.0,0.0,0.0,0.0,0.0,0.0,0.0,0.0,0.0,0.0,0.0,0.0,0.0,0.0,0.0,0.0,0.0,0.0,0.0,0.0,0.0,0.0,0.0,0.0,0.0,0.0,0.0,0.0,0.0,0.0,0.0,0.0,0.0,0.0,0.0,0.0,0.0,0.0,0.0,0.0,0.0,0.0,0.0,0.0,0.0,0.0,0.0,0.0,0.0,0.0,0.0,0.0,0.0,0.0,0.0,0.0,0.0,0.0,0.0,0.0,0.0,0.0,0.0,0.0,0.0,0.0,0.0,0.0,0.0,0.0,0.0,0.0,0.0,0.0,0.0,0.0,0.0,0.0,0.0,0.0,0.0,0.0,0.0,0.0,0.0,0.0,0.0,0.0,0.0,0.0,0.0,1.1645,0.0,0.0,0.0,0.0,0.0,0.0,0.0,0.0,0.0,0.0,0.0,0.0,0.0,0.0,0.0,0.0,0.0,0.0,0.0,0.0,0.0,0.0,0.0,0.0,0.0,0.0,0.0,0.0,0.0,0.0,0.0,0.0,0.0,0.0,0.0,0.0,0.0,0.0,0.0,0.0,0.0,0.0,0.0,0.0,0.0,0.0,0.0,0.0,0.0,0.0,0.0,0.0,0.0,0.0,0.0,0.0,0.0,0.0,0.0,0.0,0.0,0.0,0.0,0.0,0.0,0.0,0.0,0.0,0.0,0.0,0.0,0.0,0.0,0.0,0.0,0.0,0.0,0.0,0.0,0.0,0.0,0.0,0.0,0.0,0.0,0.0,0.0,0.0,0.0,0.0,0.0,0.0,0.0,0.0,0.0,0.0,0.0,0.0,0.0,0.0,0.0,0.0,0.0,0.0,0.0,0.0,0.0,0.0,0.0,0.0,1.3113,1.2895,1.2915,1.2484,1.1665,0.0,0.0,0.0,0.0,0.0,0.0,0.0,0.0,0.0,0.0,0.0,0.0,0.0,0.0,0.0,0.0,0.0,0.0,0.0,0.0,0.0,0.0,0.0,0.0,0.0,0.0,0.0,0.0,0.0,0.0,0.0,0.0,0.0,0.0,0.0,0.0,0.0,0.0,0.0,0.0,0.0,0.0,0.0,0.0,0.0,0.0,0.0,0.0,0.0,0.0,0.0,0.0,0.0,0.0,0.0,0.0,0.0,0.0,0.0,0.0,0.0,0.0,0.0,0.0,0.0,0.0,0.0,0.0,0.0,0.0,0.0,0.0,0.0,0.0,0.0,0.0,0.0,0.0,0.0,0.0,0.0,0.0,0.0,0.0,0.0,0.0,0.0,0.0,0.0,0.0,0.0,0.0,0.0,0.0,0.0,0.0,0.0,0.0,0.0,0.0,0.0,0.0,0.0,0.0,0.0,0.0,0.0,0.0,0.0,0.0,0.0,0.0,1.3345,1.2949,1.221,0.0,0.0,0.0,0.0,0.0,0.0,0.0,0.0,0.0,0.0,0.0,0.0,0.0,0.0,0.0,0.0,0.0,0.0,0.0,0.0,0.0,0.0,0.0,0.0,0.0,0.0,0.0,0.0,0.0,0.0,0.0,0.0,0.0,0.0,0.0,0.0,0.0,0.0,0.0,0.0,0.0,0.0,0.0,0.0,0.0,0.0,0.0,0.0,0.0,0.0,0.0,0.0,0.0,0.0,0.0,0.0,0.0,0.0,0.0,0.0,0.0,0.0,0.0,0.0,0.0,0.0,0.0,0.0,0.0,0.0,0.0,0.0,0.0,0.0,0.0,0.0,0.0,0.0,0.0,0.0,0.0,0.0,0.0,0.0,0.0,0.0,0.0,0.0,0.0,0.0,0.0,0.0,0.0,0.0,0.0,0.0,0.0,0.0,0.0,0.0,0.0,0.0,0.0,0.0,0.0,0.0,0.0,0.0,0.0,0.0,1.3443,1.457,1.4617,0.0,1.3899,0.0,0.0,0.0,0.0,0.0,0.0,0.0,0.0,0.0,0.0,0.0,0.0,0.0,0.0,0.0,0.0,0.0,0.0,0.0,0.0,0.0,0.0,0.0,0.0,0.0,0.0,0.0,0.0,0.0,0.0,0.0,0.0,0.0,0.0,0.0,0.0,0.0,0.0,0.0,0.0,0.0,0.0,0.0,0.0,0.0,0.0,0.0,0.0,0.0,0.0,0.0,0.0,0.0,0.0,0.0,0.0,0.0,0.0,0.0,0.0,0.0,0.0,0.0,0.0,0.0,0.0,0.0,0.0,0.0,0.0,0.0,0.0,0.0,0.0,0.0,0.0,0.0,0.0,0.0,0.0,0.0,0.0,0.0,0.0,0.0,0.0,0.0,0.0,0.0,0.0,0.0,0.0,0.0,0.0,0.0,0.0,0.0,0.0,0.0,0.0,0.0,0.0,0.0,0.0,0.0,0.0,0.0,0.0,0.0,0.0,1.4419,1.519,1.4439,1.3945,0.0,0.0,0.0,0.0,0.0,0.0,0.0,0.0,0.0,0.0,0.0,0.0,0.0,0.0,0.0,0.0,0.0,0.0,0.0,0.0,0.0,0.0,0.0,0.0,0.0,0.0,0.0,0.0,0.0,0.0,0.0,0.0,0.0,0.0,0.0,0.0,0.0,0.0,0.0,0.0,0.0,0.0,0.0,0.0,0.0,0.0,0.0,0.0,0.0,0.0,0.0,0.0,0.0,0.0,0.0,0.0,0.0,0.0,0.0,0.0,0.0,0.0,0.0,0.0,0.0,0.0,0.0,0.0,0.0,0.0,0.0,0.0,0.0,0.0,0.0,0.0,0.0,0.0,0.0,0.0,0.0,0.0,0.0,0.0,0.0,0.0,0.0,0.0,0.0,0.0,0.0,0.0,0.0,0.0,0.0,0.0,0.0,0.0,0.0,0.0,0.0,0.0,0.0,0.0,0.0,0.0,0.0,0.0,0.0,0.0,1.5392,0.0,1.5616,1.4842,1.4062,1.3359,0.0,0.0,0.0,0.0,0.0,0.0,0.0,0.0,0.0,0.0,0.0,0.0,0.0,0.0,0.0,0.0,0.0,0.0,0.0,0.0,0.0,0.0,0.0,0.0,0.0,0.0,0.0,0.0,0.0,0.0,0.0,0.0,0.0,0.0,0.0,0.0,0.0,0.0,0.0,0.0,0.0,0.0,0.0,0.0,0.0,0.0,0.0,0.0,0.0,0.0,0.0,0.0,0.0,0.0,0.0,0.0,0.0,0.0,0.0,0.0,0.0,0.0,0.0,0.0,0.0,0.0,0.0,0.0,0.0,0.0,0.0,0.0,0.0,0.0,0.0,0.0,0.0,0.0,0.0,0.0,0.0,0.0,0.0,0.0,0.0,0.0,0.0,0.0,0.0,0.0,0.0,0.0,0.0,0.0,0.0,0.0,0.0,0.0,0.0,0.0,0.0,0.0,0.0,0.0,0.0,0.0,0.0,0.0,0.0,1.6476,1.5669,1.6117,1.6398,1.543,0.0,0.0,0.0,0.0,0.0,0.0,0.0,0.0,0.0,0.0,0.0,0.0,0.0,0.0,0.0,0.0,0.0,0.0,0.0,0.0,0.0,0.0,0.0,0.0,0.0,0.0,0.0,0.0,0.0,0.0,0.0,0.0,0.0,0.0,0.0,0.0,0.0,0.0,0.0,0.0,0.0,0.0,0.0,0.0,0.0,0.0,0.0,0.0,0.0,0.0,0.0,0.0,0.0,0.0,0.0,0.0,0.0,0.0,0.0,0.0,0.0,0.0,0.0,0.0,0.0,0.0,0.0,0.0,0.0,0.0,0.0,0.0,0.0,0.0,0.0,0.0,0.0,0.0,0.0,0.0,0.0,0.0,0.0,0.0,0.0,0.0,0.0,0.0,0.0,0.0,0.0,0.0,0.0,0.0,0.0,0.0,0.0,0.0,0.0,0.0,0.0,0.0,0.0,0.0,0.0,0.0,0.0,0.0,0.0,1.5769,1.5622,1.6468,1.8308,1.6009,1.4837,0.0,0.0,0.0,0.0,0.0,0.0,0.0,0.0,0.0,0.0,0.0,0.0,0.0,0.0,0.0,0.0,0.0,0.0,0.0,0.0,0.0,0.0,0.0,0.0,0.0,0.0,0.0,0.0,0.0,0.0,0.0,0.0,0.0,0.0,0.0,0.0,0.0,0.0,0.0,0.0,0.0,0.0,0.0,0.0,0.0,0.0,0.0,0.0,0.0,0.0,0.0,0.0,0.0,0.0,0.0,0.0,0.0,0.0,0.0,0.0,0.0,0.0,0.0,0.0,0.0,0.0,0.0,0.0,0.0,0.0,0.0,0.0,0.0,0.0,0.0,0.0,0.0,0.0,0.0,0.0,0.0,0.0,0.0,0.0,0.0,0.0,0.0,0.0,0.0,0.0,0.0,0.0,0.0,0.0,0.0,0.0,0.0,0.0,0.0,0.0,0.0,0.0,0.0,0.0,0.0,0.0,0.0,0.0,0.0,1.5684,0.0,1.8123,0.0,1.6246,1.4732,0.0,0.0,0.0,0.0,0.0,0.0,0.0,0.0,0.0,0.0,0.0,0.0,0.0,0.0,0.0,0.0,0.0,0.0,0.0,0.0,0.0,0.0,0.0,0.0,0.0,0.0,0.0,0.0,0.0,0.0,0.0,0.0,0.0,0.0,0.0,0.0,0.0,0.0,0.0,0.0,0.0,0.0,0.0,0.0,0.0,0.0,0.0,0.0,0.0,0.0,0.0,0.0,0.0,0.0,0.0,0.0,0.0,0.0,0.0,0.0,0.0,0.0,0.0,0.0,0.0,0.0,0.0,0.0,0.0,0.0,0.0,0.0,0.0,0.0,0.0,0.0,0.0,0.0,0.0,0.0,0.0,0.0,0.0,0.0,0.0,0.0,0.0,0.0,0.0,0.0,0.0,0.0,0.0,0.0,0.0,0.0,0.0,0.0,0.0,0.0,0.0,0.0,0.0,0.0,0.0,0.0,0.0,0.0,1.5724,1.8509,2.076,2.0434,1.7527,1.7227,1.5256,0.0,0.0,0.0,0.0,0.0,0.0,0.0,0.0,0.0,0.0,0.0,0.0,0.0,0.0,0.0,0.0,0.0,0.0,0.0,0.0,0.0,0.0,0.0,0.0,0.0,0.0,0.0,0.0,0.0,0.0,0.0,0.0,0.0,0.0,0.0,0.0,0.0,0.0,0.0,0.0,0.0,0.0,0.0,0.0,0.0,0.0,0.0,0.0,0.0,0.0,0.0,0.0,0.0,0.0,0.0,0.0,0.0,0.0,0.0,0.0,0.0,0.0,0.0,0.0,0.0,0.0,0.0,0.0,0.0,0.0,0.0,0.0,0.0,0.0,0.0,0.0,0.0,0.0,0.0,0.0,0.0,0.0,0.0,0.0,0.0,0.0,0.0,0.0,0.0,0.0,0.0,0.0,0.0,0.0,0.0,0.0,0.0,0.0,0.0,0.0,0.0,0.0,0.0,0.0,0.0,0.0,0.0,0.0,0.0,1.6028,1.8268,1.9798,2.0249,1.7127,1.5621,0.0,0.0,0.0,0.0,0.0,0.0,0.0,0.0,0.0,0.0,0.0,0.0,0.0,0.0,0.0,0.0,0.0,0.0,0.0,0.0,0.0,0.0,0.0,0.0,0.0,0.0,0.0,0.0,0.0,0.0,0.0,0.0,0.0,0.0,0.0,0.0,0.0,0.0,0.0,0.0,0.0,0.0,0.0,0.0,0.0,0.0,0.0,0.0,0.0,0.0,0.0,0.0,0.0,0.0,0.0,0.0,0.0,0.0,0.0,0.0,0.0,0.0,0.0,0.0,0.0,0.0,0.0,0.0,0.0,0.0,0.0,0.0,0.0,0.0,0.0,0.0,0.0,0.0,0.0,0.0,0.0,0.0,0.0,0.0,0.0,0.0,0.0,0.0,0.0,0.0,0.0,0.0,0.0,0.0,0.0,0.0,0.0,0.0,0.0,0.0,0.0,0.0,0.0,0.0,0.0,0.0,0.0,0.0,0.0,1.7816,2.0371,2.2032,2.2546,1.8821,1.6907,1.6987,0.0,0.0,0.0,0.0,0.0,0.0,0.0,0.0,0.0,0.0,0.0,0.0,0.0,0.0,0.0,0.0,0.0,0.0,0.0,0.0,0.0,0.0,0.0,0.0,0.0,0.0,0.0,0.0,0.0,0.0,0.0,0.0,0.0,0.0,0.0,0.0,0.0,0.0,0.0,0.0,0.0,0.0,0.0,0.0,0.0,0.0,0.0,0.0,0.0,0.0,0.0,0.0,0.0,0.0,0.0,0.0,0.0,0.0,0.0,0.0,0.0,0.0,0.0,0.0,0.0,0.0,0.0,0.0,0.0,0.0,0.0,0.0,0.0,0.0,0.0,0.0,0.0,0.0,0.0,0.0,0.0,0.0,0.0,0.0,0.0,0.0,0.0,0.0,0.0,0.0,0.0,0.0,0.0,0.0,0.0,0.0,0.0,0.0,0.0,0.0,0.0,0.0,0.0,0.0,0.0,0.0,0.0,0.0,2.2746,2.615,2.6695,2.4178,2.1942,1.8963,0.0,0.0,0.0,0.0,0.0,0.0,0.0,0.0,0.0,0.0,0.0,0.0,0.0,0.0,0.0,0.0,0.0,0.0,0.0,0.0,0.0,0.0,0.0,0.0,0.0,0.0,0.0,0.0,0.0,0.0,0.0,0.0,0.0,0.0,0.0,0.0,0.0,0.0,0.0,0.0,0.0,0.0,0.0,0.0,0.0,0.0,0.0,0.0,0.0,0.0,0.0,0.0,0.0,0.0,0.0,0.0,0.0,0.0,0.0,0.0,0.0,0.0,0.0,0.0,0.0,0.0,0.0,0.0,0.0,0.0,0.0,0.0,0.0,0.0,0.0,0.0,0.0,0.0,0.0,0.0,0.0,0.0,0.0,0.0,0.0,0.0,0.0,0.0,0.0,0.0,0.0,0.0,0.0,0.0,0.0,0.0,0.0,0.0,0.0,0.0,0.0,0.0,0.0,0.0,0.0,0.0,0.0,0.0,0.0,2.4595,2.8946,3.0058,2.7563,2.34,2.0568,0.0,0.0,0.0,0.0,0.0,0.0,0.0,0.0,0.0,0.0,0.0,0.0,0.0,0.0,0.0,0.0,0.0,0.0,0.0,0.0,0.0,0.0,0.0,0.0,0.0,0.0,0.0,0.0,0.0,0.0,0.0,0.0,0.0,0.0,0.0,0.0,0.0,0.0,0.0,0.0,0.0,0.0,0.0,0.0,0.0,0.0,0.0,0.0,0.0,0.0,0.0,0.0,0.0,0.0,0.0,0.0,0.0,0.0,0.0,0.0,0.0,0.0,0.0,0.0,0.0,0.0,0.0,0.0,0.0,0.0,0.0,0.0,0.0,0.0,0.0,0.0,0.0,0.0,0.0,0.0,0.0,0.0,0.0,0.0,0.0,0.0,0.0,0.0,0.0,0.0,0.0,0.0,0.0,0.0,0.0,0.0,0.0,0.0,0.0,0.0,0.0,0.0,0.0,0.0,0.0,0.0,0.0,0.0,2.4671,2.6916,3.1209,3.2693,3.1076,2.6503,2.297,0.0,0.0,0.0,0.0,0.0,0.0,0.0,0.0,0.0,0.0,0.0,0.0,0.0,0.0,0.0,0.0,0.0,0.0,0.0,0.0,0.0,0.0,0.0,0.0,0.0,0.0,0.0,0.0,0.0,0.0,0.0,0.0,0.0,0.0,0.0,0.0,0.0,0.0,0.0,0.0,0.0,0.0,0.0,0.0,0.0,0.0,0.0,0.0,0.0,0.0,0.0,0.0,0.0,0.0,0.0,0.0,0.0,0.0,0.0,0.0,0.0,0.0,0.0,0.0,0.0,0.0,0.0,0.0,0.0,0.0,0.0,0.0,0.0,0.0,0.0,0.0,0.0,0.0,0.0,0.0,0.0,0.0,0.0,0.0,0.0,0.0,0.0,0.0,0.0,0.0,0.0,0.0,0.0,0.0,0.0,0.0,0.0,0.0,0.0,0.0,0.0,0.0,0.0,0.0,0.0,0.0,0.0,0.0,2.6804,2.9364,3.2901,3.4558,3.3982,3.0,2.5637,0.0,0.0,0.0,0.0,0.0,0.0,0.0,0.0,0.0,0.0,0.0,0.0,0.0,0.0,0.0,0.0,0.0,0.0,0.0,0.0,0.0,0.0,0.0,0.0,0.0,0.0,0.0,0.0,0.0,0.0,0.0,0.0,0.0,0.0,0.0,0.0,0.0,0.0,0.0,0.0,0.0,0.0,0.0,0.0,0.0,0.0,0.0,0.0,0.0,0.0,0.0,0.0,0.0,0.0,0.0,0.0,0.0,0.0,0.0,0.0,0.0,0.0,0.0,0.0,0.0,0.0,0.0,0.0,0.0,0.0,0.0,0.0,0.0,0.0,0.0,0.0,0.0,0.0,0.0,0.0,0.0,0.0,0.0,0.0,0.0,0.0,0.0,0.0,0.0,0.0,0.0,0.0,0.0,0.0,0.0,0.0,0.0,0.0,0.0,0.0,0.0,0.0,0.0,0.0,0.0,0.0,0.0,0.0,2.7403,2.9893,3.3116,3.4727,3.4607,3.008,2.6086,0.0,0.0,0.0,0.0,0.0,0.0,0.0,0.0,0.0,0.0,0.0,0.0,0.0,0.0,0.0,0.0,0.0,0.0,0.0,0.0,0.0,0.0,0.0,0.0,0.0,0.0,0.0,0.0,0.0,0.0,0.0,0.0,0.0,0.0,0.0,0.0,0.0,0.0,0.0,0.0,0.0,0.0,0.0,0.0,0.0,0.0,0.0,0.0,1.7848,0.0,0.0,0.0,0.0,0.0,0.0,0.0,0.0,0.0,0.0,0.0,0.0,0.0,0.0,0.0,0.0,0.0,0.0,0.0,0.0,0.0,0.0,0.0,0.0,0.0,0.0,0.0,0.0,0.0,0.0,0.0,0.0,0.0,0.0,0.0,0.0,0.0,0.0,0.0,0.0,0.0,0.0,0.0,0.0,0.0,0.0,0.0,0.0,0.0,0.0,0.0,0.0,0.0,0.0,0.0,0.0,0.0,0.0,0.0,2.8058,3.0818,3.296,3.3941,3.3555,3.0713,2.7354,0.0,0.0,0.0,0.0,0.0,0.0,0.0,0.0,0.0,0.0,0.0,0.0,0.0,0.0,0.0,0.0,0.0,0.0,0.0,0.0,0.0,0.0,0.0,0.0,0.0,0.0,0.0,0.0,0.0,0.0,0.0,0.0,0.0,0.0,0.0,0.0,0.0,0.0,0.0,0.0,0.0,0.0,0.0,0.0,0.0,0.0,0.0,0.0,0.0,0.0,0.0,0.0,0.0,0.0,0.0,0.0,0.0,0.0,0.0,0.0,0.0,0.0,0.0,0.0,0.0,0.0,0.0,0.0,0.0,0.0,0.0,0.0,0.0,0.0,0.0,0.0,0.0,0.0,0.0,0.0,0.0,0.0,0.0,0.0,0.0,0.0,0.0,0.0,0.0,0.0,0.0,0.0,0.0,0.0,0.0,0.0,0.0,0.0,0.0,0.0,0.0,0.0,0.0,0.0,0.0,0.0,0.0,2.5448,2.8464,3.1786,3.2776,3.2996,3.2527,3.1459,2.8649,2.3866,0.0,0.0,0.0,0.0,0.0,0.0,0.0,0.0,0.0,0.0,0.0,0.0,0.0,0.0,0.0,0.0,0.0,0.0,0.0,0.0,0.0,0.0,0.0,0.0,0.0,0.0,0.0,0.0,0.0,0.0,0.0,0.0,0.0,0.0,0.0,0.0,0.0,0.0,1.5588,1.6403,0.0,0.0,0.0,0.0,0.0,0.0,0.0,0.0,1.8572,0.0,0.0,0.0,0.0,0.0,0.0,0.0,0.0,0.0,0.0,0.0,0.0,0.0,0.0,0.0,0.0,0.0,0.0,0.0,0.0,0.0,0.0,0.0,0.0,0.0,0.0,0.0,0.0,0.0,0.0,0.0,0.0,0.0,0.0,0.0,0.0,0.0,0.0,0.0,0.0,0.0,0.0,0.0,0.0,0.0,0.0,0.0,0.0,0.0,0.0,0.0,0.0,0.0,0.0,0.0,0.0,2.4765,2.5307,2.7918,3.2791,3.3109,3.3147,3.3028,3.1646,2.8437,2.3356,0.0,0.0,0.0,0.0,0.0,0.0,0.0,0.0,0.0,0.0,0.0,0.0,0.0,0.0,0.0,0.0,0.0,0.0,0.0,0.0,0.0,0.0,0.0,0.0,0.0,0.0,0.0,0.0,0.0,0.0,0.0,0.0,0.0,0.0,0.0,0.0,0.0,0.0,0.0,1.8494,1.8831,0.0,0.0,0.0,0.0,0.0,0.0,0.0,0.0,1.9257,0.0,0.0,0.0,0.0,0.0,0.0,0.0,0.0,0.0,0.0,0.0,0.0,0.0,0.0,0.0,0.0,0.0,0.0,0.0,0.0,0.0,0.0,0.0,0.0,0.0,0.0,0.0,0.0,0.0,0.0,0.0,0.0,0.0,0.0,0.0,0.0,0.0,0.0,0.0,0.0,0.0,0.0,0.0,0.0,0.0,0.0,0.0,0.0,0.0,0.0,0.0,0.0,0.0,0.0,0.0,2.4346,2.6191,2.8924,3.2637,3.2493,3.2392,3.2325,3.0331,2.705,0.0,0.0,0.0,0.0,0.0,0.0,0.0,0.0,0.0,0.0,0.0,0.0,0.0,0.0,0.0,0.0,0.0,0.0,0.0,0.0,0.0,0.0,0.0,0.0,0.0,0.0,0.0,0.0,0.0,0.0,0.0,0.0,0.0,0.0,0.0,0.0,0.0,0.0,0.0,0.0,1.9624,2.023,2.1313,0.0,0.0,0.0,0.0,0.0,0.0,2.0515,1.9887,0.0,0.0,0.0,0.0,0.0,0.0,0.0,0.0,0.0,0.0,0.0,0.0,0.0,0.0,0.0,0.0,0.0,0.0,0.0,0.0,0.0,0.0,0.0,0.0,0.0,0.0,0.0,0.0,0.0,0.0,0.0,0.0,0.0,0.0,0.0,0.0,0.0,0.0,0.0,0.0,0.0,0.0,0.0,0.0,0.0,0.0,0.0,0.0,0.0,0.0,0.0,0.0,0.0,0.0,0.0,2.3401,2.6646,2.9566,3.1832,3.1556,3.127,3.1081,2.8582,2.5406,0.0,0.0,0.0,0.0,0.0,0.0,0.0,0.0,0.0,0.0,0.0,0.0,0.0,0.0,0.0,0.0,0.0,0.0,0.0,0.0,0.0,0.0,0.0,0.0,0.0,0.0,0.0,0.0,0.0,0.0,0.0,0.0,0.0,0.0,0.0,0.0,0.0,0.0,0.0,0.0,0.0,2.1915,2.2886,2.2373,0.0,0.0,0.0,0.0,2.2623,2.197,0.0,0.0,0.0,0.0,0.0,0.0,0.0,0.0,0.0,0.0,0.0,0.0,0.0,0.0,0.0,0.0,0.0,0.0,0.0,0.0,0.0,0.0,0.0,0.0,0.0,0.0,0.0,0.0,0.0,0.0,0.0,0.0,0.0,0.0,0.0,0.0,0.0,0.0,0.0,0.0,0.0,0.0,0.0,0.0,0.0,0.0,0.0,0.0,0.0,0.0,0.0,0.0,0.0,0.0,0.0,0.0,2.2071,2.5267,2.8096,3.046,3.0599,3.0162,2.9367,2.678,2.3926,0.0,0.0,0.0,0.0,0.0,0.0,0.0,0.0,0.0,0.0,0.0,0.0,0.0,0.0,0.0,0.0,0.0,0.0,0.0,0.0,0.0,0.0,0.0,0.0,0.0,0.0,0.0,0.0,0.0,0.0,0.0,0.0,0.0,0.0,0.0,0.0,0.0,0.0,0.0,0.0,0.0,2.4382,2.3401,2.3442,2.3442,0.0,0.0,2.4211,2.4986,2.5862,0.0,0.0,0.0,0.0,0.0,0.0,0.0,0.0,0.0,0.0,0.0,0.0,0.0,0.0,0.0,0.0,0.0,0.0,0.0,0.0,0.0,0.0,0.0,0.0,0.0,0.0,0.0,0.0,0.0,0.0,0.0,0.0,0.0,0.0,0.0,0.0,0.0,0.0,0.0,0.0,0.0,0.0,0.0,0.0,0.0,0.0,0.0,0.0,0.0,0.0,0.0,0.0,0.0,0.0,0.0,1.9836,2.2553,2.6541,2.9187,3.0359,3.0391,3.0037,2.9208,2.5756,2.2818,0.0,0.0,0.0,0.0,0.0,0.0,0.0,0.0,0.0,0.0,0.0,0.0,0.0,0.0,0.0,0.0,0.0,0.0,0.0,0.0,0.0,0.0,0.0,0.0,0.0,0.0,0.0,0.0,0.0,0.0,0.0,0.0,0.0,0.0,0.0,0.0,0.0,0.0,0.0,0.0,0.0,0.0,2.586,2.5755,0.0,0.0,0.0,2.5778,2.5772,0.0,0.0,0.0,0.0,0.0,0.0,0.0,0.0,0.0,0.0,0.0,0.0,0.0,0.0,0.0,0.0,0.0,0.0,0.0,0.0,0.0,0.0,0.0,0.0,0.0,0.0,0.0,0.0,0.0,0.0,0.0,0.0,0.0,0.0,0.0,0.0,0.0,0.0,0.0,0.0,0.0,0.0,0.0,0.0,0.0,0.0,0.0,0.0,0.0,0.0,0.0,0.0,0.0,0.0,0.0,0.0,0.0,2.2746,2.7673,3.027,3.0401,3.0162,2.9673,2.8727,2.5078,0.0,0.0,0.0,0.0,0.0,0.0,0.0,0.0,0.0,0.0,0.0,0.0,0.0,0.0,0.0,0.0,0.0,0.0,0.0,0.0,0.0,0.0,0.0,0.0,0.0,0.0,0.0,1.1849,0.0,0.0,0.0,0.0,0.0,0.0,0.0,0.0,0.0,0.0,0.0,0.0,0.0,0.0,2.5478,2.7443,2.7752,2.8082,0.0,0.0,2.7347,2.6986,2.7501,2.6706,0.0,0.0,0.0,0.0,0.0,0.0,0.0,0.0,0.0,0.0,0.0,0.0,0.0,0.0,0.0,0.0,0.0,0.0,0.0,0.0,0.0,0.0,0.0,0.0,0.0,0.0,0.0,0.0,0.0,0.0,0.0,0.0,0.0,0.0,0.0,0.0,0.0,0.0,0.0,0.0,0.0,0.0,0.0,0.0,0.0,0.0,0.0,0.0,0.0,0.0,0.0,0.0,0.0,0.0,0.0,2.2088,2.7403,3.027,3.0349,2.9638,2.8628,2.7336,2.4725,2.187,0.0,0.0,0.0,0.0,0.0,0.0,0.0,0.0,0.0,0.0,0.0,0.0,0.0,0.0,0.0,0.0,0.0,0.0,0.0,0.0,0.0,0.0,0.0,0.0,0.0,0.0,0.0,0.0,0.0,0.0,0.0,0.0,0.0,0.0,0.0,0.0,0.0,0.0,0.0,0.0,0.0,2.7227,2.6712,2.867,3.035,0.0,0.0,2.9372,2.9515,3.0768,3.0005,2.4732,0.0,0.0,0.0,0.0,0.0,0.0,0.0,0.0,0.0,0.0,0.0,0.0,0.0,0.0,0.0,0.0,0.0,0.0,0.0,0.0,0.0,0.0,0.0,0.0,0.0,0.0,0.0,0.0,0.0,0.0,0.0,0.0,0.0,0.0,0.0,0.0,0.0,0.0,0.0,0.0,0.0,0.0,0.0,0.0,0.0,0.0,0.0,0.0,0.0,0.0,0.0,0.0,0.0,2.0647,2.2574,2.711,2.9476,2.9577,2.8721,2.7612,2.6124,2.451,2.1972,0.0,0.0,0.0,0.0,0.0,0.0,0.0,0.0,0.0,0.0,0.0,0.0,0.0,0.0,0.0,0.0,0.0,0.0,0.0,0.0,0.0,0.0,0.0,0.0,0.0,0.0,0.0,0.0,1.6256,1.6786,1.7051,0.0,0.0,0.0,0.0,0.0,0.0,0.0,0.0,0.0,0.0,2.7878,2.9642,3.041,0.0,0.0,3.0868,3.0154,3.0543,3.0259,2.8875,2.5502,2.3853,0.0,0.0,0.0,0.0,0.0,0.0,0.0,0.0,0.0,0.0,0.0,0.0,0.0,0.0,0.0,0.0,0.0,0.0,0.0,0.0,0.0,0.0,0.0,0.0,0.0,0.0,0.0,0.0,0.0,0.0,0.0,0.0,0.0,0.0,0.0,0.0,0.0,0.0,0.0,0.0,0.0,0.0,0.0,0.0,0.0,0.0,0.0,0.0,0.0,0.0,0.0,0.0,2.0543,2.2268,2.6907,2.9224,2.9124,2.8509,2.7487,2.5964,2.4864,2.2702,0.0,0.0,0.0,0.0,0.0,0.0,0.0,0.0,0.0,0.0,0.0,0.0,0.0,0.0,0.0,0.0,0.0,0.0,0.0,0.0,0.0,0.0,0.0,0.0,0.0,0.0,0.0,0.0,1.7435,1.7796,1.7411,0.0,0.0,0.0,0.0,0.0,0.0,0.0,0.0,0.0,0.0,2.8731,3.118,3.1172,3.1167,3.173,3.0929,3.031,3.049,2.9727,2.8425,2.6561,0.0,0.0,0.0,0.0,0.0,0.0,0.0,0.0,0.0,0.0,0.0,0.0,0.0,0.0,0.0,0.0,0.0,0.0,0.0,0.0,0.0,0.0,0.0,0.0,0.0,0.0,0.0,1.8014,0.0,0.0,1.5397,0.0,0.0,0.0,0.0,0.0,0.0,0.0,0.0,0.0,0.0,0.0,0.0,0.0,0.0,0.0,0.0,0.0,0.0,0.0,0.0,0.0,0.0,2.0045,2.0741,2.695,2.9799,2.9104,2.9092,2.8417,2.7127,2.6066,2.4172,2.1441,0.0,0.0,0.0,0.0,0.0,0.0,0.0,0.0,0.0,0.0,0.0,0.0,0.0,0.0,0.0,0.0,0.0,0.0,0.0,0.0,0.0,0.0,0.0,0.0,0.0,0.0,1.5229,1.6499,1.7412,0.0,0.0,0.0,0.0,0.0,0.0,0.0,0.0,0.0,0.0,2.8017,3.0037,3.0176,3.0737,3.1034,3.0566,3.0237,2.9859,2.9406,2.9811,2.9706,0.0,0.0,0.0,0.0,0.0,0.0,0.0,0.0,0.0,0.0,0.0,0.0,0.0,0.0,0.0,0.0,0.0,0.0,0.0,0.0,0.0,0.0,0.0,0.0,0.0,0.0,0.0,2.2323,2.0444,0.0,0.0,0.0,0.0,0.0,0.0,0.0,0.0,0.0,0.0,0.0,2.7131,2.8456,0.0,0.0,0.0,0.0,0.0,0.0,0.0,0.0,0.0,0.0,0.0,0.0,2.1045,2.2745,2.6817,2.9024,2.9071,2.7994,2.7179,2.671,2.606,2.4398,2.1579,0.0,0.0,0.0,0.0,0.0,0.0,0.0,0.0,0.0,0.0,0.0,0.0,0.0,0.0,0.0,0.0,0.0,0.0,0.0,0.0,0.0,0.0,0.0,0.0,0.0,1.6787,0.0,0.0,0.0,0.0,0.0,0.0,0.0,0.0,0.0,0.0,0.0,2.518,2.7633,2.8883,2.9821,3.0518,3.0845,3.1057,0.0,0.0,0.0,0.0,0.0,0.0,0.0,0.0,0.0,0.0,0.0,0.0,0.0,0.0,2.8574,2.4901,2.4531,2.4815,2.4815,0.0,0.0,0.0,0.0,0.0,0.0,0.0,0.0,0.0,0.0,0.0,0.0,0.0,0.0,2.7159,0.0,2.4321,0.0,0.0,0.0,0.0,0.0,0.0,0.0,0.0,2.9915,3.1514,3.1204,3.2162,3.1733,0.0,2.9327,2.5924,0.0,0.0,0.0,0.0,0.0,0.0,0.0,0.0,2.1478,2.32,2.6594,2.8356,2.8189,2.753,2.6931,2.6509,2.5979,2.4703,2.2573,2.0489,1.873,0.0,0.0,0.0,0.0,0.0,0.0,0.0,0.0,0.0,0.0,0.0,0.0,0.0,0.0,0.0,0.0,0.0,0.0,0.0,0.0,0.0,0.0,0.0,1.7531,0.0,0.0,0.0,0.0,0.0,0.0,0.0,0.0,0.0,2.3568,2.554,2.7825,3.011,3.0567,3.0735,3.0855,0.0,0.0,0.0,0.0,0.0,0.0,0.0,2.9199,2.9806,2.966,2.9699,3.0493,3.1972,3.2968,3.2591,0.0,0.0,2.8499,2.7946,2.8209,2.8209,2.875,2.9202,2.9026,2.988,3.0568,0.0,0.0,0.0,0.0,0.0,0.0,0.0,0.0,3.2318,3.2436,0.0,2.9589,0.0,0.0,0.0,0.0,0.0,2.9408,0.0,0.0,3.703,3.8648,3.6056,3.6422,3.5922,3.4441,3.3579,3.0957,2.679,2.4026,0.0,0.0,0.0,0.0,0.0,0.0,2.1485,2.2508,2.6377,2.7851,2.6826,2.7711,2.7691,2.6626,2.597,2.5224,2.4426,2.2812,2.1133,1.9414,1.6605,0.0,0.0,0.0,0.0,0.0,0.0,0.0,0.0,0.0,0.0,0.0,0.0,0.0,0.0,0.0,0.0,0.0,0.0,0.0,0.0,1.7147,0.0,0.0,0.0,0.0,0.0,0.0,0.0,0.0,0.0,0.0,2.6454,2.8498,3.0687,3.2226,0.0,0.0,0.0,0.0,3.0567,2.9653,2.9436,2.9484,2.9598,3.1138,3.2542,3.3197,0.0,0.0,3.4198,3.45,3.455,3.3495,3.5072,3.5776,3.3614,3.229,3.1662,3.1637,3.1712,3.1813,3.2315,3.3244,3.4098,4.237,0.0,0.0,0.0,0.0,3.6795,3.7989,4.0013,3.9703,3.7703,3.4571,3.3836,0.0,0.0,0.0,0.0,0.0,0.0,3.2084,3.4579,3.6077,3.7148,3.7854,3.6882,3.6218,3.5743,3.478,3.3284,3.1294,2.9857,2.5668,1.9108,0.0,0.0,0.0,0.0,2.4471,2.6307,2.8052,2.8707,2.8422,2.753,2.6985,2.6739,2.662,2.6168,2.5343,2.4004,2.2598,2.1231,1.9696,0.0,0.0,0.0,0.0,0.0,0.0,0.0,0.0,0.0,0.0,0.0,0.0,0.0,0.0,0.0,0.0,0.0,0.0,0.0,1.7628,1.8566,1.9215,0.0,0.0,0.0,0.0,0.0,0.0,0.0,0.0,0.0,3.1096,3.0855,3.0995,0.0,0.0,3.0855,3.0374,3.0995,3.1645,3.2082,3.213,0.0,3.3646,3.3228,3.3113,3.413,3.5637,3.6734,3.681,3.7312,3.7588,3.7211,3.7387,3.7312,3.6759,3.6358,3.6081,3.6107,3.6107,3.6157,3.6332,3.6634,3.686,4.8856,4.3328,4.1492,4.1376,4.2474,4.2352,4.3577,4.5557,4.5157,4.3168,4.0127,3.8944,3.6257,3.2436,3.0939,0.0,0.0,0.0,3.4653,3.7591,3.7277,3.7495,3.7994,3.7071,3.6079,3.5066,3.4483,3.3632,3.2544,3.1618,2.8344,2.2979,0.0,0.0,2.2462,2.442,2.6161,2.7521,2.8248,2.8402,2.8101,2.7206,2.6857,2.7151,2.6763,2.6276,2.5713,2.4648,2.3594,2.2676,2.1783,2.017,0.0,0.0,0.0,0.0,0.0,0.0,0.0,0.0,0.0,0.0,0.0,1.6289,1.4718,0.0,0.0,0.0,1.7748,1.8831,1.9985,2.1043,0.0,0.0,0.0,0.0,0.0,0.0,0.0,2.8498,3.0687,3.2563,3.3717,3.3044,3.2707,3.3452,3.2803,3.213,3.1697,0.0,3.3068,3.3525,3.3597,3.398,3.5065,3.4821,3.4889,3.632,3.7439,3.8241,3.8617,3.8969,3.9195,3.917,3.8919,3.8668,3.8668,3.8668,3.8517,3.809,3.799,3.8065,3.8291,3.8341,3.8391,5.3169,5.0773,4.7309,4.5807,4.583,4.6431,4.7401,4.8527,4.8527,4.7928,4.6767,4.4069,4.1501,3.9041,3.5645,0.0,3.6841,3.7421,3.8457,4.0013,3.9864,3.8929,3.7358,3.7041,3.5624,3.3269,3.3124,3.2549,3.1586,3.0756,2.962,2.8176,2.7304,2.6562,2.6017,2.6549,2.6946,2.7091,2.7571,2.74,2.6627,2.6954,2.7267,2.7565,2.6543,2.5817,2.5596,2.4832,2.4212,2.3845,2.3145,2.2164,2.0736,0.0,0.0,0.0,0.0,0.0,0.0,0.0,0.0,0.0,0.0,0.0,0.0,0.0,0.0,0.0,2.1789,0.0,2.3408,2.4266,0.0,0.0,0.0,2.6887,2.8002,3.0013,3.1625,3.2563,0.0,0.0,3.4967,3.4991,3.54,3.6459,3.6002,3.5208,3.4198,3.4486,3.4727,3.4318,3.4294,3.451,3.533,3.6206,3.7388,3.8734,3.9517,3.9622,3.9622,3.9647,3.9697,3.9672,3.9697,3.9672,3.9672,3.9622,3.9371,3.8366,3.8191,3.8316,3.8818,3.8919,3.9069,5.2406,5.0508,4.9585,4.8721,4.7863,4.7794,4.794,4.8197,4.801,4.685,4.4997,4.3817,4.1975,3.9687,3.8629,3.8632,3.9511,3.9642,4.0166,4.0903,3.9644,3.8817,3.8316,3.5879,3.4346,3.3673,3.2549,3.1834,3.1607,3.1338,3.0756,2.9729,2.9467,2.8375,2.6519,2.7278,2.796,2.838,2.7975,2.7441,2.6916,2.7422,2.7453,2.6859,2.6489,2.5762,2.4766,2.4471,2.428,2.4201,2.423,2.3698,2.2533,1.9939,0.0,0.0,0.0,0.0,0.0,0.0,0.0,0.0,0.0,2.126,1.7099,0.0,2.1813,0.0,2.3616,2.5709,2.7079,2.7416,0.0,0.0,2.9316,2.9893,3.1769,3.3452,3.4438,3.427,3.5905,3.7084,3.7204,3.6892,3.7036,3.8046,3.6362,3.4871,3.4631,3.5449,3.6002,3.593,3.6459,3.7187,3.7415,3.8199,3.878,3.9208,3.9542,3.9697,3.9697,3.9697,3.9697,3.9697,3.9697,3.9697,3.9697,3.9697,3.9622,3.9346,3.9295,3.932,3.9471,3.9496,3.9521,5.2012,5.0396,5.0238,4.9042,4.7337,4.8311,4.86,4.8313,4.7881,4.6764,4.5139,4.3726,4.2289,4.092,4.051,4.054,4.0778,4.0279,4.0208,4.044,3.9066,3.8023,3.7263,3.545,3.4107,3.3211,3.2347,3.1848,3.1578,3.1578,3.1345,3.0843,3.0843,2.9969,2.8263,2.7988,2.7694,2.7357,2.705,2.6891,2.7119,2.7405,2.6943,2.5673,2.5528,2.4727,2.3066,2.2944,2.2754,2.2372,2.3194,2.3223,2.2251,2.1146,2.0094,0.0,0.0,0.0,0.0,0.0,0.0,0.0,0.0,0.0,0.0,0.0,2.4602,2.4266,2.6671,2.8691,2.9797,3.0543,3.1432,3.2515,3.302,3.3813,3.5232,3.6579,3.7372,3.7324,3.8142,3.8791,3.9008,3.8599,3.8383,3.8767,3.7541,3.6507,3.6314,3.6771,3.7108,3.7156,3.7589,3.8027,3.8185,3.8736,3.905,3.9102,3.9438,3.9697,3.9697,3.9697,3.9697,3.9697,3.9697,3.9697,3.9697,3.9697,3.9697,3.9697,3.9697,3.9697,3.9697,3.9697,3.9697,5.1607,5.0077,4.9803,4.8164,4.6009,4.8239,4.8748,4.7865,4.7193,4.6454,4.566,4.3659,4.2573,4.2185,4.1638,4.1376,4.1224,4.0134,3.9622,3.9545,3.8271,3.6921,3.5619,3.5413,3.435,3.2621,3.2437,3.2154,3.1687,3.16,3.1564,3.1455,3.1404,3.0924,2.9889,2.8423,2.6935,2.5528,2.5857,2.6413,2.7122,2.7026,2.6156,2.4453,2.4277,2.3281,2.1229,2.1271,2.0958,2.0248,2.1702,2.236,2.1829,2.2376,2.2384,0.0,2.0942,0.0,0.0,0.0,0.0,0.0,0.0,0.0,0.0,2.7402,2.7834,2.8338,3.023,3.1649,3.2343,3.3693,3.4751,3.5304,3.6627,3.7685,3.8166,3.908,3.9874,4.0331,4.0042,3.9994,4.0379,4.0042,3.9513,3.9152,3.8912,3.8551,3.8262,3.8022,3.7902,3.7974,3.7974,3.8027,3.808,3.8473,3.8788,3.8841,3.931,3.9697,3.9697,3.9697,3.9697,3.9697,3.9697,3.9697,3.9697,3.9697,3.9697,3.9697,3.9697,3.9697,3.9697,3.9697,3.9697,4.9734,4.8625,4.8568,4.7947,4.6983,4.7036,4.5822,4.3725,4.2835,4.2661,4.3012,4.3441,4.3101,4.2238,4.2107,4.1742,4.1224,4.0134,3.9622,3.9494,3.7447,3.6325,3.6016,3.4732,3.3922,3.3486,3.2743,3.2328,3.2241,3.1826,3.1236,3.0493,3.0493,2.9699,2.8201,0.0,0.0,0.0,2.7073,2.7419,2.6731,2.6245,2.5295,2.3965,2.353,0.0,2.086,2.1648,2.1939,2.1542,2.3683,0.0,0.0,0.0,0.0,0.0,0.0,0.0,0.0,0.0,0.0,0.0,2.8426,2.8017,2.8258,3.0182,3.1673,3.2226,3.3356,3.4655,3.6002,3.6795,3.7445,3.8022,3.8719,3.92,3.932,3.9874,4.0306,4.0379,4.0667,4.0908,4.0956,4.0571,4.021,4.0042,3.9729,3.9441,3.9296,3.8527,3.7998,3.7974,3.7974,3.7974,3.7974,3.8449,3.8788,3.8841,3.931,3.9645,3.9697,3.9697,3.9697,3.9697,3.9697,3.9697,3.9697,3.9697,3.9697,3.9697,3.9697,3.9697,3.9697,3.9697,3.9697,4.8983,4.8431,4.8315,4.7702,0.0,4.6316,4.5014,4.3205,4.3049,4.3154,4.3467,4.3755,4.3598,4.2944,4.1337,4.0463,4.0029,3.7639,3.678,3.7132,3.5474,3.4907,3.5323,3.4527,3.4032,3.3792,3.3311,3.2831,3.2394,3.2132,3.1629,3.0908,3.0908,3.0249,2.9055,2.9013,2.8239,2.6765,2.7061,2.7172,2.715,2.6863,2.5957,2.4492,2.4387,0.0,0.0,0.0,0.0,0.0,0.0,0.0,0.0,0.0,0.0,2.7066,2.7186,2.7857,2.916,2.9744,3.0831,3.2659,3.3044,3.2635,3.1316,3.3188,3.4655,3.516,3.5713,3.6555,3.7829,3.8238,3.8623,3.9152,3.9681,3.9994,4.0042,4.0451,4.0787,4.0787,4.1004,4.1196,4.1196,4.098,4.0667,4.0427,4.0162,3.9898,3.9585,3.8912,3.8334,3.8046,3.7974,3.7974,3.8027,3.8473,3.8788,3.8841,3.931,3.9645,3.9697,3.9697,3.9697,3.9697,3.9697,3.9697,3.9697,3.9697,3.9697,3.9697,3.9697,3.9697,3.9697,3.9697,3.9697,4.8606,4.8606,4.8315,4.7649,4.6734,4.6159,4.5323,4.441,0.0,0.0,0.0,4.4147,4.3964,4.3676,4.0849,3.9449,3.902,3.5521,3.4308,3.4969,3.3901,3.3748,3.4457,3.4479,3.4316,3.3923,3.3835,3.3399,3.2656,3.2481,3.2175,3.1782,3.1673,3.1322,3.0733,3.0349,2.9456,2.8137,2.7102,2.6892,2.7539,2.7402,2.6602,2.5165,2.5352,2.4738,2.3296,2.3672,2.3574,2.2891,2.3617,2.4028,2.4029,2.5457,2.7107,2.8741,2.9716,3.1248,3.3526,3.4078,3.4727,3.5833,3.6795,3.6555,3.4679,3.5881,3.6867,3.73,3.7421,3.7853,3.8743,3.9008,3.9272,3.9729,4.021,4.0547,4.0547,4.0908,4.1172,4.1196,4.1172,4.1196,4.1196,4.1172,4.1028,4.0667,4.0547,4.0331,3.9801,3.92,3.8623,3.8262,3.8094,3.7974,3.808,3.8368,3.8736,3.8788,3.9258,3.9645,3.9697,3.9697,3.9697,3.9697,3.9697,3.9697,3.9697,3.9697,3.9697,3.9697,3.9542,3.9362,3.9362,3.9206,3.9025,4.8257,4.8257,4.8257,4.8094,4.7911,4.7336,4.6708,4.6003,4.4617,4.3729,4.331,4.4225,4.433,4.3806,4.2322,4.1182,4.012,3.7594,3.6277,3.5916,3.4847,3.4382,3.4457,3.4479,3.4491,3.4403,3.3988,3.3726,3.353,3.2787,3.2328,3.2241,3.1848,3.1783,3.1964,3.0453,2.9818,3.0263,2.898,2.7875,2.709,2.6387,2.5723,2.5145,2.4805,2.4336,2.373,2.4141,2.4277,2.418,2.5664,2.6763,2.7263,2.9339,3.1058,3.1791,3.3169,3.4414,3.5183,3.5352,3.5857,3.6867,3.7541,3.7541,3.6867,3.7372,3.7781,3.7878,3.8262,3.8623,3.8864,3.9633,4.0138,4.0306,4.0739,4.1052,4.1052,4.1124,4.1196,4.1196,4.1196,4.1196,4.1196,4.1196,4.1148,4.1076,4.1004,4.086,4.0282,3.9441,3.8864,3.8647,3.8286,3.8022,3.8099,3.8262,3.855,3.8788,3.9102,3.9465,3.9645,3.9697,3.9697,3.9697,3.9697,3.9697,3.9645,3.9697,3.9542,3.9438,3.8764,3.8214,3.8108,3.7501,3.7073,4.8172,4.8172,4.8172,4.8172,4.8146,4.7911,4.7466,4.6891,4.6107,4.5245,4.4487,4.4643,4.4186,4.3252,4.1255,3.9721,3.8509,3.5733,3.4629,3.4843,3.4109,3.4032,3.4435,3.4479,3.4479,3.4513,3.4294,3.4054,3.377,3.3355,3.3027,3.2743,3.2084,3.156,3.1064,3.0037,2.946,2.9428,2.8657,2.8041,2.7695,2.7324,2.7012,2.6867,2.6621,2.6426,2.625,2.6426,2.6523,2.6523,2.728,2.8137,2.895,3.0048,3.1428,3.3124,3.395,3.4852,3.5951,3.6314,3.6795,3.7565,3.7829,3.7878,3.7637,3.7853,3.8094,3.8407,3.8671,3.9056,3.9609,4.0114,4.0523,4.0787,4.1052,4.1172,4.1196,4.1196,4.1196,4.1196,4.1196,4.1196,4.1196,4.1196,4.1196,4.1196,4.1196,4.1076,4.0836,4.0186,3.9561,3.9296,3.9008,3.8767,3.8503,3.8645,3.8713,3.8627,3.8998,3.931,3.9465,3.9594,3.9645,3.9697,3.9697,3.9413,3.8945,3.8712,3.8502,3.782,3.7447,3.7019,3.6834,3.61,3.5772,4.8303,4.8172,4.8172,4.8172,4.8172,4.8172,4.7937,4.7519,4.7304,4.6761,4.582,4.5192,4.4171,4.2705,4.044,3.8706,3.716,3.4613,3.3704,3.4185,3.377,3.3945,3.46,3.4578,3.4479,3.4479,3.4479,3.4316,3.3988,3.3857,3.3497,3.291,3.2254,3.1423,3.0297,2.9835,2.9245,2.8654,2.8228,2.8067,2.8301,2.8301,2.8301,2.8301,2.8281,2.8301,2.8301,2.8548,2.8654,2.8654,2.89,2.9428,3.0245,3.0641,3.1788,3.3759,3.4328,3.5118,3.6453,3.7084,3.7541,3.7926,3.7974,3.8046,3.8142,3.8166,3.8334,3.8743,3.8936,3.9393,4.0186,4.0523,4.0739,4.1148,4.1196,4.1196,4.1196,4.1196,4.1196,4.1196,4.1196,4.1196,4.1196,4.1196,4.1196,4.1196,4.1196,4.1196,4.1124,4.0812,4.0403,4.0066,3.9777,3.9196,3.8704,3.8544,3.8305,3.7899,3.8022,3.8133,3.8319,3.8659,3.8868,3.8764,3.8816,3.8522,3.7804,3.7572,3.7304,3.6727,3.6269,3.5717,3.5333,3.4692,3.4379,4.8669,4.8224,4.8198,4.8172,4.8172,4.8172,4.8146,4.8015,4.7571,4.6996,4.6369,4.5794,4.4476,4.288,4.1452,3.9921,3.8263,3.6911,3.6042,3.5692,3.5255,3.5059,3.5102,3.4731,3.4479,3.4479,3.4534,3.4491,3.4403,3.401,3.3334,3.2415,3.2222,3.1945,3.1254,3.0306,2.9802,2.9743,2.8741,2.8281,2.8301,2.8301,2.8301,2.8301,2.8301,2.8301,2.8388,2.925,2.9775,2.9828,3.0712,3.133,3.1578,3.2801,3.3708,3.4106,3.5392,3.6453,3.7084,3.7613,3.7926,3.7974,3.7998,3.8214,3.8647,3.8743,3.8743,3.8936,3.9272,3.9777,4.0355,4.0812,4.1076,4.1148,4.1196,4.1196,4.1196,4.1196,4.1196,4.1196,4.1196,4.1196,4.1196,4.1196,4.1196,4.1196,4.1196,4.1196,4.1172,4.0928,4.0832,4.0697,4.0226,3.9125,3.8162,3.7455,3.7091,3.624,3.5824,3.6137,3.6394,3.6611,3.6565,3.7203,3.685,3.6936,3.6873,3.6717,3.6478,3.6125,3.5346,3.4357,3.3388,3.3048,3.3161,4.893,4.8669,4.8329,4.8172,4.8172,4.8172,4.8172,4.8146,4.7937,4.7519,4.683,4.5582,4.3853,4.1842,4.1329,3.9919,3.7859,3.7044,3.6588,3.6369,3.5889,3.5648,3.5605,3.5146,3.4928,3.4906,3.4644,3.4479,3.4547,3.4626,3.435,3.3768,3.3648,3.3385,3.2818,3.1386,3.0655,3.0719,2.9365,2.8652,2.8633,2.8418,2.8301,2.8301,2.8301,2.8654,2.9217,2.967,3.0224,3.0867,3.1641,3.2362,3.2977,3.3965,3.4894,3.584,3.6777,3.7421,3.7637,3.7853,3.7974,3.7974,3.8286,3.8575,3.8815,3.9104,3.9393,3.9729,3.9946,4.0282,4.0787,4.1052,4.1196,4.1196,4.1196,4.1196,4.1196,4.1196,4.1196,4.1196,4.1196,4.1196,4.1196,4.1196,4.1196,4.1196,4.1196,4.1196,4.1172,4.0571,4.0024,3.9861,3.9024,3.8354,3.7999,3.7988,3.7065,3.5855,3.5575,3.5791,3.549,3.6284,3.6642,3.6237,3.6274,3.6148,3.5871,3.5491,3.5191,3.4962,3.4331,3.3275,3.2784,3.2669,3.2669,4.9218,4.9008,4.8433,4.8172,4.8172,4.8172,4.8172,4.8172,4.8172,4.7684,4.665,4.5352,4.3333,4.1041,4.0653,3.9416,3.7511,3.7025,3.6872,3.6828,3.6391,3.6173,3.6107,3.5648,3.5343,3.5168,3.4884,3.4644,3.459,3.5102,3.5144,3.4744,3.4732,3.4517,3.3857,3.2208,3.1402,3.1257,2.9879,2.9101,2.9062,2.8809,2.8535,2.832,2.8301,2.8854,3.0045,3.0412,3.1154,3.2443,3.3137,3.3856,3.4597,3.5165,3.6043,3.7244,3.7757,3.7974,3.7974,3.7974,3.8046,3.8214,3.8599,3.896,3.9248,3.9609,4.0042,4.0523,4.0619,4.0787,4.11,4.1196,4.1196,4.1196,4.1196,4.1196,4.1196,4.1196,4.1196,4.1196,4.1196,4.1196,4.1196,4.1196,4.1196,4.1196,4.1196,4.1196,4.1115,4.0455,3.9826,3.9709,3.8684,3.7814,3.7658,3.7177,3.645,3.5481,3.4907,3.4962,3.4893,3.5711,3.6206,3.5303,3.5813,3.5779,3.5056,3.449,3.4017,3.3419,3.3016,3.2867,3.2747,3.2669,3.2669,4.9557,4.9035,4.8433,4.8224,4.8198,4.8172,4.8172,4.8172,4.8172,4.7191,4.5708,4.5347,4.3368,4.0177,3.9633,3.8611,3.7495,3.733,3.7309,3.7265,3.6872,3.6653,3.6631,3.6173,3.5692,3.5343,3.5168,3.4906,3.4612,3.5102,3.508,3.4648,3.5068,3.4823,3.3912,3.2585,3.1768,3.1368,3.0218,2.9587,2.9531,2.9567,2.9082,2.8457,2.832,2.9086,3.0565,3.1686,3.2982,3.4549,3.5549,3.6159,3.6309,3.6764,3.7292,3.7853,3.795,3.7974,3.7974,3.8022,3.8214,3.8671,3.8864,3.9248,4.0066,4.0306,4.0571,4.1076,4.1076,4.1124,4.1172,4.1196,4.1196,4.1196,4.1196,4.1196,4.1196,4.1196,4.1196,4.1196,4.1196,4.1196,4.1196,4.1196,4.1196,4.1196,4.1196,4.1115,4.0942,4.0942,4.0687,4.0281,3.9357,3.8246,3.6131,3.5837,3.4958,3.4024,3.3818,3.3575,3.3694,3.3932,3.4209,3.4341,3.4424,3.436,3.3997,3.3651,3.3247,3.2996,3.3141,3.3037,3.2711,3.2669,3.2669,5.0132,4.9557,4.9008,4.8773,4.8721,4.8355,4.8172,4.8172,4.8172,4.7339,4.5874,4.4689,4.2975,4.0854,3.9203,3.8083,3.7456,3.7374,3.7374,3.7352,3.7199,3.7134,3.709,3.6653,3.6347,3.6107,3.5517,3.5197,3.5146,3.5653,3.6036,3.5959,3.519,3.4913,3.4758,3.2642,3.156,3.1999,3.0797,2.998,2.9998,2.9763,2.9394,2.9141,2.9156,2.9709,3.0975,3.2158,3.336,3.4641,3.6081,3.6916,3.694,3.7397,3.7781,3.795,3.7974,3.7974,3.8022,3.8334,3.8599,3.8839,3.9465,3.9922,4.0355,4.0691,4.098,4.1148,4.1196,4.1196,4.1196,4.1196,4.1196,4.1196,4.1196,4.1196,4.1196,4.1196,4.1196,4.1196,4.1196,4.1196,4.1196,4.1196,4.1196,4.1196,4.1196,4.0826,4.0024,3.9474,3.8885,3.767,3.6703,3.5746,3.4819,3.4964,3.4841,3.3817,3.3228,3.3457,3.3619,3.4207,3.4654,3.4336,3.3989,3.4031,3.4173,3.4049,3.3472,3.312,3.3265,3.3161,3.269,3.2669,3.2669,5.0446,4.9871,4.9505,4.9244,4.9035,4.8643,4.8355,4.8198,4.8172,4.718,4.5583,4.4245,4.2682,4.0859,3.9276,3.8204,3.7636,3.7461,3.7374,3.7374,3.7374,3.7374,3.733,3.7046,3.6828,3.6603,3.5923,3.5635,3.5957,3.6346,3.6742,3.6958,3.563,3.5333,3.5576,3.3006,3.1903,3.2338,3.158,3.104,3.1,3.1115,3.1142,3.1121,3.1121,3.1373,3.2053,3.317,3.4434,3.562,3.6811,3.7445,3.7493,3.7781,3.7974,3.7974,3.7974,3.807,3.8262,3.8599,3.896,3.932,3.9946,4.0451,4.0643,4.098,4.1148,4.1196,4.1196,4.1196,4.1196,4.1196,4.1196,4.1196,4.1196,4.1196,4.1196,4.1196,4.1196,4.1196,4.1196,4.1196,4.1172,4.1287,4.1344,4.1344,4.1115,4.0432,3.965,3.8566,3.7692,3.6542,3.5807,3.5397,3.4777,3.4902,3.4923,3.4037,3.3729,3.3777,3.3901,3.4512,3.4697,3.4388,3.4281,3.4343,3.4383,3.438,3.4049,3.3513,3.3451,3.341,3.3058,3.2669,3.2669,5.0472,5.0028,4.9897,4.9636,4.9244,4.9061,4.8721,4.8303,4.814,4.6645,4.4572,4.4117,4.2365,4.0135,3.9577,3.8969,3.816,3.7658,3.7418,3.7374,3.7374,3.7374,3.7374,3.733,3.7128,3.6794,3.6312,3.6466,3.7123,3.7006,3.7068,3.7052,3.6501,3.6086,3.6246,3.4073,3.2784,3.2877,3.2721,3.2644,3.2856,3.3522,3.3905,3.406,3.4115,3.4009,3.3835,3.4916,3.6084,3.7435,3.7849,3.795,3.7902,3.795,3.7974,3.7974,3.7998,3.8286,3.8719,3.8864,3.9417,4.0042,4.0403,4.0667,4.1004,4.1148,4.1196,4.1196,4.1196,4.1196,4.1196,4.1196,4.1196,4.1196,4.1196,4.1196,4.1196,4.1196,4.1196,4.1196,4.1057,4.1115,4.1172,4.0976,4.0894,4.0779,4.0408,3.9767,3.9275,3.8328,3.8171,3.7572,3.6298,3.5211,3.5025,3.4901,3.4715,3.4465,3.4425,3.4428,3.4471,3.484,3.4615,3.4328,3.4244,3.4345,3.4486,3.4403,3.4194,3.3782,3.3762,3.3513,3.3078,3.2669,3.2669,5.123,5.1021,5.0655,5.042,5.0132,4.9427,4.8956,4.8629,4.747,4.5839,4.4227,4.3255,4.1797,4.036,3.9776,3.9209,3.8597,3.8095,3.7702,3.744,3.7374,3.7374,3.7374,3.7374,3.7374,3.7288,3.7188,3.752,3.7934,3.7333,3.7455,3.8256,3.6905,3.6534,3.7084,3.5464,3.4439,3.4396,3.406,3.3909,3.3888,3.4224,3.4447,3.4503,3.5168,3.5595,3.5514,3.5839,3.6233,3.6827,3.7524,3.7974,3.7974,3.7974,3.7974,3.8022,3.8359,3.8599,3.8864,3.9489,3.9994,4.0379,4.0715,4.098,4.1148,4.1196,4.1115,4.1172,4.1196,4.1196,4.1196,4.1196,4.1115,4.1196,4.1196,4.1196,4.1196,4.1172,4.1196,4.1057,4.0397,3.9884,3.965,3.9393,3.8898,3.8921,3.8506,3.8067,3.7188,3.7006,3.6053,3.5129,3.4715,3.4963,3.4777,3.4652,3.4548,3.4485,3.461,3.4571,3.4717,3.4759,3.4473,3.4329,3.4246,3.4346,3.4488,3.4445,3.4217,3.3824,3.3555,3.3223,3.2793,3.2669,3.2669,5.1805,5.157,5.123,5.0969,5.0734,4.9976,4.9453,4.8882,4.7307,4.5649,4.4189,4.2902,4.155,4.0473,4.0016,3.9622,3.91,3.8772,3.827,3.768,3.744,3.7374,3.7435,3.7676,3.7963,3.8182,3.8271,3.8654,3.9258,3.8428,3.8447,3.9062,3.7577,3.6961,3.761,3.635,3.5487,3.5479,3.5599,3.5647,3.5781,3.6117,3.6339,3.645,3.7081,3.7434,3.7465,3.7465,3.7302,3.7129,3.7768,3.8286,3.831,3.8479,3.8599,3.8647,3.8912,3.92,3.9441,4.0018,4.0499,4.0691,4.1004,4.1172,4.1115,4.0884,4.0455,4.0455,3.9966,3.9791,3.9732,3.9732,3.9908,4.0432,4.0942,4.1115,4.1172,4.0745,4.0455,4.0141,3.9298,3.8684,3.8246,3.8067,3.7467,3.7467,3.7166,3.6803,3.5848,3.5561,3.4652,3.4047,3.4173,3.436,3.436,3.436,3.436,3.4423,3.4548,3.449,3.4492,3.4473,3.4289,3.4186,3.4063,3.4449,3.4612,3.4569,3.4422,3.3906,3.3492,3.3141,3.2892,3.269,3.2669,5.2171,5.1675,5.1596,5.1309,5.089,5.0734,4.9985,4.8859,4.7455,4.5736,4.3989,4.2587,4.1421,4.0474,4.0279,3.9994,3.9666,3.9513,3.8881,3.8139,3.768,3.7461,3.7435,3.7916,3.8492,3.9053,3.9291,3.977,4.0233,3.9593,3.9626,3.9579,3.8398,3.7918,3.801,3.6822,3.6316,3.6719,3.7417,3.7801,3.7824,3.8768,3.9347,3.9268,3.9299,3.9299,3.9275,3.9251,3.8947,3.831,3.8569,3.8864,3.8936,3.9266,3.9268,3.9189,3.9419,3.9651,4.0066,4.037,4.0691,4.1052,4.1148,4.1196,4.1057,4.0397,3.9826,3.9709,3.8803,3.8029,3.8089,3.797,3.8387,3.9039,4.0141,4.0826,4.0942,3.9884,3.9216,3.8921,3.8029,3.7188,3.7188,3.7226,3.7106,3.7023,3.6356,3.5888,3.5725,3.5067,3.4528,3.4235,3.411,3.411,3.4173,3.3985,3.3985,3.4235,3.4423,3.4469,3.439,3.433,3.437,3.4186,3.4145,3.4511,3.4675,3.4734,3.4629,3.4238,3.3803,3.3285,3.2996,3.2892,3.2669,5.2406,5.2223,5.1779,5.1518,5.1335,5.0969,4.9816,4.8089,4.6402,4.4592,4.2869,4.1399,4.0712,4.0344,4.0344,4.0082,3.9732,3.9644,3.9097,3.8204,3.8008,3.7702,3.7561,3.8058,3.8633,3.9262,3.9768,4.0324,4.0841,3.9915,3.9868,4.065,3.8699,3.857,3.9719,3.8574,3.8413,3.9051,3.9084,3.9109,3.9189,3.9411,3.9609,3.9609,3.9633,3.9657,3.9609,3.9609,3.9513,3.9248,3.9296,3.9393,3.9307,3.8815,3.8484,3.8451,3.8651,3.878,3.9161,4.0202,4.0971,4.1148,4.1172,4.1196,4.1196,4.0884,4.0629,4.0629,4.0316,3.9908,3.9849,3.9062,3.8506,3.8029,3.8862,3.965,3.9533,3.8625,3.7768,3.767,3.6642,3.6032,3.5725,3.5294,3.486,3.4736,3.4632,3.4445,3.457,3.457,3.4047,3.4235,3.4173,3.4047,3.3985,3.3733,3.367,3.3985,3.4235,3.4445,3.4429,3.435,3.4452,3.447,3.4552,3.4839,3.4922,3.4983,3.4755,3.4445,3.3824,3.3223,3.3141,3.3037,3.2752,5.272,5.2395,5.12,5.0753,5.0575,4.9761,4.8584,4.7125,4.5406,4.3863,4.2445,4.0973,4.0344,4.0344,4.0344,4.0126,3.9929,3.9907,3.9427,3.875,3.8292,3.7833,3.7725,3.8216,3.8953,3.9344,4.0165,4.0769,4.1033,4.0374,4.0571,4.0836,3.9732,3.9791,4.087,4.0253,3.9868,4.0554,4.0427,4.0258,4.0282,4.0282,4.0282,4.0282,4.0282,4.0282,4.0282,4.0282,4.009,3.9777,3.9801,3.9946,3.9914,3.9519,3.8907,3.8447,3.8584,3.8547,3.8299,3.9453,4.0316,4.0513,4.0745,4.1172,4.1057,4.0745,4.0257,3.9474,3.9121,3.8506,3.8029,3.767,3.7309,3.6703,3.7188,3.7828,3.8305,3.7309,3.6581,3.6215,3.5438,3.457,3.459,3.3859,3.3544,3.3481,3.365,3.367,3.3733,3.3733,3.3859,3.4173,3.4235,3.4173,3.4298,3.4173,3.4047,3.4298,3.4423,3.459,3.4594,3.4534,3.4656,3.4756,3.4941,3.5045,3.5128,3.5066,3.4712,3.4277,3.3637,3.3306,3.3223,3.3037,3.283,5.3086,5.241,5.0371,4.949,4.9361,4.806,4.7106,4.6103,4.4673,4.351,4.2421,4.102,4.0432,4.0344,4.0344,4.0323,4.0236,4.0192,3.9972,3.9338,3.8722,3.8082,3.7934,3.8738,3.9249,3.9579,4.0653,4.1081,4.1172,4.1115,4.1115,4.0942,4.0711,4.0687,4.0571,4.0548,4.0687,4.0442,4.0487,4.0324,4.0266,4.0324,4.0358,4.0127,4.0497,4.0578,4.0741,4.0913,4.0739,3.9826,4.0234,4.0451,4.0466,4.0817,4.0187,3.9242,3.8807,3.832,3.7768,3.8602,3.9275,3.951,4.0199,4.0884,4.0571,3.9732,3.8684,3.785,3.6338,3.5786,3.4881,3.5005,3.5376,3.5314,3.5253,3.5807,3.6338,3.5848,3.5191,3.5191,3.409,3.3544,3.3418,3.3418,3.3481,3.3607,3.367,3.3859,3.3985,3.4047,3.4173,3.436,3.436,3.4298,3.4548,3.4735,3.4735,3.4735,3.4859,3.4943,3.4944,3.4902,3.488,3.4941,3.5128,3.5231,3.5293,3.5045,3.4691,3.4297,3.3862,3.3472,3.3223,3.2954,3.2727,5.3321,5.2983,5.0523,4.949,4.9232,4.7994,4.6476,4.4943,4.4585,4.3216,4.1706,4.1023,4.0629,4.0366,4.0301,4.0344,4.0344,4.0323,4.0017,3.9599,3.9175,3.8853,3.879,3.9263,3.9567,4.0071,4.0769,4.1196,4.1196,4.1196,4.1196,4.1,3.9533,3.8684,3.9533,3.8921,3.8149,3.8328,3.9098,3.918,3.8684,3.9239,3.9239,3.8566,3.918,3.9592,3.9884,4.0629,4.1052,4.0932,4.0851,4.0817,4.0669,3.9382,3.8862,3.898,3.8328,3.7648,3.761,3.8387,3.9157,3.9039,3.8684,3.8566,3.9474,3.8506,3.773,3.7309,3.7006,3.6032,3.4943,3.5129,3.4881,3.4278,3.3965,3.4027,3.4153,3.409,3.3965,3.3839,3.367,3.3418,3.3418,3.367,3.3733,3.3796,3.3985,3.4235,3.436,3.436,3.4485,3.461,3.461,3.461,3.4735,3.4984,3.4984,3.4984,3.5108,3.517,3.517,3.5169,3.5128,3.5211,3.5335,3.5397,3.5397,3.5086,3.4733,3.438,3.409,3.3679,3.3368,3.3016,3.2747,5.2958,5.2086,4.9576,4.8126,4.7335,4.6022,4.4891,4.4029,4.3646,4.2882,4.1768,4.124,4.0869,4.0607,4.0388,4.0344,4.0344,4.0344,4.0343,4.029,4.0088,4.0185,4.051,4.0237,4.0211,4.0352,4.0884,4.1172,4.1196,4.1196,4.1196,4.1057,3.9121,3.8803,3.8921,3.797,3.7489,3.7467,3.7887,3.797,3.7588,3.791,3.8149,3.7467,3.797,3.8328,3.8387,3.9533,4.0141,4.0257,4.0257,4.0571,4.1,3.9908,3.9298,3.898,3.8684,3.7828,3.7768,3.785,3.8246,3.8328,3.7648,3.779,3.8089,3.7588,3.6985,3.6581,3.6276,3.5848,3.4652,3.4465,3.3965,3.365,3.3418,3.3418,3.3418,3.3418,3.3481,3.3544,3.367,3.367,3.3733,3.3922,3.3985,3.3985,3.4173,3.4423,3.436,3.4423,3.4673,3.4797,3.4859,3.4922,3.5046,3.5108,3.5108,3.517,3.5294,3.5294,3.5294,3.5355,3.5397,3.5418,3.5418,3.5418,3.5355,3.5024,3.492,3.4776,3.4507,3.3989,3.3596,3.3348,3.3016,5.2345,5.098,4.8234,4.6426,4.521,4.3905,4.3372,4.3167,4.2726,4.2623,4.2267,4.1481,4.1109,4.0891,4.0476,4.0301,4.0344,4.0344,4.0473,4.0751,4.077,4.1109,4.1622,4.1419,4.1058,4.0563,4.0966,4.1196,4.1196,4.1196,4.1196,4.0942,3.9849,3.9157,3.8862,3.7947,3.7127,3.6946,3.6946,3.6703,3.6581,3.6764,3.6924,3.6885,3.6946,3.7006,3.7248,3.8149,3.8921,3.8921,3.8944,3.9533,4.0199,4.0257,4.0513,3.9275,3.8803,3.8029,3.7768,3.7588,3.7407,3.7309,3.7006,3.7006,3.7006,3.656,3.5909,3.5438,3.5005,3.4715,3.3544,3.3544,3.3544,3.3481,3.3481,3.3481,3.3544,3.3544,3.3733,3.367,3.3733,3.3796,3.3985,3.4173,3.4173,3.4173,3.436,3.4548,3.4548,3.461,3.4859,3.4984,3.5108,3.5108,3.5232,3.5232,3.5232,3.5294,3.5356,3.5356,3.5418,3.5418,3.5418,3.5418,3.5418,3.5418,3.5314,3.5024,3.4983,3.5148,3.4693,3.3886,3.3637,3.3637,3.3348,5.1412,5.0913,4.7163,4.5481,4.5074,4.3767,4.3184,4.3163,4.3053,4.2813,4.2376,4.1808,4.1328,4.0978,4.0498,4.0366,4.0344,4.0409,4.0474,4.0839,4.1076,4.1729,4.1986,4.2289,4.2054,4.1729,4.1461,4.1244,4.1196,4.1196,4.1196,4.0942,3.9849,3.9216,3.8862,3.7947,3.6703,3.6215,3.5848,3.5314,3.5005,3.5253,3.5725,3.5725,3.5684,3.5684,3.5971,3.6885,3.761,3.761,3.761,3.779,3.791,3.7248,3.797,3.9298,3.797,3.7188,3.8089,3.773,3.7369,3.7067,3.6276,3.5725,3.55,3.4881,3.4383,3.409,3.3902,3.367,3.3418,3.3418,3.3544,3.367,3.3733,3.3859,3.4047,3.4047,3.3922,3.367,3.3796,3.3985,3.4235,3.4485,3.4548,3.461,3.4797,3.4984,3.4984,3.5046,3.5232,3.5294,3.5356,3.5356,3.5356,3.5356,3.5356,3.5356,3.5418,3.5418,3.5418,3.5418,3.5418,3.5418,3.5418,3.5418,3.5252,3.5045,3.5004,3.5107,3.4424,3.372,3.3844,3.3989,3.3883,4.9499,4.8348,4.6167,4.4892,4.4159,4.3511,4.3184,4.3184,4.3184,4.3053,4.2638,4.2049,4.159,4.1219,4.0563,4.0279,4.0409,4.0734,4.0971,4.1396,4.2063,4.2677,4.2732,4.3142,4.2505,4.1994,4.1602,4.1437,4.122,4.1196,4.1196,4.0884,3.9826,3.9216,3.8721,3.7226,3.6642,3.6032,3.5191,3.4528,3.434,3.4652,3.4403,3.4403,3.4403,3.434,3.457,3.5602,3.6276,3.6338,3.6338,3.6703,3.652,3.5909,3.5807,3.8089,3.7369,3.6764,3.779,3.7067,3.6276,3.6154,3.5191,3.4465,3.4278,3.3839,3.3418,3.3418,3.3418,3.3418,3.3418,3.3418,3.3481,3.3607,3.367,3.3733,3.3859,3.3922,3.3796,3.3733,3.411,3.4423,3.4548,3.4735,3.4984,3.5108,3.5232,3.5294,3.5356,3.5418,3.5418,3.5418,3.5418,3.5418,3.5418,3.5418,3.5418,3.5418,3.5418,3.5418,3.5418,3.5418,3.5418,3.5418,3.5418,3.5418,3.5376,3.5231,3.5148,3.5066,3.4776,3.4507,3.4383,3.43,3.4214,4.7487,4.6059,4.5234,4.4228,4.3324,4.3184,4.3184,4.3184,4.3184,4.3163,4.3032,4.218,4.1677,4.1437,4.0869,4.0344,4.0539,4.1122,4.155,4.2229,4.2839,4.3553,4.3807,4.3754,4.3126,4.2343,4.228,4.1825,4.1031,4.1129,4.1196,4.1,4.0024,3.9592,3.9239,3.785,3.7188,3.6581,3.554,3.4881,3.5253,3.4757,3.4027,3.3796,3.3776,3.3859,3.3733,3.4403,3.4943,3.5005,3.5067,3.5438,3.5971,3.4507,3.4445,3.6093,3.652,3.6703,3.6985,3.6215,3.5623,3.5561,3.4528,3.3922,3.3481,3.3544,3.3418,3.3418,3.3418,3.3418,3.3418,3.3418,3.3481,3.3544,3.3544,3.3544,3.3733,3.3859,3.3985,3.411,3.4548,3.4735,3.4797,3.4859,3.4984,3.5108,3.5232,3.5294,3.5356,3.5356,3.5418,3.5418,3.5418,3.5418,3.5418,3.5418,3.5418,3.5418,3.5418,3.5418,3.5418,3.5418,3.5418,3.5418,3.5418,3.5418,3.5418,3.5418,3.5314,3.5273,3.5293,3.519,3.4921,3.4714,3.4608,4.6289,4.592,4.4175,4.3302,4.3254,4.3184,4.3184,4.3184,4.3184,4.3184,4.3119,4.2158,4.1677,4.1393,4.0694,4.0626,4.0971,4.1357,4.1742,4.2356,4.3051,4.3451,4.3576,4.4051,4.3607,4.2928,4.3057,4.2016,4.0808,4.0903,4.122,4.1129,4.1047,4.0884,4.0513,3.9003,3.8921,3.8684,3.7528,3.6824,3.6885,3.6703,3.6032,3.5314,3.4943,3.4465,3.3607,3.3776,3.3839,3.3776,3.3713,3.3713,3.3776,3.367,3.3481,3.3776,3.409,3.4881,3.6399,3.5848,3.5129,3.5129,3.4881,3.4465,3.3776,3.3418,3.3418,3.3418,3.3418,3.3418,3.3418,3.3418,3.3544,3.367,3.367,3.3859,3.4047,3.3859,3.3985,3.4235,3.4548,3.4735,3.4859,3.4922,3.4984,3.5108,3.517,3.5232,3.5294,3.5356,3.5418,3.5418,3.5418,3.5418,3.5418,3.5418,3.5418,3.5418,3.5418,3.5418,3.5418,3.5418,3.5418,3.5418,3.5418,3.5418,3.5418,3.5418,3.5418,3.5376,3.5314,3.5335,3.5335,3.5148,3.49,4.4495,4.4403,4.3529,4.3184,4.3184,4.3184,4.3184,4.3184,4.3184,4.3184,4.2988,4.2136,4.1415,4.0913,4.0388,4.0474,4.0864,4.1486,4.1975,4.2483,4.3263,4.3826,4.3974,4.4099,4.3883,4.3136,4.2952,4.1947,4.0808,4.0914,4.1629,4.1523,4.1341,4.1115,4.085,3.9849,3.9826,3.9709,3.9039,3.8029,3.7489,3.7166,3.6703,3.55,3.5438,3.4652,3.3713,3.3418,3.3418,3.3418,3.3418,3.3418,3.3418,3.3418,3.3418,3.3418,3.3418,3.3965,3.4757,3.4507,3.4403,3.4278,3.4278,3.3902,3.3481,3.3418,3.3418,3.3418,3.3418,3.3418,3.3418,3.3418,3.3481,3.3607,3.3773,3.3753,3.3942,3.4047,3.411,3.4298,3.4548,3.4673,3.4859,3.4922,3.5046,3.5232,3.5294,3.5294,3.5356,3.5356,3.5418,3.5418,3.5418,3.5418,3.5418,3.5418,3.5418,3.5418,3.5356,3.5356,3.5418,3.5418,3.5356,3.5356,3.5418,3.5418,3.5418,3.5418,3.5418,3.5355,3.5273,3.5335,3.5397,3.5376,3.5211,4.3184,4.3184,4.3184,4.3184,4.3184,4.3184,4.3184,4.3184,4.3184,4.3184,4.2922,4.2136,4.1175,4.0454,4.0366,4.0474,4.0647,4.1783,4.2356,4.2862,4.3326,4.3826,4.3974,4.4013,4.324,4.2293,4.2825,4.1821,4.0733,4.0523,4.1051,4.114,4.0622,4.0422,4.0048,3.9308,3.898,3.9474,3.8862,3.8089,3.7467,3.7309,3.652,3.5807,3.5253,3.4757,3.3607,3.3418,3.3418,3.3418,3.3418,3.3418,3.3418,3.3418,3.3418,3.3418,3.3418,3.3418,3.3713,3.3607,3.3418,3.3418,3.3418,3.3544,3.3418,3.3418,3.3418,3.3418,3.3418,3.3418,3.3437,3.3496,3.3598,3.3681,3.3725,3.3623,3.3583,3.3879,3.3922,3.3922,3.4173,3.461,3.4735,3.4859,3.5046,3.5294,3.5356,3.5356,3.5356,3.5418,3.5356,3.5356,3.5356,3.5356,3.5356,3.5356,3.5356,3.5356,3.5294,3.5356,3.5356,3.5294,3.5232,3.5294,3.5356,3.5418,3.5418,3.5418,3.5418,3.5376,3.5355,3.5376,3.5418,3.5418,3.5418,4.3184,4.3184,4.3184,4.3184,4.3184,4.3184,4.3184,4.3184,4.3184,4.3141,4.29,4.2114,4.1109,4.0541,4.0474,4.0734,4.1229,4.1975,4.242,4.2673,4.2799,4.2988,4.3177,4.2862,4.2356,4.2166,4.2195,4.1347,4.036,3.9746,3.9516,3.8931,3.9273,3.8837,3.8506,3.8147,3.779,3.8149,3.779,3.767,3.7347,3.7188,3.6664,3.5705,3.5335,3.4757,3.3481,3.3437,3.3418,3.3418,3.3418,3.3418,3.3418,3.3418,3.3418,3.3418,3.3418,3.3418,3.3418,3.3418,3.3418,3.3418,3.3418,3.3418,3.3418,3.3418,3.3418,3.3418,3.3418,3.3418,3.3535,3.3691,3.376,3.3764,3.3725,3.3808,3.3812,3.3879,3.3922,3.367,3.3922,3.461,3.4797,3.4984,3.5108,3.5356,3.5294,3.5294,3.5356,3.5418,3.5356,3.5356,3.5356,3.5356,3.5294,3.5294,3.5108,3.5108,3.5108,3.517,3.5294,3.5232,3.5232,3.5294,3.5418,3.5418,3.5418,3.5418,3.5418,3.5418,3.5418,3.5418,3.5418,3.5418,3.5418,4.3184,4.3184,4.3184,4.3184,4.3184,4.3184,4.3184,4.3184,4.3184,4.2791,4.2245,4.1546,4.0913,4.0541,4.0799,4.1057,4.1315,4.1441,4.1824,4.1697,4.1482,4.1377,4.1505,4.1441,4.0991,4.0991,4.0926,4.0257,3.8951,3.9024,3.8157,3.7803,3.7962,3.8148,3.7811,3.7353,3.7214,3.721,3.7248,3.7248,3.7309,3.727,3.6832,3.5894,3.5459,3.4897,3.3965,3.3535,3.3457,3.3418,3.3418,3.3418,3.3418,3.3418,3.3418,3.3418,3.3418,3.3418,3.3418,3.3418,3.3418,3.3418,3.3418,3.3418,3.3418,3.3418,3.3418,3.3418,3.3418,3.3418,3.3457,3.3555,3.3618,3.3623,3.3769,3.4037,3.4084,3.413,3.4173,3.4047,3.4485,3.5046,3.5108,3.517,3.5294,3.5356,3.5294,3.5232,3.5294,3.5294,3.5232,3.5108,3.5108,3.4984,3.4922,3.4859,3.4797,3.4859,3.4922,3.5046,3.517,3.5356,3.5356,3.5418,3.5418,3.5418,3.5418,3.5418,3.5418,3.5418,3.5418,3.5418,3.5418,3.5418,3.5418,4.3184,4.3184,4.3184,4.3184,4.3184,4.3184,4.3184,4.3141,4.301,4.2398,4.1481,4.1109,4.0738,4.0584,4.0993,4.0841,4.0841,4.0926,4.0839,4.0516,3.9997,3.9866,3.9932,3.9801,3.9605,3.9605,3.9474,3.8838,3.7575,3.8086,3.7401,3.6729,3.6705,3.7001,3.696,3.6748,3.6493,3.6387,3.6366,3.6239,3.6074,3.6139,3.6101,3.5387,3.5139,3.4822,3.4221,3.3789,3.3574,3.3476,3.3418,3.3418,3.3418,3.3418,3.3418,3.3418,3.3418,3.3418,3.3418,3.3418,3.3418,3.3418,3.3418,3.3418,3.3418,3.3418,3.3418,3.3418,3.3418,3.3418,3.3437,3.3657,3.3891,3.3997,3.4409,3.4659,3.4481,3.4485,3.4485,3.4485,3.4922,3.5108,3.517,3.517,3.5294,3.5356,3.5356,3.5232,3.5108,3.5108,3.5046,3.4922,3.4735,3.461,3.4485,3.461,3.4797,3.4859,3.4922,3.4922,3.5046,3.5232,3.5294,3.517,3.5232,3.5356,3.5418,3.5418,3.5418,3.5418,3.5418,3.5418,3.5418,3.5418,3.5418,4.3184,4.3184,4.3184,4.3184,4.3184,4.3184,4.3184,4.3097,4.2638,4.1961,4.1197,4.1022,4.0716,4.054,4.0993,4.0841,4.0301,4.0668,4.0581,3.9692,3.8639,3.9035,3.9035,3.8772,3.8109,3.8109,3.8042,3.7461,3.6287,3.6574,3.6248,3.6034,3.6023,3.5818,3.554,3.508,3.4583,3.4314,3.4448,3.4358,3.4346,3.4588,3.464,3.473,3.4665,3.4477,3.4309,3.3926,3.3672,3.3476,3.3418,3.3418,3.3418,3.3418,3.3418,3.3418,3.3418,3.3418,3.3418,3.3418,3.3418,3.3418,3.3418,3.3418,3.3418,3.3418,3.3418,3.3418,3.3418,3.3418,3.3681,3.4049,3.4243,3.4392,3.4805,3.5015,3.4772,3.4735,3.4735,3.4859,3.4859,3.4922,3.5046,3.517,3.5294,3.5418,3.5418,3.5294,3.5046,3.4922,3.4922,3.4735,3.4548,3.4423,3.436,3.461,3.4735,3.4797,3.4859,3.4797,3.4859,3.5046,3.5046,3.4984,3.517,3.5356,3.5418,3.5418,3.5418,3.5418,3.5418,3.5418,3.5418,3.5418,3.5418,4.3184,4.3184,4.3184,4.3184,4.3184,4.3184,4.3184,4.3032,4.2333,4.1743,4.1371,4.0869,4.0476,4.0496,4.0906,4.1164,4.1055,3.9692,3.9495,3.9561,3.7775,3.7059,3.7193,3.726,3.6809,3.6742,3.6674,3.6674,3.6084,3.6035,3.6035,3.5957,3.582,3.5469,3.5059,3.4726,3.457,3.4492,3.4538,3.4479,3.4297,3.4414,3.459,3.4824,3.4551,3.4375,3.4355,3.4004,3.3652,3.3457,3.3418,3.3418,3.3418,3.3418,3.3418,3.3418,3.3418,3.3418,3.3418,3.3418,3.3418,3.3418,3.3418,3.3418,3.3418,3.3418,3.3418,3.3418,3.3544,3.3607,3.3855,3.4445,3.4719,3.4498,3.4727,3.4914,3.4918,3.4858,3.4922,3.5108,3.5232,3.517,3.5232,3.5232,3.5356,3.5294,3.5294,3.517,3.4984,3.4922,3.4859,3.461,3.4423,3.4235,3.4235,3.436,3.436,3.4298,3.4423,3.4548,3.4673,3.4922,3.5108,3.517,3.5294,3.5418,3.5356,3.5356,3.5356,3.5418,3.5418,3.5418,3.5418,3.5418,3.5418,4.3184,4.3184,4.3184,4.3053,4.2922,4.2922,4.2748,4.2376,4.1721,4.1371,4.1066,4.052,4.0279,4.0474,4.0993,4.069,4.0775,3.9736,3.8374,3.8639,3.6876,3.6287,3.6084,3.6035,3.6219,3.6035,3.6035,3.6035,3.6035,3.6035,3.6035,3.6035,3.6016,3.5742,3.5351,3.5234,3.5117,3.5039,3.4941,3.4824,3.4707,3.4707,3.4805,3.4844,3.4668,3.4355,3.4297,3.3984,3.3555,3.3476,3.3418,3.3418,3.3418,3.3418,3.3418,3.3418,3.3418,3.3418,3.3418,3.3418,3.3418,3.3418,3.3418,3.3418,3.3418,3.3418,3.3418,3.3481,3.367,3.3796,3.3981,3.4635,3.4722,3.4501,3.4752,3.4938,3.5064,3.5066,3.5108,3.5294,3.5356,3.5418,3.5418,3.5356,3.5418,3.5294,3.5108,3.5046,3.4922,3.4859,3.4797,3.4548,3.4298,3.4173,3.411,3.411,3.4047,3.3796,3.411,3.4485,3.4735,3.5046,3.517,3.5232,3.517,3.517,3.5232,3.5232,3.5356,3.5418,3.5418,3.5418,3.5418,3.5418,3.5418,4.3184,4.3184,4.3184,4.29,4.2507,4.2507,4.1961,4.1131,4.1044,4.0782,4.0367,4.0388,4.0344,4.0409,4.0928,4.0236,3.8816,3.8552,3.7709,3.6722,3.6016,3.5879,3.5947,3.6035,3.6035,3.6035,3.6035,3.6035,3.6035,3.6035,3.6035,3.6035,3.6035,3.5898,3.584,3.5762,3.5644,3.5469,3.5391,3.5234,3.5078,3.4863,3.4902,3.4863,3.4648,3.4355,3.4199,3.3926,3.3711,3.3555,3.3418,3.3418,3.3418,3.3418,3.3418,3.3418,3.3418,3.3418,3.3418,3.3418,3.3418,3.3418,3.3418,3.3418,3.3418,3.3418,3.3418,3.3418,3.3544,3.3733,3.3918,3.4167,3.4395,3.4586,3.4899,3.5066,3.5273,3.5294,3.5356,3.5418,3.5418,3.5418,3.5418,3.5418,3.5418,3.5356,3.5232,3.517,3.4984,3.4797,3.4735,3.461,3.436,3.4047,3.4047,3.4173,3.4047,3.3922,3.4423,3.4797,3.4984,3.4984,3.4984,3.4922,3.4922,3.4922,3.5046,3.5232,3.5356,3.5418,3.5418,3.5418,3.5418,3.5418,3.5418,4.3184,4.3184,4.3184,4.3097,4.2922,4.2573,4.2049,4.1503,4.1175,4.0891,4.0782,4.0432,4.0149,4.0279,3.9735,3.932,3.8618,3.7755,3.722,3.6499,3.5792,3.5811,3.5879,3.6016,3.6035,3.6035,3.6035,3.6035,3.6035,3.6035,3.6035,3.6035,3.5976,3.5996,3.5996,3.6016,3.5859,3.5801,3.5703,3.5625,3.543,3.5215,3.5137,3.4961,3.4453,3.4199,3.4023,3.3769,3.3555,3.3457,3.3418,3.3418,3.3418,3.3418,3.3418,3.3418,3.3418,3.3418,3.3418,3.3418,3.3418,3.3418,3.3418,3.3418,3.3418,3.3437,3.3437,3.3437,3.3603,3.3832,3.4021,3.423,3.4461,3.4671,3.4961,3.5127,3.5314,3.5356,3.5356,3.5418,3.5418,3.5418,3.5418,3.5418,3.5418,3.5356,3.5356,3.5232,3.517,3.4922,3.4797,3.4735,3.4485,3.4298,3.436,3.4485,3.4235,3.4173,3.4548,3.4735,3.4548,3.4485,3.461,3.4735,3.4859,3.4859,3.4922,3.5108,3.5356,3.5356,3.5356,3.5418,3.5418,3.5418,3.5418,4.3184,4.3184,4.3184,4.3075,4.2813,4.2333,4.1852,4.1415,4.1109,4.0714,4.0079,3.9733,3.9407,3.888,3.8329,3.7975,3.7888,3.6702,3.6025,3.584,3.5655,3.5675,3.5675,3.5947,3.6035,3.6035,3.6035,3.6035,3.6035,3.6035,3.6035,3.5996,3.5898,3.5781,3.5703,3.5547,3.5449,3.5566,3.5723,3.5859,3.5664,3.5351,3.5098,3.4785,3.4141,3.3906,3.3809,3.3516,3.3457,3.3418,3.3418,3.3418,3.3418,3.3418,3.3418,3.3418,3.3418,3.3418,3.3418,3.3418,3.3418,3.3418,3.3418,3.3418,3.3516,3.3594,3.3535,3.3496,3.3784,3.4033,3.4203,3.4415,3.4586,3.4838,3.5002,3.5229,3.5314,3.5314,3.5356,3.5418,3.5418,3.5418,3.5418,3.5418,3.5418,3.5356,3.5356,3.5356,3.5294,3.517,3.5108,3.5108,3.4797,3.461,3.4673,3.461,3.4298,3.411,3.4298,3.436,3.411,3.4173,3.4423,3.461,3.4859,3.4859,3.4797,3.517,3.5356,3.5356,3.5356,3.5356,3.5356,3.5418,3.5418,4.3184,4.3184,4.3184,4.29,4.2398,4.1983,4.1479,4.0954,4.1043,4.0165,3.8985,3.8678,3.8166,3.7671,3.7199,3.6793,3.6482,3.5626,3.5089,3.4921,3.4971,3.5127,3.5538,3.5811,3.5879,3.5967,3.6035,3.6035,3.6035,3.6016,3.5996,3.5957,3.5625,3.543,3.5293,3.5059,3.4961,3.5059,3.5371,3.5586,3.5273,3.4902,3.4473,3.4141,3.375,3.3457,3.3457,3.3418,3.3437,3.3457,3.3496,3.3516,3.3633,3.3535,3.3535,3.3574,3.3613,3.3574,3.3574,3.3574,3.3476,3.3457,3.3418,3.3418,3.3516,3.3613,3.3555,3.3623,3.3871,3.408,3.4293,3.4335,3.4463,3.4693,3.4941,3.5106,3.519,3.5232,3.5356,3.5418,3.5418,3.5418,3.5418,3.5418,3.5418,3.5418,3.5418,3.5418,3.5294,3.5232,3.5232,3.5232,3.4859,3.461,3.461,3.4548,3.4235,3.4173,3.4235,3.411,3.3922,3.4047,3.4298,3.4485,3.461,3.4673,3.4735,3.5046,3.5294,3.5232,3.5232,3.5294,3.5232,3.5046,3.5232,4.3184,4.3184,4.3184,4.2879,4.2442,4.2289,4.1485,4.0376,4.1188,4.0399,3.8849,3.8145,3.7678,3.72,3.6426,3.5993,3.5766,3.4859,3.4439,3.4508,3.4508,3.4853,3.5421,3.5606,3.5743,3.5947,3.6035,3.6016,3.5957,3.5937,3.584,3.5566,3.5312,3.5156,3.4883,3.4629,3.459,3.457,3.4746,3.498,3.4785,3.4473,3.4121,3.3926,3.3672,3.3437,3.3418,3.3418,3.3633,3.3828,3.3906,3.4082,3.4375,3.4082,3.4101,3.4258,3.4062,3.3945,3.3906,3.3887,3.3809,3.3574,3.3496,3.3437,3.3457,3.3535,3.3638,3.3788,3.3978,3.4167,3.4315,3.4358,3.4423,3.4673,3.4859,3.4984,3.5046,3.5232,3.5356,3.5418,3.5418,3.5418,3.5418,3.5418,3.5418,3.5418,3.5418,3.5356,3.5108,3.4984,3.5108,3.5046,3.4735,3.4548,3.4548,3.4423,3.411,3.3985,3.3985,3.3859,3.3733,3.3922,3.4173,3.4235,3.436,3.4548,3.4797,3.5046,3.517,3.4922,3.4528,3.434,3.409,3.3902,3.4403,4.3184,4.3184,4.3184,4.301,4.2791,4.2748,4.1844,4.052,4.0477,3.9529,3.8064,3.7815,3.7451,3.6627,3.5603,3.5406,3.5191,3.433,3.4061,3.4094,3.437,3.4596,3.5009,3.5314,3.5557,3.5762,3.5947,3.5976,3.5781,3.5684,3.5527,3.5137,3.4961,3.4707,3.4414,3.4277,3.418,3.4121,3.418,3.418,3.4219,3.4062,3.3906,3.3769,3.3574,3.3418,3.3418,3.3437,3.3691,3.4023,3.4219,3.4394,3.4551,3.4453,3.4473,3.4531,3.4473,3.4355,3.4355,3.4316,3.4219,3.4004,3.3965,3.4062,3.4166,3.4244,3.4152,3.4305,3.4591,3.4803,3.4842,3.4868,3.4918,3.5128,3.5149,3.517,3.5232,3.5294,3.5418,3.5418,3.5418,3.5418,3.5418,3.5418,3.5356,3.5356,3.5356,3.517,3.4984,3.4797,3.4859,3.4859,3.4548,3.4298,3.4235,3.411,3.3985,3.3859,3.367,3.3607,3.3481,3.3733,3.3985,3.4047,3.4298,3.4673,3.4922,3.4652,3.4278,3.3902,3.3505,3.3126,3.3,3.2936,3.3316,4.2988,4.3075,4.3163,4.3093,4.2931,4.2866,4.1839,4.0332,3.9454,3.8212,3.6964,3.7865,3.6926,3.5526,3.4678,3.4568,3.4348,3.407,3.3872,3.3886,3.4163,3.4277,3.4515,3.4876,3.5054,3.5249,3.5413,3.5441,3.5293,3.5254,3.5059,3.4629,3.4316,3.4062,3.3887,3.3691,3.3535,3.3594,3.3594,3.3516,3.3594,3.3769,3.3691,3.3535,3.3418,3.3437,3.3476,3.3496,3.3691,3.4277,3.4726,3.4922,3.4941,3.4922,3.4922,3.4961,3.4902,3.4805,3.4785,3.4785,3.4726,3.4668,3.4707,3.4773,3.4818,3.4871,3.4778,3.4967,3.5256,3.5356,3.5376,3.5387,3.5477,3.5355,3.5356,3.5356,3.5356,3.5418,3.5418,3.5418,3.5418,3.5418,3.5418,3.5418,3.5356,3.5294,3.517,3.4984,3.4859,3.4673,3.461,3.4548,3.436,3.4173,3.3985,3.3859,3.3796,3.3418,3.3209,3.3209,3.3209,3.3272,3.3461,3.3839,3.409,3.3945,3.3882,3.3631,3.3253,3.3126,3.3568,3.3505,3.2683,3.2619,3.2365,4.2201,4.2595,4.2988,4.2651,4.1792,4.1383,4.0144,3.8774,3.8906,3.8008,3.6951,3.7318,3.7077,3.5485,3.51,3.488,3.4697,3.4202,3.389,3.3886,3.3955,3.3978,3.3979,3.4195,3.4269,3.4509,3.4699,3.4658,3.4778,3.4758,3.4629,3.418,3.416,3.3887,3.3555,3.3418,3.3418,3.3418,3.3418,3.3418,3.3418,3.3516,3.3496,3.3418,3.3418,3.3652,3.375,3.3574,3.418,3.4883,3.5449,3.5605,3.5566,3.541,3.541,3.543,3.5371,3.5273,3.5254,3.5254,3.5195,3.4922,3.4968,3.508,3.5192,3.5389,3.548,3.5882,3.6078,3.5997,3.5968,3.5847,3.5872,3.5542,3.5356,3.5356,3.5418,3.5418,3.5418,3.5418,3.5418,3.5418,3.5418,3.5356,3.5294,3.5232,3.5232,3.5046,3.4735,3.4548,3.4423,3.4298,3.4173,3.4047,3.3922,3.3733,3.3544,3.3082,3.2892,3.3082,3.3019,3.2619,3.2873,3.3713,3.2917,3.2263,3.22,3.3359,3.2917,3.3044,3.4153,3.4278,3.2936,3.1835,3.1258]},{"header":{"parameterUnit":"m.s-1","parameterCategory":1,"la1":31.0,"la2":29.5877,"lo1":-88.7671,"lo2":-86.6584,"dy":0.0162,"dx":0.0185,"nx":115,"ny":88,"refTime":"2024-09-04T00:00:00:Z","depth":0,"parameterNumber":3,"parameterNumberName":"V-component_of_WINDS"},"data":[0.0,0.0,0.0,0.0,0.0,0.0,0.0,0.0,0.0,0.0,0.0,0.0,0.0,0.0,0.0,0.0,0.0,0.0,0.0,0.0,0.0,0.0,0.0,0.0,0.0,0.0,0.0,0.0,0.0,0.0,0.0,0.0,0.0,0.0,0.0,0.0,0.0,0.0,0.0,0.0,0.0,0.0,0.0,0.0,0.0,0.0,0.0,0.0,0.0,0.0,0.0,0.0,0.0,0.0,0.0,0.0,0.0,0.0,0.0,0.0,0.0,0.0,0.0,0.0,0.0,0.0,0.0,0.0,0.0,0.0,0.0,0.0,0.0,0.0,0.0,0.0,0.0,0.0,0.0,0.0,0.0,0.0,0.0,0.0,0.0,0.0,0.0,0.0,0.0,0.0,0.0,0.0,0.0,0.0,0.0,0.0,0.0,0.0,0.0,0.0,0.0,0.0,0.0,0.0,0.0,0.0,0.0,0.0,0.0,0.0,0.0,0.0,0.0,0.0,0.0,0.0,0.0,0.0,0.0,0.0,0.0,0.0,0.0,0.0,0.0,0.0,0.0,0.0,0.0,0.0,0.0,0.0,0.0,0.0,0.0,0.0,0.0,0.0,0.0,0.0,0.0,0.0,0.0,0.0,0.0,0.0,0.0,0.0,0.0,0.0,0.0,0.0,0.0,0.0,0.0,0.0,0.0,0.0,0.0,0.0,0.0,0.0,0.0,0.0,0.0,0.0,0.0,0.0,0.0,0.0,0.0,0.0,0.0,0.0,0.0,0.0,0.0,0.0,0.0,0.0,0.0,0.0,0.0,0.0,0.0,0.0,0.0,0.0,0.0,0.0,0.0,0.0,0.0,0.0,0.0,0.0,0.0,0.0,0.0,0.0,0.0,0.0,0.0,0.0,0.0,0.0,0.0,0.0,0.0,0.0,0.0,0.0,0.0,0.0,0.0,0.0,0.0,0.0,0.0,0.0,0.0,0.0,0.0,0.0,0.0,0.0,0.0,0.0,0.0,0.0,0.0,0.0,0.0,0.0,0.0,0.0,0.0,0.0,0.0,0.0,0.0,0.0,0.0,0.0,0.0,0.0,0.0,0.0,0.0,0.0,0.0,0.0,0.0,0.0,0.0,0.0,0.0,0.0,0.0,0.0,0.0,0.0,0.0,0.0,0.0,0.0,0.0,0.0,0.0,0.0,0.0,0.0,0.0,0.0,0.0,0.0,0.0,0.0,0.0,0.0,0.0,0.0,0.0,0.0,0.0,0.0,0.0,0.0,0.0,0.0,0.0,0.0,0.0,0.0,0.0,0.0,0.0,0.0,0.0,0.0,0.0,0.0,0.0,0.0,0.0,0.0,0.0,0.0,0.0,0.0,0.0,0.0,0.0,0.0,0.0,0.0,0.0,0.0,0.0,0.0,0.0,0.0,0.0,0.0,0.0,0.0,0.0,0.0,0.0,0.0,0.0,0.0,0.0,0.0,0.0,0.0,0.0,0.0,0.0,0.0,0.0,0.0,0.0,0.0,0.0,0.0,0.0,0.0,0.0,0.0,0.0,0.0,0.0,0.0,0.0,0.0,0.0,0.0,0.0,0.0,0.0,0.0,0.0,0.0,0.0,0.0,0.0,0.0,0.0,0.0,0.0,0.0,0.0,0.0,0.0,0.0,0.0,0.0,0.0,0.0,0.0,0.0,0.0,0.0,0.0,0.0,0.0,0.0,0.0,0.0,0.0,0.0,0.0,0.0,0.0,0.0,0.0,0.0,0.0,0.0,0.0,0.0,0.0,0.0,0.0,0.0,0.0,0.0,0.0,0.0,0.0,0.0,0.0,0.0,0.0,0.0,0.0,0.0,0.0,0.0,0.0,0.0,0.0,0.0,0.0,0.0,0.0,0.0,0.0,0.0,0.0,0.0,0.0,0.0,0.0,0.0,0.0,0.0,0.0,0.0,0.0,0.0,0.0,0.0,0.0,0.0,0.0,0.0,0.0,0.0,0.0,0.0,0.0,0.0,0.0,0.0,0.0,0.0,0.0,0.0,0.0,0.0,0.0,0.0,0.0,0.0,0.0,0.0,0.0,0.0,0.0,0.0,0.0,0.0,0.0,0.0,0.0,0.0,0.0,0.0,0.0,0.0,0.0,0.0,0.0,0.0,0.0,0.0,0.0,0.0,0.0,0.0,0.0,0.0,0.0,0.0,0.0,0.0,0.0,0.0,0.0,0.0,0.0,0.0,0.0,0.0,0.0,0.0,0.0,0.0,0.0,0.0,0.0,0.0,0.0,0.0,0.0,0.0,0.0,0.0,0.0,0.0,0.0,0.0,0.0,0.0,0.0,0.0,0.0,0.0,0.0,0.0,0.0,0.0,0.0,0.0,0.0,0.0,0.0,0.0,0.0,0.0,0.0,0.0,0.0,0.0,0.0,0.0,0.0,0.0,0.0,0.0,0.0,0.0,0.0,0.0,0.0,0.0,0.0,0.0,0.0,0.0,0.0,0.0,0.0,0.0,0.0,0.0,0.0,0.0,0.0,0.0,0.0,0.0,0.0,0.0,0.0,0.0,0.0,0.0,0.0,0.0,0.0,0.0,0.0,0.0,0.0,0.0,0.0,0.0,0.0,0.0,0.0,0.0,0.0,0.0,0.0,0.0,0.0,0.0,0.0,0.0,0.0,0.0,0.0,0.0,0.0,0.0,0.0,0.0,0.0,0.0,0.0,0.0,0.0,0.0,0.0,0.0,0.0,0.0,0.0,0.0,0.0,0.0,0.0,0.0,0.0,0.0,0.0,0.0,0.0,0.0,0.0,0.0,0.0,0.0,0.0,0.0,0.0,0.0,0.0,0.0,0.0,0.0,0.0,0.0,0.0,0.0,0.0,0.0,0.0,0.0,0.0,0.0,0.0,0.0,0.0,0.0,0.0,0.0,0.0,0.0,0.0,0.0,0.0,0.0,0.0,0.0,0.0,0.0,0.0,0.0,0.0,0.0,0.0,0.0,0.0,0.0,0.0,0.0,0.0,0.0,0.0,0.0,0.0,0.0,0.0,0.0,0.0,0.0,0.0,0.0,0.0,0.0,0.0,0.0,0.0,0.0,0.0,0.0,0.0,0.0,0.0,0.0,0.0,0.0,0.0,0.0,0.0,0.0,0.0,0.0,0.0,0.0,0.0,0.0,0.0,0.0,0.0,0.0,0.0,0.0,0.0,0.0,0.0,0.0,0.0,0.0,0.0,0.0,0.0,0.0,0.0,0.0,0.0,0.0,0.0,0.0,0.0,0.0,0.0,0.0,0.0,0.0,0.0,0.0,0.0,0.0,0.0,0.0,0.0,0.0,0.0,0.0,0.0,0.0,0.0,0.0,0.0,0.0,0.0,0.0,0.0,0.0,0.0,0.0,0.0,0.0,0.0,0.0,0.0,0.0,0.0,0.0,0.0,0.0,0.0,0.0,0.0,0.0,0.0,0.0,0.0,0.0,0.0,0.0,0.0,0.0,0.0,0.0,0.0,0.0,0.0,0.0,0.0,0.0,0.0,0.0,0.0,0.0,0.0,0.0,0.0,0.0,0.0,0.0,0.0,0.0,0.0,0.0,0.0,0.0,0.0,0.0,0.0,0.0,0.0,0.0,0.0,0.0,0.0,0.0,0.0,0.0,0.0,0.0,0.0,0.0,0.0,0.0,0.0,0.0,0.0,0.0,0.0,0.0,0.0,0.0,0.0,0.0,0.0,0.0,0.0,0.0,0.0,0.0,0.0,0.0,0.0,0.0,0.0,0.0,0.0,0.0,0.0,0.0,0.0,0.0,0.0,0.0,0.0,0.0,0.0,0.0,0.0,0.0,0.0,0.0,0.0,0.0,0.0,0.0,0.0,0.0,0.0,0.0,0.0,0.0,0.0,0.0,0.0,0.0,0.0,0.0,0.0,0.0,0.0,0.0,0.0,0.0,0.0,0.0,0.0,0.0,0.0,0.0,0.0,0.0,0.0,0.0,0.0,0.0,0.0,0.0,0.0,0.0,0.0,0.0,0.0,0.0,0.0,0.0,0.0,0.0,0.0,0.0,0.0,0.0,0.0,0.0,0.0,0.0,0.0,0.0,0.0,0.0,0.0,0.0,0.0,0.0,0.0,0.0,0.0,0.0,0.0,0.0,0.0,0.0,0.0,0.0,0.0,0.0,0.0,0.0,0.0,0.0,0.0,0.0,0.0,0.0,0.0,0.0,0.0,0.0,0.0,0.0,0.0,0.0,0.0,0.0,0.0,0.0,0.0,0.0,0.0,0.0,2.0069,0.0,0.0,0.0,0.0,0.0,0.0,0.0,0.0,0.0,0.0,0.0,0.0,0.0,0.0,0.0,0.0,0.0,0.0,0.0,0.0,0.0,0.0,0.0,0.0,0.0,0.0,0.0,0.0,0.0,0.0,0.0,0.0,0.0,0.0,0.0,0.0,0.0,0.0,0.0,0.0,0.0,0.0,0.0,0.0,0.0,0.0,0.0,0.0,0.0,0.0,0.0,0.0,0.0,0.0,0.0,0.0,0.0,0.0,0.0,0.0,0.0,0.0,0.0,0.0,0.0,0.0,0.0,0.0,0.0,0.0,0.0,0.0,0.0,0.0,0.0,0.0,0.0,0.0,0.0,0.0,0.0,0.0,0.0,0.0,0.0,0.0,0.0,0.0,0.0,0.0,0.0,0.0,0.0,0.0,0.0,0.0,0.0,0.0,0.0,0.0,0.0,0.0,0.0,0.0,0.0,0.0,0.0,0.0,0.0,0.0,2.2152,2.2279,2.2313,2.1569,2.0103,0.0,0.0,0.0,0.0,0.0,0.0,0.0,0.0,0.0,0.0,0.0,0.0,0.0,0.0,0.0,0.0,0.0,0.0,0.0,0.0,0.0,0.0,0.0,0.0,0.0,0.0,0.0,0.0,0.0,0.0,0.0,0.0,0.0,0.0,0.0,0.0,0.0,0.0,0.0,0.0,0.0,0.0,0.0,0.0,0.0,0.0,0.0,0.0,0.0,0.0,0.0,0.0,0.0,0.0,0.0,0.0,0.0,0.0,0.0,0.0,0.0,0.0,0.0,0.0,0.0,0.0,0.0,0.0,0.0,0.0,0.0,0.0,0.0,0.0,0.0,0.0,0.0,0.0,0.0,0.0,0.0,0.0,0.0,0.0,0.0,0.0,0.0,0.0,0.0,0.0,0.0,0.0,0.0,0.0,0.0,0.0,0.0,0.0,0.0,0.0,0.0,0.0,0.0,0.0,0.0,0.0,0.0,0.0,0.0,0.0,0.0,0.0,2.3057,2.2429,2.1096,0.0,0.0,0.0,0.0,0.0,0.0,0.0,0.0,0.0,0.0,0.0,0.0,0.0,0.0,0.0,0.0,0.0,0.0,0.0,0.0,0.0,0.0,0.0,0.0,0.0,0.0,0.0,0.0,0.0,0.0,0.0,0.0,0.0,0.0,0.0,0.0,0.0,0.0,0.0,0.0,0.0,0.0,0.0,0.0,0.0,0.0,0.0,0.0,0.0,0.0,0.0,0.0,0.0,0.0,0.0,0.0,0.0,0.0,0.0,0.0,0.0,0.0,0.0,0.0,0.0,0.0,0.0,0.0,0.0,0.0,0.0,0.0,0.0,0.0,0.0,0.0,0.0,0.0,0.0,0.0,0.0,0.0,0.0,0.0,0.0,0.0,0.0,0.0,0.0,0.0,0.0,0.0,0.0,0.0,0.0,0.0,0.0,0.0,0.0,0.0,0.0,0.0,0.0,0.0,0.0,0.0,0.0,0.0,0.0,0.0,2.3226,2.5236,2.5254,0.0,2.4135,0.0,0.0,0.0,0.0,0.0,0.0,0.0,0.0,0.0,0.0,0.0,0.0,0.0,0.0,0.0,0.0,0.0,0.0,0.0,0.0,0.0,0.0,0.0,0.0,0.0,0.0,0.0,0.0,0.0,0.0,0.0,0.0,0.0,0.0,0.0,0.0,0.0,0.0,0.0,0.0,0.0,0.0,0.0,0.0,0.0,0.0,0.0,0.0,0.0,0.0,0.0,0.0,0.0,0.0,0.0,0.0,0.0,0.0,0.0,0.0,0.0,0.0,0.0,0.0,0.0,0.0,0.0,0.0,0.0,0.0,0.0,0.0,0.0,0.0,0.0,0.0,0.0,0.0,0.0,0.0,0.0,0.0,0.0,0.0,0.0,0.0,0.0,0.0,0.0,0.0,0.0,0.0,0.0,0.0,0.0,0.0,0.0,0.0,0.0,0.0,0.0,0.0,0.0,0.0,0.0,0.0,0.0,0.0,0.0,0.0,2.4601,2.528,2.4635,2.4154,0.0,0.0,0.0,0.0,0.0,0.0,0.0,0.0,0.0,0.0,0.0,0.0,0.0,0.0,0.0,0.0,0.0,0.0,0.0,0.0,0.0,0.0,0.0,0.0,0.0,0.0,0.0,0.0,0.0,0.0,0.0,0.0,0.0,0.0,0.0,0.0,0.0,0.0,0.0,0.0,0.0,0.0,0.0,0.0,0.0,0.0,0.0,0.0,0.0,0.0,0.0,0.0,0.0,0.0,0.0,0.0,0.0,0.0,0.0,0.0,0.0,0.0,0.0,0.0,0.0,0.0,0.0,0.0,0.0,0.0,0.0,0.0,0.0,0.0,0.0,0.0,0.0,0.0,0.0,0.0,0.0,0.0,0.0,0.0,0.0,0.0,0.0,0.0,0.0,0.0,0.0,0.0,0.0,0.0,0.0,0.0,0.0,0.0,0.0,0.0,0.0,0.0,0.0,0.0,0.0,0.0,0.0,0.0,0.0,0.0,2.4513,0.0,2.5798,2.5259,2.4357,2.3139,0.0,0.0,0.0,0.0,0.0,0.0,0.0,0.0,0.0,0.0,0.0,0.0,0.0,0.0,0.0,0.0,0.0,0.0,0.0,0.0,0.0,0.0,0.0,0.0,0.0,0.0,0.0,0.0,0.0,0.0,0.0,0.0,0.0,0.0,0.0,0.0,0.0,0.0,0.0,0.0,0.0,0.0,0.0,0.0,0.0,0.0,0.0,0.0,0.0,0.0,0.0,0.0,0.0,0.0,0.0,0.0,0.0,0.0,0.0,0.0,0.0,0.0,0.0,0.0,0.0,0.0,0.0,0.0,0.0,0.0,0.0,0.0,0.0,0.0,0.0,0.0,0.0,0.0,0.0,0.0,0.0,0.0,0.0,0.0,0.0,0.0,0.0,0.0,0.0,0.0,0.0,0.0,0.0,0.0,0.0,0.0,0.0,0.0,0.0,0.0,0.0,0.0,0.0,0.0,0.0,0.0,0.0,0.0,0.0,2.5862,2.5949,2.7636,2.8331,2.6725,0.0,0.0,0.0,0.0,0.0,0.0,0.0,0.0,0.0,0.0,0.0,0.0,0.0,0.0,0.0,0.0,0.0,0.0,0.0,0.0,0.0,0.0,0.0,0.0,0.0,0.0,0.0,0.0,0.0,0.0,0.0,0.0,0.0,0.0,0.0,0.0,0.0,0.0,0.0,0.0,0.0,0.0,0.0,0.0,0.0,0.0,0.0,0.0,0.0,0.0,0.0,0.0,0.0,0.0,0.0,0.0,0.0,0.0,0.0,0.0,0.0,0.0,0.0,0.0,0.0,0.0,0.0,0.0,0.0,0.0,0.0,0.0,0.0,0.0,0.0,0.0,0.0,0.0,0.0,0.0,0.0,0.0,0.0,0.0,0.0,0.0,0.0,0.0,0.0,0.0,0.0,0.0,0.0,0.0,0.0,0.0,0.0,0.0,0.0,0.0,0.0,0.0,0.0,0.0,0.0,0.0,0.0,0.0,0.0,2.2625,2.4228,2.6742,2.9876,2.711,2.5126,0.0,0.0,0.0,0.0,0.0,0.0,0.0,0.0,0.0,0.0,0.0,0.0,0.0,0.0,0.0,0.0,0.0,0.0,0.0,0.0,0.0,0.0,0.0,0.0,0.0,0.0,0.0,0.0,0.0,0.0,0.0,0.0,0.0,0.0,0.0,0.0,0.0,0.0,0.0,0.0,0.0,0.0,0.0,0.0,0.0,0.0,0.0,0.0,0.0,0.0,0.0,0.0,0.0,0.0,0.0,0.0,0.0,0.0,0.0,0.0,0.0,0.0,0.0,0.0,0.0,0.0,0.0,0.0,0.0,0.0,0.0,0.0,0.0,0.0,0.0,0.0,0.0,0.0,0.0,0.0,0.0,0.0,0.0,0.0,0.0,0.0,0.0,0.0,0.0,0.0,0.0,0.0,0.0,0.0,0.0,0.0,0.0,0.0,0.0,0.0,0.0,0.0,0.0,0.0,0.0,0.0,0.0,0.0,0.0,2.2399,0.0,2.7774,0.0,2.6512,2.4278,0.0,0.0,0.0,0.0,0.0,0.0,0.0,0.0,0.0,0.0,0.0,0.0,0.0,0.0,0.0,0.0,0.0,0.0,0.0,0.0,0.0,0.0,0.0,0.0,0.0,0.0,0.0,0.0,0.0,0.0,0.0,0.0,0.0,0.0,0.0,0.0,0.0,0.0,0.0,0.0,0.0,0.0,0.0,0.0,0.0,0.0,0.0,0.0,0.0,0.0,0.0,0.0,0.0,0.0,0.0,0.0,0.0,0.0,0.0,0.0,0.0,0.0,0.0,0.0,0.0,0.0,0.0,0.0,0.0,0.0,0.0,0.0,0.0,0.0,0.0,0.0,0.0,0.0,0.0,0.0,0.0,0.0,0.0,0.0,0.0,0.0,0.0,0.0,0.0,0.0,0.0,0.0,0.0,0.0,0.0,0.0,0.0,0.0,0.0,0.0,0.0,0.0,0.0,0.0,0.0,0.0,0.0,0.0,2.3366,2.7377,2.8903,2.8847,2.7183,2.6911,2.4414,0.0,0.0,0.0,0.0,0.0,0.0,0.0,0.0,0.0,0.0,0.0,0.0,0.0,0.0,0.0,0.0,0.0,0.0,0.0,0.0,0.0,0.0,0.0,0.0,0.0,0.0,0.0,0.0,0.0,0.0,0.0,0.0,0.0,0.0,0.0,0.0,0.0,0.0,0.0,0.0,0.0,0.0,0.0,0.0,0.0,0.0,0.0,0.0,0.0,0.0,0.0,0.0,0.0,0.0,0.0,0.0,0.0,0.0,0.0,0.0,0.0,0.0,0.0,0.0,0.0,0.0,0.0,0.0,0.0,0.0,0.0,0.0,0.0,0.0,0.0,0.0,0.0,0.0,0.0,0.0,0.0,0.0,0.0,0.0,0.0,0.0,0.0,0.0,0.0,0.0,0.0,0.0,0.0,0.0,0.0,0.0,0.0,0.0,0.0,0.0,0.0,0.0,0.0,0.0,0.0,0.0,0.0,0.0,0.0,2.522,2.6643,2.834,3.002,2.6185,2.3996,0.0,0.0,0.0,0.0,0.0,0.0,0.0,0.0,0.0,0.0,0.0,0.0,0.0,0.0,0.0,0.0,0.0,0.0,0.0,0.0,0.0,0.0,0.0,0.0,0.0,0.0,0.0,0.0,0.0,0.0,0.0,0.0,0.0,0.0,0.0,0.0,0.0,0.0,0.0,0.0,0.0,0.0,0.0,0.0,0.0,0.0,0.0,0.0,0.0,0.0,0.0,0.0,0.0,0.0,0.0,0.0,0.0,0.0,0.0,0.0,0.0,0.0,0.0,0.0,0.0,0.0,0.0,0.0,0.0,0.0,0.0,0.0,0.0,0.0,0.0,0.0,0.0,0.0,0.0,0.0,0.0,0.0,0.0,0.0,0.0,0.0,0.0,0.0,0.0,0.0,0.0,0.0,0.0,0.0,0.0,0.0,0.0,0.0,0.0,0.0,0.0,0.0,0.0,0.0,0.0,0.0,0.0,0.0,0.0,2.7368,2.8892,3.0394,3.1755,2.7448,2.5065,2.4774,0.0,0.0,0.0,0.0,0.0,0.0,0.0,0.0,0.0,0.0,0.0,0.0,0.0,0.0,0.0,0.0,0.0,0.0,0.0,0.0,0.0,0.0,0.0,0.0,0.0,0.0,0.0,0.0,0.0,0.0,0.0,0.0,0.0,0.0,0.0,0.0,0.0,0.0,0.0,0.0,0.0,0.0,0.0,0.0,0.0,0.0,0.0,0.0,0.0,0.0,0.0,0.0,0.0,0.0,0.0,0.0,0.0,0.0,0.0,0.0,0.0,0.0,0.0,0.0,0.0,0.0,0.0,0.0,0.0,0.0,0.0,0.0,0.0,0.0,0.0,0.0,0.0,0.0,0.0,0.0,0.0,0.0,0.0,0.0,0.0,0.0,0.0,0.0,0.0,0.0,0.0,0.0,0.0,0.0,0.0,0.0,0.0,0.0,0.0,0.0,0.0,0.0,0.0,0.0,0.0,0.0,0.0,0.0,3.2713,3.4782,3.4711,3.2452,3.041,2.7398,0.0,0.0,0.0,0.0,0.0,0.0,0.0,0.0,0.0,0.0,0.0,0.0,0.0,0.0,0.0,0.0,0.0,0.0,0.0,0.0,0.0,0.0,0.0,0.0,0.0,0.0,0.0,0.0,0.0,0.0,0.0,0.0,0.0,0.0,0.0,0.0,0.0,0.0,0.0,0.0,0.0,0.0,0.0,0.0,0.0,0.0,0.0,0.0,0.0,0.0,0.0,0.0,0.0,0.0,0.0,0.0,0.0,0.0,0.0,0.0,0.0,0.0,0.0,0.0,0.0,0.0,0.0,0.0,0.0,0.0,0.0,0.0,0.0,0.0,0.0,0.0,0.0,0.0,0.0,0.0,0.0,0.0,0.0,0.0,0.0,0.0,0.0,0.0,0.0,0.0,0.0,0.0,0.0,0.0,0.0,0.0,0.0,0.0,0.0,0.0,0.0,0.0,0.0,0.0,0.0,0.0,0.0,0.0,0.0,3.3698,3.7809,3.9172,3.7334,3.273,2.9374,0.0,0.0,0.0,0.0,0.0,0.0,0.0,0.0,0.0,0.0,0.0,0.0,0.0,0.0,0.0,0.0,0.0,0.0,0.0,0.0,0.0,0.0,0.0,0.0,0.0,0.0,0.0,0.0,0.0,0.0,0.0,0.0,0.0,0.0,0.0,0.0,0.0,0.0,0.0,0.0,0.0,0.0,0.0,0.0,0.0,0.0,0.0,0.0,0.0,0.0,0.0,0.0,0.0,0.0,0.0,0.0,0.0,0.0,0.0,0.0,0.0,0.0,0.0,0.0,0.0,0.0,0.0,0.0,0.0,0.0,0.0,0.0,0.0,0.0,0.0,0.0,0.0,0.0,0.0,0.0,0.0,0.0,0.0,0.0,0.0,0.0,0.0,0.0,0.0,0.0,0.0,0.0,0.0,0.0,0.0,0.0,0.0,0.0,0.0,0.0,0.0,0.0,0.0,0.0,0.0,0.0,0.0,0.0,3.2815,3.5476,4.0307,4.2319,4.1146,3.598,3.1981,0.0,0.0,0.0,0.0,0.0,0.0,0.0,0.0,0.0,0.0,0.0,0.0,0.0,0.0,0.0,0.0,0.0,0.0,0.0,0.0,0.0,0.0,0.0,0.0,0.0,0.0,0.0,0.0,0.0,0.0,0.0,0.0,0.0,0.0,0.0,0.0,0.0,0.0,0.0,0.0,0.0,0.0,0.0,0.0,0.0,0.0,0.0,0.0,0.0,0.0,0.0,0.0,0.0,0.0,0.0,0.0,0.0,0.0,0.0,0.0,0.0,0.0,0.0,0.0,0.0,0.0,0.0,0.0,0.0,0.0,0.0,0.0,0.0,0.0,0.0,0.0,0.0,0.0,0.0,0.0,0.0,0.0,0.0,0.0,0.0,0.0,0.0,0.0,0.0,0.0,0.0,0.0,0.0,0.0,0.0,0.0,0.0,0.0,0.0,0.0,0.0,0.0,0.0,0.0,0.0,0.0,0.0,0.0,3.5169,3.7584,4.2207,4.4332,4.3593,3.9363,3.4726,0.0,0.0,0.0,0.0,0.0,0.0,0.0,0.0,0.0,0.0,0.0,0.0,0.0,0.0,0.0,0.0,0.0,0.0,0.0,0.0,0.0,0.0,0.0,0.0,0.0,0.0,0.0,0.0,0.0,0.0,0.0,0.0,0.0,0.0,0.0,0.0,0.0,0.0,0.0,0.0,0.0,0.0,0.0,0.0,0.0,0.0,0.0,0.0,0.0,0.0,0.0,0.0,0.0,0.0,0.0,0.0,0.0,0.0,0.0,0.0,0.0,0.0,0.0,0.0,0.0,0.0,0.0,0.0,0.0,0.0,0.0,0.0,0.0,0.0,0.0,0.0,0.0,0.0,0.0,0.0,0.0,0.0,0.0,0.0,0.0,0.0,0.0,0.0,0.0,0.0,0.0,0.0,0.0,0.0,0.0,0.0,0.0,0.0,0.0,0.0,0.0,0.0,0.0,0.0,0.0,0.0,0.0,0.0,3.5793,3.8262,4.2386,4.4548,4.4394,3.9646,3.5414,0.0,0.0,0.0,0.0,0.0,0.0,0.0,0.0,0.0,0.0,0.0,0.0,0.0,0.0,0.0,0.0,0.0,0.0,0.0,0.0,0.0,0.0,0.0,0.0,0.0,0.0,0.0,0.0,0.0,0.0,0.0,0.0,0.0,0.0,0.0,0.0,0.0,0.0,0.0,0.0,0.0,0.0,0.0,0.0,0.0,0.0,0.0,0.0,2.2139,0.0,0.0,0.0,0.0,0.0,0.0,0.0,0.0,0.0,0.0,0.0,0.0,0.0,0.0,0.0,0.0,0.0,0.0,0.0,0.0,0.0,0.0,0.0,0.0,0.0,0.0,0.0,0.0,0.0,0.0,0.0,0.0,0.0,0.0,0.0,0.0,0.0,0.0,0.0,0.0,0.0,0.0,0.0,0.0,0.0,0.0,0.0,0.0,0.0,0.0,0.0,0.0,0.0,0.0,0.0,0.0,0.0,0.0,0.0,3.7404,4.0163,4.3443,4.5247,4.5243,4.1223,3.7051,0.0,0.0,0.0,0.0,0.0,0.0,0.0,0.0,0.0,0.0,0.0,0.0,0.0,0.0,0.0,0.0,0.0,0.0,0.0,0.0,0.0,0.0,0.0,0.0,0.0,0.0,0.0,0.0,0.0,0.0,0.0,0.0,0.0,0.0,0.0,0.0,0.0,0.0,0.0,0.0,0.0,0.0,0.0,0.0,0.0,0.0,0.0,0.0,0.0,0.0,0.0,0.0,0.0,0.0,0.0,0.0,0.0,0.0,0.0,0.0,0.0,0.0,0.0,0.0,0.0,0.0,0.0,0.0,0.0,0.0,0.0,0.0,0.0,0.0,0.0,0.0,0.0,0.0,0.0,0.0,0.0,0.0,0.0,0.0,0.0,0.0,0.0,0.0,0.0,0.0,0.0,0.0,0.0,0.0,0.0,0.0,0.0,0.0,0.0,0.0,0.0,0.0,0.0,0.0,0.0,0.0,0.0,3.5106,3.8998,4.2567,4.4701,4.5941,4.6131,4.2905,3.8717,3.3692,0.0,0.0,0.0,0.0,0.0,0.0,0.0,0.0,0.0,0.0,0.0,0.0,0.0,0.0,0.0,0.0,0.0,0.0,0.0,0.0,0.0,0.0,0.0,0.0,0.0,0.0,0.0,0.0,0.0,0.0,0.0,0.0,0.0,0.0,0.0,0.0,0.0,0.0,2.0042,2.1042,0.0,0.0,0.0,0.0,0.0,0.0,0.0,0.0,2.1793,0.0,0.0,0.0,0.0,0.0,0.0,0.0,0.0,0.0,0.0,0.0,0.0,0.0,0.0,0.0,0.0,0.0,0.0,0.0,0.0,0.0,0.0,0.0,0.0,0.0,0.0,0.0,0.0,0.0,0.0,0.0,0.0,0.0,0.0,0.0,0.0,0.0,0.0,0.0,0.0,0.0,0.0,0.0,0.0,0.0,0.0,0.0,0.0,0.0,0.0,0.0,0.0,0.0,0.0,0.0,0.0,3.5781,3.5975,3.8959,4.5029,4.557,4.5832,4.5773,4.2768,3.8873,3.4143,0.0,0.0,0.0,0.0,0.0,0.0,0.0,0.0,0.0,0.0,0.0,0.0,0.0,0.0,0.0,0.0,0.0,0.0,0.0,0.0,0.0,0.0,0.0,0.0,0.0,0.0,0.0,0.0,0.0,0.0,0.0,0.0,0.0,0.0,0.0,0.0,0.0,0.0,0.0,2.3671,2.4102,0.0,0.0,0.0,0.0,0.0,0.0,0.0,0.0,2.3257,0.0,0.0,0.0,0.0,0.0,0.0,0.0,0.0,0.0,0.0,0.0,0.0,0.0,0.0,0.0,0.0,0.0,0.0,0.0,0.0,0.0,0.0,0.0,0.0,0.0,0.0,0.0,0.0,0.0,0.0,0.0,0.0,0.0,0.0,0.0,0.0,0.0,0.0,0.0,0.0,0.0,0.0,0.0,0.0,0.0,0.0,0.0,0.0,0.0,0.0,0.0,0.0,0.0,0.0,0.0,3.4931,3.793,4.1501,4.5861,4.6298,4.6369,4.6272,4.2132,3.8187,0.0,0.0,0.0,0.0,0.0,0.0,0.0,0.0,0.0,0.0,0.0,0.0,0.0,0.0,0.0,0.0,0.0,0.0,0.0,0.0,0.0,0.0,0.0,0.0,0.0,0.0,0.0,0.0,0.0,0.0,0.0,0.0,0.0,0.0,0.0,0.0,0.0,0.0,0.0,0.0,2.5118,2.5834,2.7218,0.0,0.0,0.0,0.0,0.0,0.0,2.4395,2.3648,0.0,0.0,0.0,0.0,0.0,0.0,0.0,0.0,0.0,0.0,0.0,0.0,0.0,0.0,0.0,0.0,0.0,0.0,0.0,0.0,0.0,0.0,0.0,0.0,0.0,0.0,0.0,0.0,0.0,0.0,0.0,0.0,0.0,0.0,0.0,0.0,0.0,0.0,0.0,0.0,0.0,0.0,0.0,0.0,0.0,0.0,0.0,0.0,0.0,0.0,0.0,0.0,0.0,0.0,0.0,3.3732,3.9227,4.3525,4.6424,4.6894,4.7132,4.707,4.1879,3.7755,0.0,0.0,0.0,0.0,0.0,0.0,0.0,0.0,0.0,0.0,0.0,0.0,0.0,0.0,0.0,0.0,0.0,0.0,0.0,0.0,0.0,0.0,0.0,0.0,0.0,0.0,0.0,0.0,0.0,0.0,0.0,0.0,0.0,0.0,0.0,0.0,0.0,0.0,0.0,0.0,0.0,2.7987,2.9162,2.8572,0.0,0.0,0.0,0.0,2.614,2.5723,0.0,0.0,0.0,0.0,0.0,0.0,0.0,0.0,0.0,0.0,0.0,0.0,0.0,0.0,0.0,0.0,0.0,0.0,0.0,0.0,0.0,0.0,0.0,0.0,0.0,0.0,0.0,0.0,0.0,0.0,0.0,0.0,0.0,0.0,0.0,0.0,0.0,0.0,0.0,0.0,0.0,0.0,0.0,0.0,0.0,0.0,0.0,0.0,0.0,0.0,0.0,0.0,0.0,0.0,0.0,0.0,3.4478,3.8084,4.2348,4.7242,4.7571,4.7803,4.8158,4.2962,3.8664,0.0,0.0,0.0,0.0,0.0,0.0,0.0,0.0,0.0,0.0,0.0,0.0,0.0,0.0,0.0,0.0,0.0,0.0,0.0,0.0,0.0,0.0,0.0,0.0,0.0,0.0,0.0,0.0,0.0,0.0,0.0,0.0,0.0,0.0,0.0,0.0,0.0,0.0,0.0,0.0,0.0,3.1067,2.9353,2.9669,2.9669,0.0,0.0,2.9501,2.9976,3.0821,0.0,0.0,0.0,0.0,0.0,0.0,0.0,0.0,0.0,0.0,0.0,0.0,0.0,0.0,0.0,0.0,0.0,0.0,0.0,0.0,0.0,0.0,0.0,0.0,0.0,0.0,0.0,0.0,0.0,0.0,0.0,0.0,0.0,0.0,0.0,0.0,0.0,0.0,0.0,0.0,0.0,0.0,0.0,0.0,0.0,0.0,0.0,0.0,0.0,0.0,0.0,0.0,0.0,0.0,0.0,2.9827,3.4399,3.9722,4.4202,4.7539,4.7704,4.7605,4.7431,4.1621,3.7053,0.0,0.0,0.0,0.0,0.0,0.0,0.0,0.0,0.0,0.0,0.0,0.0,0.0,0.0,0.0,0.0,0.0,0.0,0.0,0.0,0.0,0.0,0.0,0.0,0.0,0.0,0.0,0.0,0.0,0.0,0.0,0.0,0.0,0.0,0.0,0.0,0.0,0.0,0.0,0.0,0.0,0.0,3.2438,3.267,0.0,0.0,0.0,3.155,3.1403,0.0,0.0,0.0,0.0,0.0,0.0,0.0,0.0,0.0,0.0,0.0,0.0,0.0,0.0,0.0,0.0,0.0,0.0,0.0,0.0,0.0,0.0,0.0,0.0,0.0,0.0,0.0,0.0,0.0,0.0,0.0,0.0,0.0,0.0,0.0,0.0,0.0,0.0,0.0,0.0,0.0,0.0,0.0,0.0,0.0,0.0,0.0,0.0,0.0,0.0,0.0,0.0,0.0,0.0,0.0,0.0,0.0,3.4365,4.1221,4.5733,4.7605,4.7803,4.7602,4.6993,4.1531,0.0,0.0,0.0,0.0,0.0,0.0,0.0,0.0,0.0,0.0,0.0,0.0,0.0,0.0,0.0,0.0,0.0,0.0,0.0,0.0,0.0,0.0,0.0,0.0,0.0,0.0,0.0,1.5132,0.0,0.0,0.0,0.0,0.0,0.0,0.0,0.0,0.0,0.0,0.0,0.0,0.0,0.0,3.2391,3.4423,3.5125,3.5462,0.0,0.0,3.3396,3.2883,3.3066,3.1898,0.0,0.0,0.0,0.0,0.0,0.0,0.0,0.0,0.0,0.0,0.0,0.0,0.0,0.0,0.0,0.0,0.0,0.0,0.0,0.0,0.0,0.0,0.0,0.0,0.0,0.0,0.0,0.0,0.0,0.0,0.0,0.0,0.0,0.0,0.0,0.0,0.0,0.0,0.0,0.0,0.0,0.0,0.0,0.0,0.0,0.0,0.0,0.0,0.0,0.0,0.0,0.0,0.0,0.0,0.0,3.4838,4.1401,4.5733,4.7638,4.8129,4.8238,4.795,4.449,4.0175,0.0,0.0,0.0,0.0,0.0,0.0,0.0,0.0,0.0,0.0,0.0,0.0,0.0,0.0,0.0,0.0,0.0,0.0,0.0,0.0,0.0,0.0,0.0,0.0,0.0,0.0,0.0,0.0,0.0,0.0,0.0,0.0,0.0,0.0,0.0,0.0,0.0,0.0,0.0,0.0,0.0,3.4693,3.3507,3.6043,3.79,0.0,0.0,3.5473,3.5252,3.675,3.5759,2.9475,0.0,0.0,0.0,0.0,0.0,0.0,0.0,0.0,0.0,0.0,0.0,0.0,0.0,0.0,0.0,0.0,0.0,0.0,0.0,0.0,0.0,0.0,0.0,0.0,0.0,0.0,0.0,0.0,0.0,0.0,0.0,0.0,0.0,0.0,0.0,0.0,0.0,0.0,0.0,0.0,0.0,0.0,0.0,0.0,0.0,0.0,0.0,0.0,0.0,0.0,0.0,0.0,0.0,3.1491,3.4431,4.1547,4.6157,4.803,4.8637,4.8557,4.7866,4.5142,4.0786,0.0,0.0,0.0,0.0,0.0,0.0,0.0,0.0,0.0,0.0,0.0,0.0,0.0,0.0,0.0,0.0,0.0,0.0,0.0,0.0,0.0,0.0,0.0,0.0,0.0,0.0,0.0,0.0,2.076,2.1486,2.1874,0.0,0.0,0.0,0.0,0.0,0.0,0.0,0.0,0.0,0.0,3.5523,3.7266,3.8402,0.0,0.0,3.8034,3.7155,3.6887,3.6463,3.4718,3.046,2.8427,0.0,0.0,0.0,0.0,0.0,0.0,0.0,0.0,0.0,0.0,0.0,0.0,0.0,0.0,0.0,0.0,0.0,0.0,0.0,0.0,0.0,0.0,0.0,0.0,0.0,0.0,0.0,0.0,0.0,0.0,0.0,0.0,0.0,0.0,0.0,0.0,0.0,0.0,0.0,0.0,0.0,0.0,0.0,0.0,0.0,0.0,0.0,0.0,0.0,0.0,0.0,0.0,3.1559,3.4537,4.1632,4.6317,4.8351,4.8762,4.8583,4.782,4.5795,4.1812,0.0,0.0,0.0,0.0,0.0,0.0,0.0,0.0,0.0,0.0,0.0,0.0,0.0,0.0,0.0,0.0,0.0,0.0,0.0,0.0,0.0,0.0,0.0,0.0,0.0,0.0,0.0,0.0,2.2366,2.2829,2.2336,0.0,0.0,0.0,0.0,0.0,0.0,0.0,0.0,0.0,0.0,3.6691,3.9287,3.9542,3.9447,3.9447,3.8537,3.7682,3.7234,3.6142,3.4482,3.1866,0.0,0.0,0.0,0.0,0.0,0.0,0.0,0.0,0.0,0.0,0.0,0.0,0.0,0.0,0.0,0.0,0.0,0.0,0.0,0.0,0.0,0.0,0.0,0.0,0.0,0.0,0.0,1.6363,0.0,0.0,1.5263,0.0,0.0,0.0,0.0,0.0,0.0,0.0,0.0,0.0,0.0,0.0,0.0,0.0,0.0,0.0,0.0,0.0,0.0,0.0,0.0,0.0,0.0,3.1924,3.5566,4.1697,4.5996,4.8318,4.8416,4.8363,4.8069,4.6783,4.3947,3.9386,0.0,0.0,0.0,0.0,0.0,0.0,0.0,0.0,0.0,0.0,0.0,0.0,0.0,0.0,0.0,0.0,0.0,0.0,0.0,0.0,0.0,0.0,0.0,0.0,0.0,0.0,1.958,2.1165,2.2286,0.0,0.0,0.0,0.0,0.0,0.0,0.0,0.0,0.0,0.0,3.5861,3.8446,3.8536,3.899,3.9103,3.8427,3.759,3.6791,3.6152,3.6325,3.5957,0.0,0.0,0.0,0.0,0.0,0.0,0.0,0.0,0.0,0.0,0.0,0.0,0.0,0.0,0.0,0.0,0.0,0.0,0.0,0.0,0.0,0.0,0.0,0.0,0.0,0.0,0.0,1.9924,1.8857,0.0,0.0,0.0,0.0,0.0,0.0,0.0,0.0,0.0,0.0,0.0,2.9869,3.1673,0.0,0.0,0.0,0.0,0.0,0.0,0.0,0.0,0.0,0.0,0.0,0.0,3.2955,3.5531,4.2708,4.7132,4.8383,4.9104,4.9159,4.8436,4.7501,4.4358,3.873,0.0,0.0,0.0,0.0,0.0,0.0,0.0,0.0,0.0,0.0,0.0,0.0,0.0,0.0,0.0,0.0,0.0,0.0,0.0,0.0,0.0,0.0,0.0,0.0,0.0,2.1535,0.0,0.0,0.0,0.0,0.0,0.0,0.0,0.0,0.0,0.0,0.0,3.2228,3.5368,3.6969,3.8169,3.9062,3.9302,3.9484,0.0,0.0,0.0,0.0,0.0,0.0,0.0,0.0,0.0,0.0,0.0,0.0,0.0,0.0,3.4053,2.9741,2.9235,2.9507,2.9507,0.0,0.0,0.0,0.0,0.0,0.0,0.0,0.0,0.0,0.0,0.0,0.0,0.0,0.0,2.3713,0.0,2.1851,0.0,0.0,0.0,0.0,0.0,0.0,0.0,0.0,3.1387,3.3208,3.3979,3.5642,3.5868,0.0,3.4951,3.2085,0.0,0.0,0.0,0.0,0.0,0.0,0.0,0.0,3.4206,3.6769,4.3718,4.79,4.8948,4.9411,4.9473,4.9079,4.7723,4.468,3.9695,3.5667,3.2036,0.0,0.0,0.0,0.0,0.0,0.0,0.0,0.0,0.0,0.0,0.0,0.0,0.0,0.0,0.0,0.0,0.0,0.0,0.0,0.0,0.0,0.0,0.0,2.249,0.0,0.0,0.0,0.0,0.0,0.0,0.0,0.0,0.0,3.0166,3.269,3.5614,3.8539,3.9123,3.9339,3.9493,0.0,0.0,0.0,0.0,0.0,0.0,0.0,3.6219,3.6077,3.5741,3.5709,3.642,3.8187,3.929,3.8841,0.0,0.0,3.3963,3.3305,3.3543,3.3543,3.4262,3.4801,3.4592,3.5609,3.651,0.0,0.0,0.0,0.0,0.0,0.0,0.0,0.0,2.748,2.7642,0.0,2.5383,0.0,0.0,0.0,0.0,0.0,2.9536,0.0,0.0,3.7436,3.9242,3.875,3.9315,3.9721,3.9882,3.949,3.8314,3.6205,3.2175,0.0,0.0,0.0,0.0,0.0,0.0,3.5669,3.9282,4.4668,4.824,4.9796,4.9354,4.932,4.9815,4.7461,4.4926,4.2414,3.9512,3.6603,3.3626,2.8617,0.0,0.0,0.0,0.0,0.0,0.0,0.0,0.0,0.0,0.0,0.0,0.0,0.0,0.0,0.0,0.0,0.0,0.0,0.0,0.0,2.1997,0.0,0.0,0.0,0.0,0.0,0.0,0.0,0.0,0.0,0.0,3.386,3.6476,3.9277,4.1247,0.0,0.0,0.0,0.0,3.9123,3.7954,3.7677,3.7738,3.7798,3.8971,4.0097,4.0722,0.0,0.0,4.0756,4.1115,4.1175,3.9918,4.1705,4.2542,3.9971,3.8482,3.7734,3.7704,3.7793,3.7913,3.8512,3.9619,4.0636,3.3327,0.0,0.0,0.0,0.0,2.973,3.0489,3.1899,3.1723,3.1149,3.0251,2.9608,0.0,0.0,0.0,0.0,0.0,0.0,3.4708,3.7985,3.8943,4.0187,4.1765,4.2056,4.2219,4.2315,4.2758,4.2602,4.1813,4.035,3.5573,2.7867,0.0,0.0,0.0,0.0,3.8044,4.0996,4.5666,4.8373,4.8858,4.9411,4.9443,4.8866,4.7413,4.5784,4.4005,4.1576,3.914,3.6681,3.278,0.0,0.0,0.0,0.0,0.0,0.0,0.0,0.0,0.0,0.0,0.0,0.0,0.0,0.0,0.0,0.0,0.0,0.0,0.0,2.2563,2.3763,2.4594,0.0,0.0,0.0,0.0,0.0,0.0,0.0,0.0,0.0,3.9801,3.9493,3.9582,0.0,0.0,3.9493,3.8877,3.9582,4.0413,4.1063,4.1124,0.0,4.2016,4.1401,4.0891,4.122,4.2659,4.3778,4.3868,4.4466,4.4796,4.4347,4.4556,4.4466,4.3808,4.3329,4.3,4.303,4.303,4.309,4.3299,4.3658,4.3928,3.8602,3.5008,3.3301,3.3134,3.4013,3.3915,3.4508,3.5593,3.528,3.4957,3.4576,3.3854,3.3516,3.3515,3.3106,0.0,0.0,0.0,3.8234,4.1476,4.1128,4.1826,4.3419,4.3596,4.3865,4.4282,4.4737,4.5039,4.5207,4.4429,4.0667,3.4068,0.0,0.0,3.338,3.7425,4.0672,4.3095,4.6781,4.8824,4.9043,4.959,4.9335,4.8235,4.7063,4.5857,4.4649,4.2692,4.0865,3.9276,3.5809,3.2122,0.0,0.0,0.0,0.0,0.0,0.0,0.0,0.0,0.0,0.0,0.0,2.1228,1.8838,0.0,0.0,0.0,2.2717,2.4102,2.558,2.6934,0.0,0.0,0.0,0.0,0.0,0.0,0.0,3.6476,3.9277,4.1678,4.3156,4.2294,4.1863,4.2817,4.1986,4.1124,4.057,0.0,4.2325,4.291,4.3002,4.3297,4.4083,4.3678,4.3373,4.3767,4.4717,4.5574,4.6022,4.6441,4.6711,4.6681,4.6381,4.6082,4.6082,4.6082,4.5903,4.5394,4.5274,4.5364,4.5633,4.5693,4.5753,4.3152,4.2982,3.9697,3.8266,3.8116,3.8616,3.8728,3.8514,3.8514,3.9072,3.9854,3.814,3.8028,3.9127,3.8225,0.0,4.0205,4.0838,4.2061,4.3762,4.3791,4.4001,4.4325,4.4438,4.4886,4.5792,4.5801,4.6163,4.6828,4.5597,4.3913,4.1871,4.048,3.9379,3.8663,4.098,4.3227,4.5198,4.7635,4.9304,4.9947,4.9772,4.9065,4.7864,4.6559,4.5399,4.4445,4.2902,4.1726,4.0991,3.7677,3.479,3.255,0.0,0.0,0.0,0.0,0.0,0.0,0.0,0.0,0.0,0.0,0.0,0.0,0.0,0.0,0.0,2.7888,0.0,2.9894,3.1059,0.0,0.0,0.0,3.4414,3.5922,3.8415,4.0478,4.1678,0.0,0.0,4.4856,4.4887,4.5311,4.6665,4.608,4.5064,4.387,4.424,4.4548,4.4024,4.3994,4.4271,4.5018,4.5721,4.6376,4.7093,4.7409,4.7219,4.7219,4.7249,4.7309,4.7279,4.7309,4.7279,4.7279,4.7219,4.692,4.5723,4.5514,4.5663,4.6262,4.6381,4.6561,4.5757,4.6181,4.5337,4.3965,4.2345,4.2658,4.2788,4.2735,4.2944,4.3118,4.3264,4.2406,4.2159,4.2467,4.2434,4.2905,4.369,4.3835,4.4414,4.5328,4.5505,4.565,4.5765,4.6027,4.631,4.656,4.6593,4.6754,4.686,4.657,4.5597,4.4075,4.3686,4.2067,3.9408,4.0921,4.2951,4.5417,4.6444,4.789,4.9703,4.9471,4.8647,4.7233,4.623,4.4846,4.2895,4.103,3.9914,3.9687,3.6521,3.4002,3.2481,2.7761,0.0,0.0,0.0,0.0,0.0,0.0,0.0,0.0,0.0,2.7211,2.1935,0.0,2.7919,0.0,3.0228,3.2906,3.466,3.5091,0.0,0.0,3.7523,3.8262,4.0662,4.2817,4.4079,4.3864,4.5957,4.7465,4.7619,4.7219,4.7404,4.8696,4.6542,4.4733,4.4425,4.5372,4.608,4.5988,4.6665,4.7384,4.7354,4.7277,4.7359,4.7563,4.7439,4.7309,4.7309,4.7309,4.7309,4.7309,4.7309,4.7309,4.7309,4.7309,4.7219,4.689,4.683,4.686,4.704,4.707,4.71,4.7661,4.8244,4.8408,4.7566,4.6013,4.5447,4.5023,4.4758,4.4649,4.4864,4.5238,4.4984,4.4954,4.5049,4.4893,4.5024,4.5388,4.5727,4.6153,4.6521,4.6971,4.7269,4.7374,4.7582,4.7596,4.7321,4.7397,4.7216,4.6927,4.6927,4.6471,4.5726,4.5726,4.4431,4.2001,4.2185,4.3262,4.5083,4.6267,4.7529,4.8924,4.8809,4.75,4.5032,4.4439,4.2828,3.9952,3.8757,3.7869,3.7142,3.4959,3.3476,3.291,2.9106,2.6726,0.0,0.0,0.0,0.0,0.0,0.0,0.0,0.0,0.0,0.0,0.0,3.149,3.1059,3.4137,3.6722,3.8138,3.9093,4.0232,4.1617,4.2263,4.3279,4.5095,4.6819,4.7835,4.7773,4.882,4.9651,4.9928,4.9404,4.9127,4.962,4.805,4.6726,4.648,4.7065,4.7496,4.7558,4.8112,4.8563,4.8438,4.8049,4.7794,4.7752,4.7525,4.7309,4.7309,4.7309,4.7309,4.7309,4.7309,4.7309,4.7309,4.7309,4.7309,4.7309,4.7309,4.7309,4.7309,4.7309,4.7309,4.9295,4.9968,5.024,4.9985,4.923,4.7716,4.6463,4.5521,4.498,4.5352,4.6262,4.6614,4.6766,4.6749,4.6243,4.5953,4.5985,4.6784,4.7219,4.7233,4.8221,4.8773,4.8913,4.8966,4.8717,4.8249,4.8091,4.767,4.7089,4.6959,4.6795,4.6633,4.6668,4.5955,4.4626,4.3768,4.3739,4.4665,4.6408,4.7529,4.7937,4.7767,4.588,4.2354,4.2049,4.0324,3.6863,3.6658,3.6027,3.4633,3.374,3.3543,3.3937,3.0868,2.9304,0.0,2.7603,0.0,0.0,0.0,0.0,0.0,0.0,0.0,0.0,3.5152,3.5706,3.6353,3.8692,4.0509,4.1304,4.3125,4.4479,4.5187,4.688,4.8235,4.885,5.002,5.1036,5.1621,5.1251,5.119,5.1682,5.1251,5.0574,5.0112,4.9805,4.9343,4.8974,4.8666,4.8512,4.8604,4.8604,4.8563,4.8521,4.826,4.8007,4.7964,4.7581,4.7309,4.7309,4.7309,4.7309,4.7309,4.7309,4.7309,4.7309,4.7309,4.7309,4.7309,4.7309,4.7309,4.7309,4.7309,4.7309,5.1727,5.2718,5.2771,5.2439,5.1838,5.0995,4.8924,4.6177,4.5834,4.6049,4.6735,4.7825,4.7764,4.6807,4.6662,4.6359,4.5985,4.6784,4.7219,4.7276,4.8913,4.9655,4.9686,4.9833,4.9821,4.9645,4.8544,4.7929,4.7799,4.7184,4.6309,4.5208,4.5208,4.4659,4.3633,0.0,0.0,0.0,4.5618,4.6548,4.7126,4.5919,4.4033,4.1508,4.0857,0.0,3.6039,3.6028,3.5714,3.4811,3.4865,0.0,0.0,0.0,0.0,0.0,0.0,0.0,0.0,0.0,0.0,0.0,3.6384,3.5861,3.6168,3.8631,4.0539,4.1247,4.2694,4.4356,4.608,4.7096,4.7927,4.8666,4.9558,5.0174,5.0328,5.1036,5.159,5.1682,5.2052,5.2359,5.2421,5.1929,5.1467,5.1251,5.0851,5.0482,5.0297,4.9312,4.8635,4.8604,4.8604,4.8604,4.8604,4.8229,4.8007,4.7964,4.7581,4.7352,4.7309,4.7309,4.7309,4.7309,4.7309,4.7309,4.7309,4.7309,4.7309,4.7309,4.7309,4.7309,4.7309,4.7309,4.7309,5.2759,5.3319,5.3424,5.2978,0.0,5.1439,4.9774,4.7565,4.7706,4.7927,4.8275,4.8595,4.8315,4.7695,4.6825,4.6241,4.5946,4.6273,4.676,4.7527,4.8825,4.9853,5.0563,5.0591,5.0455,5.0098,4.9386,4.8673,4.8026,4.7637,4.6892,4.5824,4.5824,4.5701,4.5498,4.5432,4.5412,4.5437,4.617,4.6828,4.7382,4.6646,4.4959,4.2422,4.2347,0.0,0.0,0.0,0.0,0.0,0.0,0.0,0.0,0.0,0.0,3.8032,3.7077,3.6968,3.8088,3.8328,3.9462,4.1801,4.2294,4.1771,4.0173,4.2479,4.4356,4.5003,4.5711,4.6788,4.8419,4.8943,4.9435,5.0112,5.079,5.119,5.1251,5.1775,5.2206,5.2206,5.2483,5.2729,5.2729,5.2452,5.2052,5.1744,5.1405,5.1067,5.0667,4.9805,4.9066,4.8696,4.8604,4.8604,4.8563,4.826,4.8007,4.7964,4.7581,4.7352,4.7309,4.7309,4.7309,4.7309,4.7309,4.7309,4.7309,4.7309,4.7309,4.7309,4.7309,4.7309,4.7309,4.7309,4.7309,5.316,5.316,5.3424,5.292,5.1904,5.1265,5.0336,4.9214,0.0,0.0,0.0,4.903,4.8827,4.8613,4.7303,4.6599,4.6399,4.6501,4.7113,4.813,4.8983,5.0034,5.1205,5.1237,5.0876,5.0293,5.0163,4.9515,4.8414,4.8155,4.7702,4.7119,4.6957,4.7098,4.7438,4.7638,4.7369,4.6712,4.6824,4.717,4.7699,4.7462,4.6075,4.3477,4.391,4.2956,4.0451,4.1001,4.0832,3.9648,3.9402,3.9792,4.0793,4.0056,4.0283,4.1818,4.1564,4.1847,4.3008,4.3618,4.4548,4.5865,4.7096,4.6788,4.4486,4.5926,4.7188,4.7742,4.7896,4.845,4.9589,4.9928,5.0266,5.0851,5.1467,5.1898,5.1898,5.2359,5.2698,5.2729,5.2698,5.2729,5.2729,5.2698,5.2513,5.2052,5.1898,5.1621,5.0944,5.0174,4.9435,4.8974,4.8758,4.8604,4.8521,4.8343,4.8049,4.8007,4.7624,4.7352,4.7309,4.7309,4.7309,4.7309,4.7309,4.7309,4.7309,4.7309,4.7309,4.7309,4.7439,4.7538,4.7538,4.7666,4.7764,5.3477,5.3477,5.3477,5.3413,5.321,5.2572,5.1875,5.1091,4.9553,4.8566,4.8101,4.9117,4.9233,4.8759,4.9334,4.897,4.8025,4.9439,4.9931,4.9662,5.0466,5.0973,5.1205,5.1237,5.1135,5.1005,5.039,5.0001,4.971,4.8609,4.7929,4.7799,4.7216,4.6789,4.6617,4.7572,4.7835,4.7276,4.6378,4.6277,4.6921,4.5703,4.4553,4.3443,4.2963,4.2151,4.1102,4.1813,4.2049,4.188,4.2501,4.3248,4.3949,4.3395,4.3341,4.4161,4.4117,4.4346,4.5133,4.5249,4.5895,4.7188,4.805,4.805,4.7188,4.7835,4.8358,4.8481,4.8974,4.9435,4.9743,5.0728,5.1374,5.159,5.2144,5.2544,5.2544,5.2637,5.2729,5.2729,5.2729,5.2729,5.2729,5.2729,5.2667,5.2575,5.2483,5.2298,5.1559,5.0482,4.9743,4.9466,4.9004,4.8666,4.8655,4.8427,4.8248,4.8007,4.7752,4.7452,4.7352,4.7309,4.7309,4.7309,4.7309,4.7309,4.7352,4.7309,4.7439,4.7525,4.7976,4.8366,4.8449,4.8872,4.9197,5.35,5.35,5.35,5.35,5.3471,5.321,5.2717,5.2078,5.1207,5.0249,4.9407,4.9582,4.9833,4.9976,4.9824,4.9713,4.9623,4.9409,4.9571,4.9993,4.9978,5.0455,5.1172,5.1237,5.1237,5.1167,5.0843,5.0487,5.0066,4.9451,4.8965,4.8544,4.7904,4.7456,4.7268,4.7836,4.8193,4.8258,4.7812,4.7723,4.797,4.7327,4.6786,4.6418,4.6109,4.5771,4.5466,4.5771,4.594,4.594,4.6312,4.6483,4.6442,4.616,4.5943,4.5801,4.5776,4.5832,4.6119,4.648,4.7096,4.8081,4.8419,4.8481,4.8173,4.845,4.8758,4.9158,4.9497,4.9989,5.0697,5.1344,5.1867,5.2206,5.2544,5.2698,5.2729,5.2729,5.2729,5.2729,5.2729,5.2729,5.2729,5.2729,5.2729,5.2729,5.2729,5.2575,5.2267,5.1436,5.0636,5.0297,4.9928,4.962,4.9281,4.9021,4.8668,4.8236,4.7837,4.7581,4.7452,4.7396,4.7352,4.7309,4.7309,4.7495,4.788,4.8019,4.8187,4.8625,4.8913,4.9237,4.9327,4.9915,5.0151,5.3646,5.35,5.35,5.35,5.35,5.35,5.3239,5.2775,5.2652,5.1933,5.0888,5.0191,5.0367,5.1006,5.0388,5.0556,5.1029,5.001,4.9969,5.0681,5.0066,5.0325,5.1297,5.1264,5.1237,5.1237,5.1237,5.0876,5.039,5.0196,4.9779,4.9138,4.873,4.8387,4.8134,4.833,4.8552,4.8767,4.9015,4.9107,4.9018,4.9018,4.9018,4.9018,4.8984,4.9018,4.9018,4.8829,4.8767,4.8767,4.8576,4.8258,4.7704,4.7637,4.735,4.6787,4.6711,4.6708,4.6868,4.7465,4.805,4.8543,4.8604,4.8696,4.882,4.885,4.9066,4.9589,4.9835,5.042,5.1436,5.1867,5.2144,5.2667,5.2729,5.2729,5.2729,5.2729,5.2729,5.2729,5.2729,5.2729,5.2729,5.2729,5.2729,5.2729,5.2729,5.2729,5.2637,5.2236,5.1713,5.1282,5.0913,5.0623,5.0213,4.9892,4.9583,4.9058,4.8666,4.848,4.8282,4.8061,4.7892,4.7976,4.7934,4.8321,4.8934,4.8965,4.9169,4.9747,5.0034,5.019,5.0461,5.0951,5.121,5.4052,5.3559,5.353,5.35,5.35,5.35,5.3471,5.3326,5.2833,5.2194,5.1497,5.0859,5.0827,5.1216,5.188,5.2381,5.2786,5.3455,5.3434,5.2916,5.2268,5.1977,5.2041,5.1491,5.1237,5.1237,5.1199,5.1135,5.1005,5.0422,4.9888,4.9559,4.9499,4.9073,4.859,4.9094,4.8991,4.8065,4.8671,4.8984,4.9018,4.9018,4.9018,4.9018,4.9018,4.9018,4.8923,4.8321,4.7999,4.7967,4.7405,4.6999,4.6927,4.6845,4.6824,4.6728,4.6648,4.6868,4.7465,4.8142,4.8543,4.8604,4.8635,4.8912,4.9466,4.9589,4.9589,4.9835,5.0266,5.0913,5.1652,5.2236,5.2575,5.2667,5.2729,5.2729,5.2729,5.2729,5.2729,5.2729,5.2729,5.2729,5.2729,5.2729,5.2729,5.2729,5.2729,5.2729,5.2698,5.274,5.2617,5.2325,5.1603,5.1219,5.1455,5.12,5.0934,5.116,5.0689,5.0082,4.9749,4.959,4.9527,4.9147,4.9461,4.9689,5.0173,5.0191,4.9978,5.0763,5.107,5.1177,5.1908,5.2125,5.2053,5.4342,5.4052,5.3675,5.35,5.35,5.35,5.35,5.3471,5.3239,5.2775,5.2238,5.2091,5.2031,5.2018,5.2426,5.3215,5.4319,5.4406,5.4244,5.392,5.3207,5.2851,5.2786,5.2106,5.1782,5.175,5.1361,5.1237,5.1097,5.0618,5.0097,4.9595,4.9535,4.9147,4.8541,4.9386,4.9659,4.916,4.9481,4.9627,4.9593,4.9221,4.9018,4.9018,4.9018,4.8767,4.8386,4.8064,4.7671,4.7304,4.7355,4.7197,4.6769,4.7072,4.7265,4.7239,4.7605,4.7896,4.8173,4.845,4.8604,4.8604,4.9004,4.9374,4.9682,5.0051,5.042,5.0851,5.1128,5.1559,5.2206,5.2544,5.2729,5.2729,5.2729,5.2729,5.2729,5.2729,5.2729,5.2729,5.2729,5.2729,5.2729,5.2729,5.2729,5.2729,5.2729,5.2729,5.2698,5.3113,5.3477,5.3502,5.3343,5.3154,5.2784,5.2406,5.2203,5.2048,5.2004,5.1713,5.0685,5.0985,5.1017,5.0105,5.0272,5.0794,5.1467,5.116,5.0846,5.1712,5.1992,5.198,5.2338,5.2409,5.2409,5.4662,5.4429,5.3791,5.35,5.35,5.35,5.35,5.35,5.35,5.3308,5.3077,5.3218,5.3274,5.3245,5.31,5.3879,5.5222,5.4891,5.4665,5.46,5.3952,5.3628,5.3531,5.2851,5.2398,5.2139,5.1718,5.1361,5.1162,5.0717,5.0307,4.9967,4.9833,4.9411,4.8918,4.9834,5.0253,5.0021,5.0221,5.0405,5.0338,4.9898,4.9424,4.9052,4.9018,4.874,4.8199,4.7968,4.763,4.7094,4.7325,4.7247,4.6755,4.7307,4.7723,4.7885,4.8327,4.8604,4.8604,4.8604,4.8696,4.8912,4.9404,4.9866,5.0236,5.0697,5.1251,5.1867,5.199,5.2206,5.2606,5.2729,5.2729,5.2729,5.2729,5.2729,5.2729,5.2729,5.2729,5.2729,5.2729,5.2729,5.2729,5.2729,5.2729,5.2729,5.2729,5.2729,5.2743,5.3201,5.3577,5.3664,5.4359,5.4636,5.4031,5.3841,5.3534,5.348,5.3624,5.3074,5.1853,5.2573,5.2803,5.2094,5.1745,5.1816,5.259,5.2356,5.1638,5.2584,5.2837,5.247,5.2407,5.2409,5.2409,5.5039,5.4458,5.3791,5.3559,5.353,5.35,5.35,5.35,5.35,5.3693,5.3993,5.4042,5.4399,5.492,5.4301,5.4507,5.5328,5.5345,5.5312,5.5247,5.4665,5.4341,5.4308,5.3628,5.2916,5.2398,5.2139,5.175,5.1194,5.0717,5.0685,5.0887,5.055,5.0197,4.9923,5.0659,5.0716,5.0321,5.0792,5.1117,5.115,5.1083,5.0371,4.9289,4.9052,4.9011,4.8796,4.8215,4.7766,4.7662,4.7068,4.67,4.6683,4.7269,4.7947,4.845,4.8573,4.8604,4.8604,4.8666,4.8912,4.9497,4.9743,5.0236,5.1282,5.159,5.1929,5.2575,5.2575,5.2637,5.2698,5.2729,5.2729,5.2729,5.2729,5.2729,5.2729,5.2729,5.2729,5.2729,5.2729,5.2729,5.2729,5.2729,5.2729,5.2729,5.2729,5.2743,5.2877,5.2877,5.3024,5.3334,5.3922,5.4621,5.5903,5.5581,5.5539,5.5521,5.5052,5.4789,5.4715,5.4568,5.4349,5.4034,5.3518,5.3419,5.3882,5.3592,5.2693,5.2804,5.3036,5.287,5.2475,5.2409,5.2409,5.5678,5.5039,5.4429,5.4168,5.411,5.3704,5.35,5.35,5.35,5.398,5.467,5.494,5.5503,5.636,5.5858,5.5541,5.5401,5.5409,5.5409,5.5377,5.515,5.5053,5.4988,5.4341,5.3887,5.3531,5.2657,5.1694,5.0781,5.0331,5.0058,5.0065,5.0608,5.0563,5.0338,5.1735,5.2265,5.1584,5.1766,5.1928,5.1827,5.1422,5.0913,5.0473,5.0373,5.0186,4.9691,4.8933,4.8312,4.7789,4.7449,4.725,4.7281,4.7865,4.8358,4.8573,4.8604,4.8604,4.8666,4.9066,4.9404,4.9712,5.0513,5.1097,5.1652,5.2082,5.2452,5.2667,5.2729,5.2729,5.2729,5.2729,5.2729,5.2729,5.2729,5.2729,5.2729,5.2729,5.2729,5.2729,5.2729,5.2729,5.2729,5.2729,5.2729,5.2729,5.2729,5.2966,5.3477,5.3836,5.4264,5.5067,5.5716,5.6381,5.6958,5.664,5.6302,5.656,5.641,5.5819,5.5539,5.5821,5.5729,5.4684,5.4394,5.446,5.4556,5.4357,5.3566,5.3003,5.3235,5.3069,5.2442,5.2409,5.2409,5.6026,5.5387,5.4981,5.4691,5.4458,5.4023,5.3704,5.353,5.35,5.4274,5.542,5.5748,5.6513,5.7414,5.7281,5.664,5.5798,5.5539,5.5409,5.5409,5.5409,5.5409,5.5345,5.4924,5.46,5.4139,5.276,5.1488,5.0643,5.0026,4.9541,4.9381,5.0299,5.0461,5.0338,5.2059,5.2834,5.2385,5.2299,5.2303,5.2236,5.153,5.1194,5.116,5.116,5.0823,5.0072,4.9293,4.861,4.8137,4.7973,4.7927,4.7989,4.8358,4.8604,4.8604,4.8604,4.8727,4.8974,4.9404,4.9866,5.0328,5.1128,5.1775,5.2021,5.2452,5.2667,5.2729,5.2729,5.2729,5.2729,5.2729,5.2729,5.2729,5.2729,5.2729,5.2729,5.2729,5.2729,5.2729,5.2729,5.2729,5.2698,5.2608,5.2563,5.2563,5.2743,5.317,5.3707,5.4443,5.5099,5.5868,5.6342,5.6647,5.703,5.6816,5.6711,5.6929,5.6976,5.6493,5.6281,5.6734,5.6483,5.5435,5.4995,5.5094,5.5024,5.4887,5.4357,5.3632,5.3533,5.3467,5.2904,5.2409,5.2409,5.6055,5.5562,5.5416,5.5126,5.4691,5.4487,5.411,5.3646,5.3582,5.4735,5.6286,5.6594,5.7384,5.8397,5.84,5.7773,5.6575,5.583,5.5474,5.5409,5.5409,5.5409,5.5409,5.5345,5.4916,5.4293,5.2588,5.1479,5.0862,5.0124,4.964,4.9506,5.001,5.0358,5.0003,5.1601,5.2338,5.2233,5.2238,5.2241,5.22,5.1496,5.1104,5.1094,5.1057,5.0658,4.9928,4.9178,4.8765,4.8676,4.8553,4.8573,4.8512,4.8573,4.8604,4.8604,4.8635,4.9004,4.9558,4.9743,5.0451,5.1251,5.1713,5.2052,5.2483,5.2667,5.2729,5.2729,5.2729,5.2729,5.2729,5.2729,5.2729,5.2729,5.2729,5.2729,5.2729,5.2729,5.2729,5.2729,5.2788,5.2743,5.2698,5.2802,5.2815,5.2905,5.3139,5.362,5.3934,5.4611,5.4768,5.5181,5.6027,5.6762,5.6877,5.6954,5.7067,5.7218,5.7151,5.6876,5.6667,5.6854,5.6487,5.5609,5.5202,5.5231,5.5189,5.5057,5.4589,5.4063,5.403,5.3632,5.2937,5.2409,5.2409,5.6897,5.6665,5.6258,5.5997,5.5678,5.4894,5.4371,5.4245,5.4488,5.5361,5.6607,5.7402,5.8328,5.9,5.8831,5.813,5.7223,5.6478,5.5895,5.5507,5.5409,5.5409,5.5409,5.5409,5.4891,5.4002,5.3358,5.2359,5.1381,5.1385,5.12,5.0653,5.1501,5.1814,5.1277,5.1843,5.2155,5.209,5.1704,5.1475,5.1443,5.122,5.107,5.1032,5.0576,5.0133,4.9903,4.967,4.9529,4.943,4.8903,4.8604,4.8604,4.8604,4.8604,4.8666,4.9097,4.9404,4.9743,5.0543,5.119,5.1682,5.2113,5.2452,5.2667,5.2729,5.2743,5.2698,5.2729,5.2729,5.2729,5.2729,5.2743,5.2729,5.2729,5.2729,5.2729,5.2698,5.2729,5.2788,5.3246,5.3533,5.3707,5.3848,5.4158,5.419,5.4485,5.4746,5.5393,5.5515,5.6185,5.6768,5.7067,5.6915,5.703,5.7105,5.7214,5.7252,5.7176,5.6972,5.6792,5.6583,5.6254,5.5884,5.5476,5.5368,5.5326,5.5123,5.4759,5.4129,5.3699,5.3169,5.2608,5.2409,5.2409,5.7536,5.7274,5.6897,5.6607,5.6345,5.5503,5.4923,5.4648,5.5145,5.5871,5.6686,5.7715,5.8792,5.9443,5.9187,5.8605,5.7968,5.7482,5.6737,5.5863,5.5507,5.5409,5.5369,5.5205,5.4723,5.3901,5.3406,5.2597,5.1511,5.1696,5.1487,5.1022,5.2077,5.242,5.2005,5.2276,5.2489,5.2353,5.1797,5.1385,5.1339,5.1104,5.0946,5.0866,5.0457,5.0244,5.0172,5.0172,4.9953,4.9497,4.9109,4.9004,4.9035,4.9251,4.9404,4.9466,4.9805,5.0174,5.0482,5.1221,5.1836,5.2082,5.2483,5.2698,5.2743,5.2922,5.3201,5.3201,5.3521,5.3652,5.3695,5.3695,5.3565,5.317,5.2877,5.2743,5.2698,5.298,5.3201,5.339,5.3965,5.4359,5.4621,5.4746,5.5158,5.5158,5.5361,5.5603,5.627,5.6498,5.7105,5.7514,5.7439,5.7327,5.7327,5.7327,5.7327,5.7289,5.7214,5.6838,5.6563,5.6254,5.5954,5.5651,5.5314,5.5534,5.5525,5.5322,5.4953,5.4262,5.3599,5.3036,5.2638,5.2442,5.2409,5.7942,5.739,5.7303,5.6984,5.652,5.6345,5.5758,5.4983,5.5686,5.6354,5.694,5.7948,5.8882,5.9584,5.9575,5.9155,5.8669,5.8443,5.7644,5.6543,5.5863,5.5539,5.5369,5.504,5.4591,5.3999,5.3098,5.23,5.1845,5.1599,5.0833,5.1117,5.201,5.2071,5.2197,5.2709,5.2964,5.2685,5.2096,5.1673,5.1704,5.1098,5.0703,5.0715,5.0641,5.0641,5.0611,5.058,5.0074,4.9035,4.9477,4.9743,4.9835,5.0371,5.0715,5.0727,5.0796,5.1209,5.1629,5.1788,5.2082,5.2544,5.2667,5.2729,5.2788,5.3246,5.3577,5.3664,5.4274,5.4819,5.4778,5.4861,5.4569,5.4105,5.339,5.2966,5.2877,5.3533,5.3976,5.419,5.4819,5.5393,5.5393,5.532,5.5402,5.541,5.585,5.6198,5.6348,5.6806,5.7181,5.7402,5.7476,5.7476,5.7439,5.7551,5.7551,5.7402,5.7289,5.6943,5.6534,5.6158,5.5813,5.5514,5.5447,5.5634,5.5762,5.5587,5.5284,5.4792,5.4096,5.3268,5.2804,5.2638,5.2409,5.8203,5.8,5.7507,5.7216,5.7013,5.6607,5.6431,5.6429,5.692,5.7462,5.7934,5.885,5.9375,5.9673,5.9673,5.9284,5.8766,5.8637,5.7828,5.664,5.6349,5.5895,5.5425,5.4989,5.4539,5.404,5.3377,5.2909,5.251,5.2729,5.2667,5.2264,5.3387,5.3576,5.2828,5.285,5.2629,5.2059,5.1398,5.1084,5.1072,5.0901,5.0697,5.0697,5.0728,5.0759,5.0697,5.0697,5.0574,5.0236,5.0297,5.042,5.0537,5.1161,5.1654,5.1727,5.2114,5.2408,5.2562,5.251,5.2558,5.2667,5.2698,5.2729,5.2729,5.2922,5.3069,5.3069,5.3258,5.3565,5.3608,5.4136,5.4485,5.4819,5.4232,5.3707,5.3793,5.4401,5.4952,5.5067,5.5756,5.6152,5.6348,5.6619,5.6887,5.6963,5.7072,5.7185,5.711,5.711,5.7514,5.7402,5.7439,5.7514,5.7551,5.7698,5.7735,5.7551,5.7402,5.7185,5.6738,5.6329,5.5946,5.5567,5.57,5.589,5.6022,5.5984,5.562,5.5123,5.4129,5.3169,5.3036,5.287,5.2542,5.8552,5.8318,5.8127,5.8,5.8051,5.8134,5.8158,5.8195,5.8511,5.8606,5.8824,5.9338,5.9673,5.9673,5.9673,5.949,5.9058,5.9025,5.8453,5.745,5.677,5.6089,5.5407,5.4832,5.4359,5.4028,5.3421,5.3011,5.2757,5.3214,5.3113,5.286,5.3695,5.3652,5.2785,5.2816,5.2667,5.214,5.1744,5.1528,5.1559,5.1559,5.1559,5.1559,5.1559,5.1559,5.1559,5.1559,5.1313,5.0913,5.0944,5.1128,5.1203,5.1852,5.2459,5.2797,5.3229,5.3545,5.3818,5.3561,5.3258,5.3157,5.298,5.2698,5.2788,5.298,5.3302,5.3836,5.4094,5.4485,5.4819,5.5067,5.5312,5.5716,5.5393,5.4911,5.4579,5.5312,5.5796,5.6034,5.6575,5.711,5.7143,5.7625,5.7808,5.7845,5.7701,5.7735,5.7698,5.7698,5.7625,5.7439,5.7402,5.7439,5.7364,5.7439,5.7514,5.7364,5.7289,5.7143,5.6729,5.6354,5.6004,5.5757,5.5918,5.6084,5.6216,5.6117,5.5416,5.4721,5.3831,5.3301,5.3169,5.287,5.2539,5.8958,5.8463,5.8847,5.8979,5.9087,6.015,6.0157,5.9947,6.0098,5.9886,5.961,5.9685,5.9802,5.9673,5.9673,5.964,5.9652,5.9587,5.9122,5.8184,5.7139,5.6062,5.5454,5.456,5.4146,5.3856,5.31,5.2819,5.2698,5.2743,5.2743,5.2877,5.3055,5.3024,5.3113,5.3082,5.3024,5.3064,5.2883,5.2909,5.2953,5.2909,5.2834,5.3009,5.2776,5.2763,5.2736,5.2603,5.2144,5.0974,5.1498,5.1775,5.1911,5.2479,5.3209,5.3765,5.4031,5.4473,5.4952,5.4369,5.3934,5.3762,5.3346,5.2922,5.3113,5.3695,5.4359,5.4943,5.5955,5.6309,5.692,5.6844,5.6614,5.6652,5.6691,5.6342,5.5955,5.627,5.6729,5.6729,5.7443,5.7808,5.7881,5.7881,5.7845,5.7772,5.7735,5.7625,5.7551,5.7514,5.7439,5.7327,5.7327,5.7364,5.7214,5.7101,5.7101,5.7101,5.7025,5.6882,5.6469,5.6127,5.5956,5.5918,5.6216,5.6382,5.6481,5.6084,5.5383,5.4754,5.4059,5.3566,5.3169,5.2738,5.2373,5.9219,5.9103,5.9025,5.8979,5.9195,6.0202,6.0843,6.1015,6.1085,6.0867,6.0541,6.0534,6.0235,5.9705,5.9749,5.9673,5.9673,5.964,5.9328,5.8432,5.6734,5.6007,5.5527,5.4665,5.3962,5.354,5.3011,5.2729,5.2729,5.2729,5.2729,5.2833,5.3793,5.4359,5.3793,5.419,5.4736,5.4611,5.4062,5.4051,5.4359,5.4008,5.4008,5.4443,5.4051,5.375,5.3533,5.3069,5.2544,5.239,5.2404,5.2479,5.2644,5.371,5.4232,5.4147,5.4611,5.5035,5.5108,5.4569,5.4019,5.4105,5.4359,5.4443,5.3836,5.4485,5.5026,5.5312,5.5515,5.6152,5.6882,5.6768,5.692,5.7331,5.7517,5.748,5.7406,5.7443,5.7517,5.7591,5.7735,5.7881,5.7881,5.7735,5.7698,5.7662,5.7551,5.7402,5.7327,5.7327,5.7252,5.7176,5.7176,5.7176,5.7101,5.6949,5.6949,5.6949,5.6872,5.6834,5.642,5.6282,5.6216,5.6349,5.6547,5.6647,5.6647,5.615,5.545,5.4887,5.4423,5.3897,5.34,5.2837,5.2407,5.9596,6.005,5.9874,6.0097,6.0722,6.1772,6.2358,6.2444,6.2189,6.1959,6.1633,6.1141,6.0591,6.0202,5.9878,5.9673,5.9673,5.9673,5.939,5.8622,5.7384,5.6599,5.5885,5.4876,5.3972,5.3427,5.2922,5.2698,5.2729,5.2729,5.2729,5.2788,5.4094,5.4274,5.419,5.4861,5.519,5.5158,5.487,5.4861,5.5076,5.4902,5.4736,5.5158,5.4861,5.4611,5.4569,5.3793,5.339,5.3302,5.3302,5.3113,5.2833,5.3565,5.3965,5.4147,5.4359,5.4911,5.4952,5.4943,5.4621,5.4611,5.5035,5.4985,5.4778,5.5076,5.5482,5.5796,5.5995,5.627,5.7105,5.7218,5.7517,5.7701,5.7881,5.7881,5.7881,5.7881,5.7845,5.7808,5.7735,5.7735,5.7698,5.7588,5.7551,5.7551,5.7439,5.7289,5.7327,5.7289,5.7139,5.7063,5.7025,5.6987,5.6911,5.6872,5.6872,5.6834,5.6757,5.6757,5.6619,5.6581,5.6647,5.668,5.668,5.668,5.6581,5.6051,5.5747,5.5653,5.5222,5.4394,5.3765,5.3367,5.2837,6.0084,6.089,6.091,6.1469,6.2369,6.3437,6.385,6.3847,6.3344,6.2894,6.2663,6.1498,6.0947,6.0623,6.0008,5.9749,5.9673,5.9673,5.9443,5.9016,5.7956,5.7235,5.6378,5.5215,5.4117,5.3463,5.2908,5.2729,5.2729,5.2729,5.2729,5.2877,5.3608,5.4019,5.4232,5.4828,5.5434,5.5555,5.5555,5.5716,5.5796,5.5676,5.5523,5.5595,5.5555,5.5515,5.5353,5.4736,5.419,5.419,5.4221,5.3793,5.3346,5.3302,5.3157,5.3934,5.4274,5.4819,5.4952,5.5076,5.5198,5.5312,5.5515,5.5515,5.5515,5.5763,5.6231,5.6575,5.6844,5.7067,5.7808,5.7808,5.7808,5.7845,5.7845,5.7845,5.7808,5.7808,5.7698,5.7735,5.7698,5.7662,5.7551,5.7439,5.7439,5.7439,5.7327,5.7214,5.7214,5.7176,5.7025,5.6949,5.6872,5.6872,5.6796,5.6796,5.6796,5.6757,5.6719,5.6719,5.668,5.668,5.668,5.668,5.668,5.668,5.6514,5.6051,5.5984,5.6249,5.5521,5.4229,5.3831,5.3831,5.3367,6.0731,6.0946,6.1743,6.2171,6.2467,6.3532,6.4024,6.3991,6.3829,6.3473,6.2825,6.1983,6.1271,6.0753,6.004,5.9705,5.9673,5.9628,5.9584,5.9145,5.8122,5.7172,5.6741,5.5487,5.4437,5.3651,5.3067,5.279,5.2729,5.2729,5.2729,5.2877,5.3608,5.3976,5.4232,5.4828,5.5716,5.6034,5.627,5.6652,5.6844,5.6691,5.6348,5.6348,5.642,5.642,5.6192,5.5595,5.5108,5.5108,5.5108,5.4985,5.4902,5.5353,5.4861,5.3965,5.4861,5.5393,5.4778,5.5026,5.5271,5.5474,5.5995,5.6348,5.6536,5.692,5.7222,5.7443,5.7554,5.7735,5.7881,5.7881,5.7808,5.7735,5.7698,5.7625,5.7514,5.7514,5.7588,5.7735,5.7662,5.7551,5.7402,5.7252,5.7214,5.7176,5.7063,5.6949,5.6949,5.6911,5.6796,5.6757,5.6719,5.6719,5.6719,5.6719,5.6719,5.6719,5.668,5.668,5.668,5.668,5.668,5.668,5.668,5.668,5.6415,5.6084,5.6017,5.6183,5.509,5.3964,5.4162,5.4394,5.4092,6.195,6.2161,6.2248,6.2646,6.3212,6.3755,6.4024,6.4024,6.4024,6.3829,6.3214,6.234,6.166,6.1109,6.0137,5.9716,5.9628,5.9407,5.9197,5.8709,5.7895,5.7152,5.6965,5.5719,5.5519,5.4976,5.4095,5.3037,5.276,5.2729,5.2729,5.2922,5.3577,5.3976,5.4285,5.532,5.5756,5.6152,5.6729,5.7181,5.7293,5.7105,5.7256,5.7256,5.7256,5.7293,5.711,5.6426,5.5995,5.5955,5.5955,5.5716,5.5836,5.6231,5.6342,5.4778,5.5271,5.5676,5.4985,5.5474,5.5995,5.6074,5.6729,5.7218,5.7331,5.7591,5.7881,5.7881,5.7881,5.7881,5.7881,5.7881,5.7845,5.7772,5.7735,5.7698,5.7625,5.7588,5.7662,5.7698,5.7476,5.7289,5.7214,5.7101,5.6949,5.6872,5.6796,5.6757,5.6719,5.668,5.668,5.668,5.668,5.668,5.668,5.668,5.668,5.668,5.668,5.668,5.668,5.668,5.668,5.668,5.668,5.668,5.6614,5.6382,5.6249,5.6117,5.5653,5.5222,5.5024,5.4891,5.4622,6.3017,6.3249,6.2833,6.3164,6.3929,6.4024,6.4024,6.4024,6.4024,6.3991,6.3797,6.2534,6.1789,6.1433,6.0449,5.9673,5.954,5.9139,5.8792,5.8257,5.7762,5.7275,5.6834,5.6381,5.6076,5.5937,5.5101,5.3774,5.3352,5.288,5.2729,5.2833,5.3477,5.375,5.4008,5.4943,5.5393,5.5796,5.6465,5.692,5.6691,5.6996,5.748,5.7662,5.7628,5.7625,5.7698,5.7256,5.6882,5.6844,5.6806,5.6575,5.6192,5.7147,5.7185,5.6113,5.5836,5.5716,5.5482,5.6034,5.6459,5.6498,5.7181,5.7588,5.7845,5.7808,5.7881,5.7881,5.7881,5.7881,5.7881,5.7881,5.7845,5.7808,5.7808,5.7808,5.7698,5.7625,5.7551,5.7476,5.7214,5.7101,5.7063,5.7025,5.6949,5.6872,5.6796,5.6757,5.6719,5.6719,5.668,5.668,5.668,5.668,5.668,5.668,5.668,5.668,5.668,5.668,5.668,5.668,5.668,5.668,5.668,5.668,5.668,5.668,5.6514,5.6448,5.6481,5.6316,5.5885,5.5554,5.5251,6.3274,6.3349,6.3677,6.3897,6.3976,6.4024,6.4024,6.4024,6.4024,6.4024,6.3926,6.2502,6.1789,6.1368,6.0332,5.9528,5.9197,5.8927,5.8655,5.8165,5.7653,5.7401,5.7306,5.6892,5.6446,5.6326,5.5735,5.5254,5.4648,5.3548,5.276,5.288,5.2894,5.2922,5.3157,5.4179,5.419,5.4359,5.5117,5.5636,5.5595,5.5716,5.6152,5.6652,5.6882,5.7218,5.7772,5.7628,5.7591,5.7628,5.7665,5.7665,5.7628,5.7735,5.7845,5.7628,5.7443,5.692,5.5915,5.627,5.6768,5.6768,5.692,5.7218,5.7628,5.7881,5.7881,5.7881,5.7881,5.7881,5.7881,5.7881,5.7808,5.7735,5.7735,5.7625,5.7514,5.7625,5.7551,5.7402,5.7214,5.7101,5.7025,5.6987,5.6949,5.6872,5.6834,5.6796,5.6757,5.6719,5.668,5.668,5.668,5.668,5.668,5.668,5.668,5.668,5.668,5.668,5.668,5.668,5.668,5.668,5.668,5.668,5.668,5.668,5.668,5.6614,5.6514,5.6547,5.6547,5.6249,5.5852,6.3693,6.3709,6.3931,6.4024,6.4024,6.4024,6.4024,6.4024,6.4024,6.4024,6.3732,6.2469,6.14,6.0656,5.9878,5.9584,5.9318,5.8837,5.8441,5.8072,5.7543,5.7115,5.705,5.6954,5.6676,5.6855,5.6357,5.643,5.591,5.4666,5.3283,5.3267,5.2914,5.2743,5.2997,5.3608,5.3577,5.3664,5.4105,5.4819,5.519,5.5361,5.5716,5.6536,5.6575,5.7105,5.7665,5.7881,5.7881,5.7881,5.7881,5.7881,5.7881,5.7881,5.7881,5.7881,5.7881,5.7517,5.6996,5.7147,5.7256,5.7331,5.7331,5.7554,5.7845,5.7881,5.7881,5.7881,5.7881,5.7881,5.7881,5.7881,5.7845,5.7772,5.7766,5.7732,5.7621,5.7514,5.7476,5.7364,5.7214,5.7139,5.7025,5.6987,5.6911,5.6796,5.6757,5.6757,5.6719,5.6719,5.668,5.668,5.668,5.668,5.668,5.668,5.668,5.668,5.6719,5.6719,5.668,5.668,5.6719,5.6719,5.668,5.668,5.668,5.668,5.668,5.6581,5.6448,5.6547,5.6647,5.6614,5.6349,6.4024,6.4024,6.4024,6.4024,6.4024,6.4024,6.4024,6.4024,6.4024,6.4024,6.3635,6.2469,6.1044,5.9976,5.9705,5.9584,5.9419,5.8578,5.8165,5.7793,5.7495,5.7115,5.705,5.6971,5.7511,5.8211,5.709,5.7298,5.7503,5.655,5.51,5.4594,5.3663,5.3521,5.3753,5.4103,5.4147,5.3836,5.4232,5.4778,5.5158,5.5312,5.5836,5.6342,5.6691,5.6996,5.7772,5.7881,5.7881,5.7881,5.7881,5.7881,5.7881,5.7881,5.7881,5.7881,5.7881,5.7881,5.7665,5.7772,5.7881,5.7881,5.7881,5.7808,5.7881,5.7881,5.7881,5.7881,5.7881,5.7881,5.7915,5.8017,5.8048,5.8045,5.7974,5.7944,5.7876,5.7658,5.7588,5.7588,5.7439,5.7176,5.7101,5.7025,5.6911,5.6757,5.6719,5.6719,5.6719,5.668,5.6719,5.6719,5.6719,5.6719,5.6719,5.6719,5.6719,5.6719,5.6757,5.6719,5.6719,5.6757,5.6796,5.6757,5.6719,5.668,5.668,5.668,5.668,5.6614,5.6581,5.6614,5.668,5.668,5.668,6.4024,6.4024,6.4024,6.4024,6.4024,6.4024,6.4024,6.4024,6.4024,6.3959,6.3603,6.2437,6.0947,5.9964,5.9584,5.9407,5.9017,5.8441,5.8119,5.7933,5.784,5.77,5.7559,5.7793,5.8165,5.8303,5.7944,5.8505,5.9,5.8238,5.7496,5.7044,5.5186,5.5208,5.5249,5.5118,5.4985,5.4736,5.4985,5.5067,5.5239,5.5393,5.5789,5.6453,5.6685,5.6996,5.7845,5.7915,5.7881,5.7881,5.7881,5.7881,5.7881,5.7881,5.7881,5.7881,5.7881,5.7881,5.7881,5.7881,5.7881,5.7881,5.7881,5.7881,5.7881,5.7881,5.7881,5.7881,5.7881,5.7881,5.8084,5.8355,5.818,5.8042,5.7974,5.7971,5.7833,5.7658,5.7588,5.7735,5.7588,5.7176,5.7063,5.6949,5.6872,5.6719,5.6757,5.6757,5.6719,5.668,5.6719,5.6719,5.6719,5.6719,5.6757,5.6757,5.6872,5.6872,5.6872,5.6834,5.6757,5.6796,5.6796,5.6757,5.668,5.668,5.668,5.668,5.668,5.668,5.668,5.668,5.668,5.668,5.668,6.4024,6.4024,6.4024,6.4024,6.4024,6.4024,6.4024,6.4024,6.4024,6.3441,6.2631,6.1595,6.0656,5.9822,5.9363,5.9184,5.9004,5.8773,5.8501,5.8592,5.8696,5.8818,5.8728,5.8773,5.9088,5.9088,5.9133,5.9543,6.0266,5.9379,5.9894,5.9054,5.7084,5.6159,5.6057,5.6035,5.5564,5.5426,5.5353,5.5353,5.5312,5.5385,5.5912,5.7165,5.6746,5.7368,5.8241,5.8084,5.7949,5.7881,5.7881,5.7881,5.7881,5.7881,5.7881,5.7881,5.7881,5.7881,5.7881,5.7881,5.7881,5.7881,5.7881,5.7881,5.7881,5.7881,5.7881,5.7881,5.7881,5.7881,5.7949,5.8118,5.8082,5.7944,5.7904,5.7928,5.7719,5.751,5.7439,5.7514,5.7252,5.6911,5.6872,5.6834,5.6757,5.6719,5.6757,5.6796,5.6757,5.6757,5.6796,5.6872,5.6872,5.6949,5.6987,5.7025,5.7063,5.7025,5.6987,5.6911,5.6834,5.6719,5.6719,5.668,5.668,5.668,5.668,5.668,5.668,5.668,5.668,5.668,5.668,5.668,5.668,6.4024,6.4024,6.4024,6.4024,6.4024,6.4024,6.4024,6.3959,6.3764,6.2858,6.1498,6.0947,6.0397,5.9746,5.9229,5.9286,5.9286,5.9133,5.9145,5.9367,5.9718,5.9805,5.9762,5.9849,5.9979,5.9979,6.0065,6.0525,6.1317,6.0216,6.0736,6.0826,5.9605,5.836,5.7877,5.7131,5.6599,5.6435,5.6402,5.6205,5.6218,5.6455,5.6803,5.803,5.7907,5.8098,5.868,5.8524,5.8152,5.7983,5.7881,5.7881,5.7881,5.7881,5.7881,5.7881,5.7881,5.7881,5.7881,5.7881,5.7881,5.7881,5.7881,5.7881,5.7881,5.7881,5.7881,5.7881,5.7881,5.7881,5.7915,5.8149,5.7968,5.786,5.798,5.7968,5.7528,5.7252,5.7252,5.7252,5.6987,5.6872,5.6834,5.6834,5.6757,5.6719,5.6719,5.6796,5.6872,5.6872,5.6911,5.6987,5.7101,5.7176,5.7252,5.7176,5.7063,5.7025,5.6987,5.6987,5.6911,5.6796,5.6757,5.6834,5.6796,5.6719,5.668,5.668,5.668,5.668,5.668,5.668,5.668,5.668,5.668,6.4024,6.4024,6.4024,6.4024,6.4024,6.4024,6.4024,6.3894,6.3214,6.221,6.1077,6.0818,6.0364,5.9681,5.9229,5.9286,5.9608,5.9311,5.9323,5.9968,6.0652,6.0397,6.0397,6.0567,6.0986,6.0986,6.1028,6.1432,6.2223,6.1782,6.2156,6.2099,6.1155,6.0505,6.0941,6.0304,5.9599,5.8987,5.8774,5.8328,5.8018,5.8283,5.8661,5.9107,5.9144,5.9119,5.9126,5.8761,5.8321,5.7983,5.7881,5.7881,5.7881,5.7881,5.7881,5.7881,5.7881,5.7881,5.7881,5.7881,5.7881,5.7881,5.7881,5.7881,5.7881,5.7881,5.7881,5.7881,5.7881,5.7881,5.8045,5.8238,5.7988,5.7808,5.7926,5.7845,5.7444,5.7101,5.7101,5.7025,5.7025,5.6987,5.6911,5.6834,5.6757,5.668,5.668,5.6757,5.6911,5.6987,5.6987,5.7101,5.7214,5.7289,5.7327,5.7176,5.7101,5.7063,5.7025,5.7063,5.7025,5.6911,5.6911,5.6949,5.6834,5.6719,5.668,5.668,5.668,5.668,5.668,5.668,5.668,5.668,5.668,6.4024,6.4024,6.4024,6.4024,6.4024,6.4024,6.4024,6.3797,6.2761,6.1886,6.1336,6.0591,6.0008,5.9617,5.9241,5.9062,5.9043,5.9968,6.0098,6.0054,6.1193,6.1676,6.1595,6.1554,6.187,6.1911,6.1951,6.1951,6.2341,6.2415,6.2415,6.2279,6.2042,6.1434,6.0723,6.0148,5.9877,5.9742,5.9671,5.9569,5.9404,5.9607,5.9911,6.0317,5.9844,5.9539,5.9505,5.8896,5.8287,5.7949,5.7881,5.7881,5.7881,5.7881,5.7881,5.7881,5.7881,5.7881,5.7881,5.7881,5.7881,5.7881,5.7881,5.7881,5.7881,5.7881,5.7881,5.7881,5.7808,5.7772,5.7763,5.8186,5.8068,5.77,5.7653,5.7678,5.7401,5.7163,5.6987,5.6872,5.6796,5.6834,5.6796,5.6796,5.6719,5.6757,5.6757,5.6834,5.6949,5.6987,5.7025,5.7176,5.7289,5.7402,5.7402,5.7327,5.7327,5.7364,5.7289,5.7214,5.7139,5.6987,5.6872,5.6834,5.6757,5.668,5.6719,5.6719,5.6719,5.668,5.668,5.668,5.668,5.668,5.668,6.4024,6.4024,6.4024,6.3829,6.3635,6.3635,6.3376,6.2825,6.1854,6.1336,6.0882,6.0073,5.9716,5.9584,5.9229,5.9343,5.9189,5.9892,6.082,6.0652,6.183,6.2223,6.2341,6.2415,6.2263,6.2415,6.2415,6.2415,6.2415,6.2415,6.2415,6.2415,6.2381,6.1907,6.1231,6.1028,6.0825,6.0689,6.052,6.0317,6.0114,6.0114,6.0283,6.0351,6.0047,5.9505,5.9404,5.8863,5.8118,5.7983,5.7881,5.7881,5.7881,5.7881,5.7881,5.7881,5.7881,5.7881,5.7881,5.7881,5.7881,5.7881,5.7881,5.7881,5.7881,5.7881,5.7881,5.7845,5.7735,5.7662,5.7689,5.8073,5.793,5.7561,5.741,5.7435,5.722,5.6944,5.6872,5.6757,5.6719,5.668,5.668,5.6719,5.668,5.6757,5.6872,5.6911,5.6987,5.7025,5.7063,5.7214,5.7364,5.7439,5.7476,5.7476,5.7514,5.7662,5.7476,5.7252,5.7101,5.6911,5.6834,5.6796,5.6834,5.6834,5.6796,5.6796,5.6719,5.668,5.668,5.668,5.668,5.668,5.668,6.4024,6.4024,6.4024,6.3603,6.302,6.302,6.221,6.0979,6.085,6.0461,5.9846,5.9878,5.9673,5.9628,5.9274,5.9652,6.0492,6.0661,6.1235,6.1877,6.2381,6.2459,6.242,6.2415,6.2415,6.2415,6.2415,6.2415,6.2415,6.2415,6.2415,6.2415,6.2415,6.2178,6.2076,6.1941,6.1738,6.1434,6.1298,6.1028,6.0757,6.0385,6.0452,6.0385,6.0013,5.9505,5.9235,5.8761,5.8389,5.8118,5.7881,5.7881,5.7881,5.7881,5.7881,5.7881,5.7881,5.7881,5.7881,5.7881,5.7881,5.7881,5.7881,5.7881,5.7881,5.7881,5.7881,5.7881,5.7808,5.7698,5.7726,5.7715,5.767,5.7419,5.723,5.7082,5.6862,5.6757,5.6719,5.668,5.668,5.668,5.668,5.668,5.668,5.6719,5.6796,5.6834,5.6949,5.7063,5.7101,5.7176,5.7327,5.7514,5.7514,5.7439,5.7514,5.7588,5.7289,5.7063,5.6949,5.6949,5.6949,5.6987,5.6987,5.6987,5.6911,5.6796,5.6719,5.668,5.668,5.668,5.668,5.668,5.668,6.4024,6.4024,6.4024,6.3894,6.3635,6.3117,6.234,6.153,6.1044,6.0623,6.0461,5.9943,5.9804,5.9716,6.0033,6.0259,6.0619,6.116,6.1487,6.1963,6.2464,6.2498,6.2459,6.2381,6.2415,6.2415,6.2415,6.2415,6.2415,6.2415,6.2415,6.2415,6.2313,6.2347,6.2347,6.2381,6.211,6.2009,6.1839,6.1704,6.1366,6.0994,6.0858,6.0554,5.9674,5.9235,5.893,5.849,5.8118,5.7949,5.7881,5.7881,5.7881,5.7881,5.7881,5.7881,5.7881,5.7881,5.7881,5.7881,5.7881,5.7881,5.7881,5.7881,5.7881,5.7915,5.7915,5.7915,5.791,5.7867,5.7756,5.7678,5.7494,5.7277,5.7192,5.7182,5.6928,5.6719,5.6719,5.668,5.668,5.668,5.668,5.668,5.668,5.6719,5.6719,5.6796,5.6834,5.6987,5.7063,5.7101,5.7252,5.7364,5.7327,5.7252,5.7402,5.7439,5.7214,5.7101,5.7214,5.7252,5.7176,5.7101,5.7025,5.7025,5.6987,5.6872,5.6719,5.6719,5.6719,5.668,5.668,5.668,5.668,6.4024,6.4024,6.4024,6.3862,6.3473,6.2761,6.2048,6.14,6.0947,6.0789,6.0696,6.0315,6.0249,6.0591,6.0894,6.1069,6.1078,6.1843,6.224,6.2391,6.2542,6.2576,6.2576,6.242,6.2415,6.2415,6.2415,6.2415,6.2415,6.2415,6.2415,6.2347,6.2178,6.1975,6.1839,6.1569,6.14,6.1603,6.1873,6.211,6.1772,6.1231,6.0791,6.025,5.9133,5.8727,5.8558,5.8051,5.7949,5.7881,5.7881,5.7881,5.7881,5.7881,5.7881,5.7881,5.7881,5.7881,5.7881,5.7881,5.7881,5.7881,5.7881,5.7881,5.8051,5.8186,5.8084,5.8017,5.8076,5.8066,5.7921,5.7704,5.7419,5.713,5.7258,5.7348,5.7066,5.679,5.6719,5.668,5.668,5.668,5.668,5.668,5.668,5.6719,5.6719,5.6719,5.6757,5.6834,5.6872,5.6872,5.7063,5.7176,5.7139,5.7176,5.7364,5.7476,5.7364,5.7327,5.7476,5.7439,5.7289,5.7176,5.7025,5.7025,5.7063,5.6834,5.6719,5.6719,5.6719,5.6719,5.6719,5.668,5.668,6.4024,6.4024,6.4024,6.3603,6.2858,6.2242,6.164,6.1004,6.0992,6.0826,6.0755,6.0859,6.1227,6.1624,6.191,6.2152,6.2245,6.2649,6.2817,6.3,6.2928,6.2885,6.2654,6.2498,6.2459,6.2454,6.2415,6.2415,6.2415,6.2381,6.2347,6.2279,6.1704,6.1366,6.1129,6.0723,6.0554,6.0723,6.1264,6.1637,6.1095,6.0452,5.9708,5.9133,5.8457,5.7949,5.7949,5.7881,5.7915,5.7949,5.8017,5.8051,5.8254,5.8084,5.8084,5.8152,5.822,5.8152,5.8152,5.8152,5.7983,5.7949,5.7881,5.7881,5.8051,5.822,5.8118,5.7944,5.7934,5.7857,5.7641,5.757,5.7356,5.7172,5.7158,5.7148,5.7005,5.6796,5.6719,5.668,5.668,5.668,5.668,5.668,5.668,5.668,5.668,5.668,5.6757,5.6796,5.6796,5.6796,5.7025,5.7176,5.7176,5.7214,5.7402,5.7439,5.7402,5.7476,5.7588,5.7514,5.7364,5.7252,5.7176,5.7139,5.7101,5.6911,5.6757,5.6796,5.6796,5.6757,5.6796,5.6911,5.6796,6.4024,6.4024,6.4024,6.357,6.2923,6.2696,6.2529,6.2322,6.1788,6.1327,6.0981,6.1792,6.2397,6.2683,6.3091,6.3294,6.3378,6.3213,6.3265,6.3227,6.3227,6.3038,6.2765,6.2615,6.2537,6.242,6.2415,6.2381,6.2279,6.2245,6.2076,6.1603,6.1163,6.0892,6.0419,5.9979,5.9911,5.9877,6.0182,6.0588,6.025,5.9708,5.9099,5.8761,5.8321,5.7915,5.7881,5.7881,5.8254,5.8592,5.8727,5.9032,5.9539,5.9032,5.9066,5.9336,5.8998,5.8795,5.8727,5.8693,5.8558,5.8152,5.8017,5.7915,5.7949,5.8084,5.8115,5.7938,5.7827,5.7715,5.7536,5.7465,5.7289,5.7139,5.7025,5.6949,5.6911,5.6796,5.6719,5.668,5.668,5.668,5.668,5.668,5.668,5.668,5.668,5.6719,5.6872,5.6949,5.6872,5.6911,5.7101,5.7214,5.7214,5.7289,5.7476,5.7551,5.7551,5.7625,5.7698,5.7588,5.7439,5.7402,5.7327,5.7214,5.7063,5.6911,5.6834,5.6987,5.7181,5.7293,5.7443,5.7554,5.7256,6.4024,6.4024,6.4024,6.3764,6.3441,6.3376,6.3369,6.3298,6.3232,6.2954,6.2574,6.309,6.3579,6.3922,6.423,6.4205,6.4145,6.3724,6.3558,6.3452,6.3302,6.3224,6.2996,6.2736,6.2688,6.2571,6.242,6.2313,6.1975,6.1806,6.1535,6.0858,6.0554,6.0114,5.9607,5.937,5.9201,5.9099,5.9201,5.9201,5.9268,5.8998,5.8727,5.849,5.8152,5.7881,5.7881,5.7915,5.8355,5.893,5.9268,5.9573,5.9844,5.9674,5.9708,5.981,5.9708,5.9505,5.9505,5.9438,5.9268,5.8896,5.8829,5.8998,5.9028,5.9163,5.8856,5.8676,5.8871,5.8791,5.8131,5.7888,5.7401,5.7044,5.6939,5.6834,5.6796,5.6757,5.668,5.668,5.668,5.668,5.668,5.668,5.6719,5.6719,5.6719,5.6834,5.6949,5.7063,5.7025,5.7025,5.7214,5.7364,5.7402,5.7476,5.7551,5.7625,5.7735,5.7772,5.7845,5.7698,5.7551,5.7514,5.7364,5.7139,5.6987,5.7105,5.7331,5.7554,5.7741,5.7959,5.8031,5.8067,5.785,6.3732,6.3862,6.3991,6.4038,6.41,6.4002,6.4119,6.4388,6.47,6.5034,6.5168,6.4604,6.51,6.5431,6.5221,6.5014,6.46,6.3907,6.3703,6.3563,6.3414,6.3131,6.2912,6.2757,6.2434,6.2144,6.1961,6.154,6.1129,6.1061,6.0723,5.9979,5.9438,5.8998,5.8693,5.8355,5.8084,5.8186,5.8186,5.8051,5.8186,5.849,5.8355,5.8084,5.7881,5.7915,5.7983,5.8017,5.8355,5.937,6.0148,6.0486,6.052,6.0486,6.0486,6.0554,6.0452,6.0283,6.025,6.025,6.0148,6.0047,6.0114,6.0076,6.0005,5.9793,5.9486,5.9511,5.9703,5.9281,5.8585,5.803,5.7471,5.6995,5.6857,5.6719,5.6719,5.668,5.668,5.668,5.668,5.668,5.668,5.668,5.6719,5.6757,5.6834,5.6949,5.7025,5.7139,5.7176,5.7214,5.7327,5.7439,5.7551,5.7625,5.7662,5.7881,5.7957,5.7957,5.7957,5.792,5.7811,5.7591,5.7443,5.7483,5.752,5.7668,5.7887,5.7959,5.7704,5.7741,5.821,5.8246,5.8388,6.2566,6.3149,6.3732,6.4286,6.4662,6.4183,6.4872,6.6154,6.5395,6.5831,6.6832,6.6807,6.6718,6.6738,6.6014,6.56,6.5255,6.4324,6.3738,6.3563,6.3526,6.307,6.2581,6.233,6.1664,6.1306,6.1019,6.0638,6.0389,6.0355,5.9979,5.9201,5.9167,5.8693,5.8118,5.7881,5.7881,5.7881,5.7881,5.7881,5.7881,5.8051,5.8017,5.7881,5.7881,5.8287,5.8457,5.8152,5.9201,6.0419,6.14,6.167,6.1603,6.1332,6.1332,6.1366,6.1264,6.1095,6.1061,6.1061,6.096,6.0486,6.0414,6.0304,6.0194,6.0078,5.9934,6.0013,5.9895,5.9031,5.8407,5.8069,5.7547,5.7017,5.6719,5.6719,5.668,5.668,5.668,5.668,5.668,5.668,5.668,5.6719,5.6757,5.6796,5.6796,5.6911,5.7101,5.7214,5.7289,5.7364,5.7439,5.7514,5.7588,5.7698,5.7808,5.8029,5.8137,5.8029,5.8065,5.8246,5.8103,5.7665,5.8033,5.8354,5.839,5.778,5.8033,5.7961,5.7406,5.7331,5.8067,5.8633,5.8943]}]]